<?xml version="1.0" encoding="UTF-8" standalone="no" ?>
<gpx xmlns="http://www.topografix.com/GPX/1/1" xmlns:xsi="http://www.w3.org/2001/XMLSchema-instance" xsi:schemaLocation="http://www.topografix.com/GPX/1/1 http://www.topografix.com/GPX/1/1/gpx.xsd" version="1.1" creator="VisuGPX - https://www.visugpx.com">
  <metadata>
    <name>Nocturne Mercy le Bas 28 km</name>
    <desc><![CDATA[Nocturne MLB 16/09/2022
Parcours technique et difficile selon m�t�o.
Possibilit�s de raccourcis ou d'extension � partir du 2e ravitaillement.]]></desc>
  </metadata>
  <trk>
    <name><![CDATA[Mercy-le-Bas VTT]]></name>
    <extensions>
      <line xmlns="http://www.topografix.com/GPX/gpx_style/0/2">
        <color>0000FF</color>
        <width>4</width>
      </line>
    </extensions>
    <trkseg>
      <trkpt lat="49.39447" lon="5.7643">
        <ele>314.79998779297</ele>
        <time>2022-09-13T10:26:19.000Z</time>
      </trkpt>
      <trkpt lat="49.39446" lon="5.7643">
        <ele>304.79998779297</ele>
        <time>2022-09-13T10:26:20.000Z</time>
      </trkpt>
      <trkpt lat="49.39444" lon="5.7643">
        <ele>304.39999389648</ele>
        <time>2022-09-13T10:26:37.000Z</time>
      </trkpt>
      <trkpt lat="49.3944" lon="5.7643">
        <ele>304.60000610352</ele>
        <time>2022-09-13T10:26:39.000Z</time>
      </trkpt>
      <trkpt lat="49.39425" lon="5.76436">
        <ele>305</ele>
        <time>2022-09-13T10:26:45.000Z</time>
      </trkpt>
      <trkpt lat="49.39422" lon="5.76438">
        <ele>305</ele>
        <time>2022-09-13T10:26:46.000Z</time>
      </trkpt>
      <trkpt lat="49.39398" lon="5.76456">
        <ele>305.39999389648</ele>
        <time>2022-09-13T10:26:55.000Z</time>
      </trkpt>
      <trkpt lat="49.3939" lon="5.76463">
        <ele>305.60000610352</ele>
        <time>2022-09-13T10:26:59.000Z</time>
      </trkpt>
      <trkpt lat="49.39386" lon="5.76468">
        <ele>305.79998779297</ele>
        <time>2022-09-13T10:27:01.000Z</time>
      </trkpt>
      <trkpt lat="49.39383" lon="5.76471">
        <ele>305.60000610352</ele>
        <time>2022-09-13T10:27:02.000Z</time>
      </trkpt>
      <trkpt lat="49.39381" lon="5.76473">
        <ele>305.60000610352</ele>
        <time>2022-09-13T10:27:03.000Z</time>
      </trkpt>
      <trkpt lat="49.39378" lon="5.76475">
        <ele>305.79998779297</ele>
        <time>2022-09-13T10:27:04.000Z</time>
      </trkpt>
      <trkpt lat="49.39376" lon="5.76477">
        <ele>305.79998779297</ele>
        <time>2022-09-13T10:27:05.000Z</time>
      </trkpt>
      <trkpt lat="49.39374" lon="5.76479">
        <ele>305.79998779297</ele>
        <time>2022-09-13T10:27:06.000Z</time>
      </trkpt>
      <trkpt lat="49.39371" lon="5.76481">
        <ele>305.79998779297</ele>
        <time>2022-09-13T10:27:07.000Z</time>
      </trkpt>
      <trkpt lat="49.39349" lon="5.76496">
        <ele>306</ele>
        <time>2022-09-13T10:27:14.000Z</time>
      </trkpt>
      <trkpt lat="49.39339" lon="5.76511">
        <ele>306</ele>
        <time>2022-09-13T10:27:18.000Z</time>
      </trkpt>
      <trkpt lat="49.39338" lon="5.76514">
        <ele>306</ele>
        <time>2022-09-13T10:27:19.000Z</time>
      </trkpt>
      <trkpt lat="49.39337" lon="5.76519">
        <ele>306.20001220703</ele>
        <time>2022-09-13T10:27:20.000Z</time>
      </trkpt>
      <trkpt lat="49.39337" lon="5.76525">
        <ele>306.20001220703</ele>
        <time>2022-09-13T10:27:21.000Z</time>
      </trkpt>
      <trkpt lat="49.39336" lon="5.76529">
        <ele>306.39999389648</ele>
        <time>2022-09-13T10:27:22.000Z</time>
      </trkpt>
      <trkpt lat="49.39335" lon="5.76538">
        <ele>306.39999389648</ele>
        <time>2022-09-13T10:27:24.000Z</time>
      </trkpt>
      <trkpt lat="49.39335" lon="5.76543">
        <ele>306.39999389648</ele>
        <time>2022-09-13T10:27:25.000Z</time>
      </trkpt>
      <trkpt lat="49.39333" lon="5.76548">
        <ele>306.60000610352</ele>
        <time>2022-09-13T10:27:26.000Z</time>
      </trkpt>
      <trkpt lat="49.39332" lon="5.76552">
        <ele>306.60000610352</ele>
        <time>2022-09-13T10:27:27.000Z</time>
      </trkpt>
      <trkpt lat="49.39331" lon="5.76556">
        <ele>306.60000610352</ele>
        <time>2022-09-13T10:27:28.000Z</time>
      </trkpt>
      <trkpt lat="49.39324" lon="5.7657">
        <ele>307.20001220703</ele>
        <time>2022-09-13T10:27:31.000Z</time>
      </trkpt>
      <trkpt lat="49.39309" lon="5.76607">
        <ele>307.60000610352</ele>
        <time>2022-09-13T10:27:40.000Z</time>
      </trkpt>
      <trkpt lat="49.39307" lon="5.76612">
        <ele>307.60000610352</ele>
        <time>2022-09-13T10:27:41.000Z</time>
      </trkpt>
      <trkpt lat="49.39306" lon="5.76615">
        <ele>307.79998779297</ele>
        <time>2022-09-13T10:27:42.000Z</time>
      </trkpt>
      <trkpt lat="49.39304" lon="5.76618">
        <ele>308</ele>
        <time>2022-09-13T10:27:43.000Z</time>
      </trkpt>
      <trkpt lat="49.39302" lon="5.76622">
        <ele>308</ele>
        <time>2022-09-13T10:27:44.000Z</time>
      </trkpt>
      <trkpt lat="49.393" lon="5.76624">
        <ele>307.79998779297</ele>
        <time>2022-09-13T10:27:45.000Z</time>
      </trkpt>
      <trkpt lat="49.39298" lon="5.76627">
        <ele>307.79998779297</ele>
        <time>2022-09-13T10:27:46.000Z</time>
      </trkpt>
      <trkpt lat="49.39297" lon="5.76629">
        <ele>308</ele>
        <time>2022-09-13T10:27:47.000Z</time>
      </trkpt>
      <trkpt lat="49.39283" lon="5.76649">
        <ele>308</ele>
        <time>2022-09-13T10:27:52.000Z</time>
      </trkpt>
      <trkpt lat="49.39262" lon="5.76688">
        <ele>308.20001220703</ele>
        <time>2022-09-13T10:28:00.000Z</time>
      </trkpt>
      <trkpt lat="49.39239" lon="5.76735">
        <ele>307.60000610352</ele>
        <time>2022-09-13T10:28:09.000Z</time>
      </trkpt>
      <trkpt lat="49.3922" lon="5.76776">
        <ele>307.20001220703</ele>
        <time>2022-09-13T10:28:16.000Z</time>
      </trkpt>
      <trkpt lat="49.39209" lon="5.76801">
        <ele>306.60000610352</ele>
        <time>2022-09-13T10:28:20.000Z</time>
      </trkpt>
      <trkpt lat="49.39196" lon="5.76831">
        <ele>305.60000610352</ele>
        <time>2022-09-13T10:28:25.000Z</time>
      </trkpt>
      <trkpt lat="49.39186" lon="5.76854">
        <ele>305.20001220703</ele>
        <time>2022-09-13T10:28:29.000Z</time>
      </trkpt>
      <trkpt lat="49.39184" lon="5.76859">
        <ele>305</ele>
        <time>2022-09-13T10:28:30.000Z</time>
      </trkpt>
      <trkpt lat="49.39184" lon="5.76865">
        <ele>305</ele>
        <time>2022-09-13T10:28:31.000Z</time>
      </trkpt>
      <trkpt lat="49.39185" lon="5.76869">
        <ele>305.20001220703</ele>
        <time>2022-09-13T10:28:32.000Z</time>
      </trkpt>
      <trkpt lat="49.39186" lon="5.76874">
        <ele>305</ele>
        <time>2022-09-13T10:28:33.000Z</time>
      </trkpt>
      <trkpt lat="49.39188" lon="5.76877">
        <ele>305</ele>
        <time>2022-09-13T10:28:34.000Z</time>
      </trkpt>
      <trkpt lat="49.39191" lon="5.76881">
        <ele>305</ele>
        <time>2022-09-13T10:28:35.000Z</time>
      </trkpt>
      <trkpt lat="49.39193" lon="5.76885">
        <ele>304.60000610352</ele>
        <time>2022-09-13T10:28:36.000Z</time>
      </trkpt>
      <trkpt lat="49.39196" lon="5.76888">
        <ele>304.60000610352</ele>
        <time>2022-09-13T10:28:37.000Z</time>
      </trkpt>
      <trkpt lat="49.39199" lon="5.76891">
        <ele>304.39999389648</ele>
        <time>2022-09-13T10:28:38.000Z</time>
      </trkpt>
      <trkpt lat="49.39202" lon="5.76895">
        <ele>304</ele>
        <time>2022-09-13T10:28:39.000Z</time>
      </trkpt>
      <trkpt lat="49.39204" lon="5.76898">
        <ele>303.79998779297</ele>
        <time>2022-09-13T10:28:40.000Z</time>
      </trkpt>
      <trkpt lat="49.39206" lon="5.76901">
        <ele>303.60000610352</ele>
        <time>2022-09-13T10:28:41.000Z</time>
      </trkpt>
      <trkpt lat="49.39208" lon="5.76904">
        <ele>303.39999389648</ele>
        <time>2022-09-13T10:28:42.000Z</time>
      </trkpt>
      <trkpt lat="49.3921" lon="5.76908">
        <ele>303.20001220703</ele>
        <time>2022-09-13T10:28:43.000Z</time>
      </trkpt>
      <trkpt lat="49.39213" lon="5.76912">
        <ele>303.20001220703</ele>
        <time>2022-09-13T10:28:44.000Z</time>
      </trkpt>
      <trkpt lat="49.39216" lon="5.76916">
        <ele>303</ele>
        <time>2022-09-13T10:28:45.000Z</time>
      </trkpt>
      <trkpt lat="49.39218" lon="5.7692">
        <ele>303</ele>
        <time>2022-09-13T10:28:46.000Z</time>
      </trkpt>
      <trkpt lat="49.3922" lon="5.76923">
        <ele>303</ele>
        <time>2022-09-13T10:28:47.000Z</time>
      </trkpt>
      <trkpt lat="49.39223" lon="5.76926">
        <ele>302.79998779297</ele>
        <time>2022-09-13T10:28:48.000Z</time>
      </trkpt>
      <trkpt lat="49.39227" lon="5.7693">
        <ele>302.79998779297</ele>
        <time>2022-09-13T10:28:49.000Z</time>
      </trkpt>
      <trkpt lat="49.3924" lon="5.7695">
        <ele>302.39999389648</ele>
        <time>2022-09-13T10:28:53.000Z</time>
      </trkpt>
      <trkpt lat="49.39244" lon="5.76954">
        <ele>302.20001220703</ele>
        <time>2022-09-13T10:28:54.000Z</time>
      </trkpt>
      <trkpt lat="49.39249" lon="5.76958">
        <ele>301.79998779297</ele>
        <time>2022-09-13T10:28:55.000Z</time>
      </trkpt>
      <trkpt lat="49.39253" lon="5.76962">
        <ele>301.60000610352</ele>
        <time>2022-09-13T10:28:56.000Z</time>
      </trkpt>
      <trkpt lat="49.3926" lon="5.76971">
        <ele>300.20001220703</ele>
        <time>2022-09-13T10:28:59.000Z</time>
      </trkpt>
      <trkpt lat="49.39285" lon="5.76989">
        <ele>299</ele>
        <time>2022-09-13T10:29:04.000Z</time>
      </trkpt>
      <trkpt lat="49.3929" lon="5.76992">
        <ele>299</ele>
        <time>2022-09-13T10:29:05.000Z</time>
      </trkpt>
      <trkpt lat="49.39299" lon="5.76994">
        <ele>298.60000610352</ele>
        <time>2022-09-13T10:29:07.000Z</time>
      </trkpt>
      <trkpt lat="49.39301" lon="5.76995">
        <ele>298.20001220703</ele>
        <time>2022-09-13T10:29:08.000Z</time>
      </trkpt>
      <trkpt lat="49.39303" lon="5.76997">
        <ele>297.79998779297</ele>
        <time>2022-09-13T10:29:09.000Z</time>
      </trkpt>
      <trkpt lat="49.39304" lon="5.76997">
        <ele>297.60000610352</ele>
        <time>2022-09-13T10:29:10.000Z</time>
      </trkpt>
      <trkpt lat="49.39305" lon="5.76995">
        <ele>297</ele>
        <time>2022-09-13T10:29:12.000Z</time>
      </trkpt>
      <trkpt lat="49.39305" lon="5.76996">
        <ele>296.60000610352</ele>
        <time>2022-09-13T10:29:13.000Z</time>
      </trkpt>
      <trkpt lat="49.39306" lon="5.76997">
        <ele>296.39999389648</ele>
        <time>2022-09-13T10:29:14.000Z</time>
      </trkpt>
      <trkpt lat="49.39306" lon="5.76996">
        <ele>296.20001220703</ele>
        <time>2022-09-13T10:29:15.000Z</time>
      </trkpt>
      <trkpt lat="49.39307" lon="5.76996">
        <ele>296</ele>
        <time>2022-09-13T10:29:16.000Z</time>
      </trkpt>
      <trkpt lat="49.39308" lon="5.76996">
        <ele>295.79998779297</ele>
        <time>2022-09-13T10:29:17.000Z</time>
      </trkpt>
      <trkpt lat="49.39309" lon="5.76996">
        <ele>295.60000610352</ele>
        <time>2022-09-13T10:29:18.000Z</time>
      </trkpt>
      <trkpt lat="49.39312" lon="5.76997">
        <ele>295.60000610352</ele>
        <time>2022-09-13T10:29:19.000Z</time>
      </trkpt>
      <trkpt lat="49.39318" lon="5.77">
        <ele>295.39999389648</ele>
        <time>2022-09-13T10:29:21.000Z</time>
      </trkpt>
      <trkpt lat="49.39329" lon="5.77001">
        <ele>295</ele>
        <time>2022-09-13T10:29:24.000Z</time>
      </trkpt>
      <trkpt lat="49.39332" lon="5.77002">
        <ele>295</ele>
        <time>2022-09-13T10:29:25.000Z</time>
      </trkpt>
      <trkpt lat="49.39335" lon="5.77003">
        <ele>295</ele>
        <time>2022-09-13T10:29:26.000Z</time>
      </trkpt>
      <trkpt lat="49.39338" lon="5.77003">
        <ele>294.60000610352</ele>
        <time>2022-09-13T10:29:27.000Z</time>
      </trkpt>
      <trkpt lat="49.3934" lon="5.77003">
        <ele>294.60000610352</ele>
        <time>2022-09-13T10:29:28.000Z</time>
      </trkpt>
      <trkpt lat="49.39343" lon="5.77003">
        <ele>294.39999389648</ele>
        <time>2022-09-13T10:29:29.000Z</time>
      </trkpt>
      <trkpt lat="49.39345" lon="5.77002">
        <ele>294</ele>
        <time>2022-09-13T10:29:30.000Z</time>
      </trkpt>
      <trkpt lat="49.39347" lon="5.77001">
        <ele>293.79998779297</ele>
        <time>2022-09-13T10:29:31.000Z</time>
      </trkpt>
      <trkpt lat="49.39349" lon="5.77">
        <ele>293.39999389648</ele>
        <time>2022-09-13T10:29:32.000Z</time>
      </trkpt>
      <trkpt lat="49.3935" lon="5.76999">
        <ele>293.20001220703</ele>
        <time>2022-09-13T10:29:33.000Z</time>
      </trkpt>
      <trkpt lat="49.39351" lon="5.76997">
        <ele>293</ele>
        <time>2022-09-13T10:29:34.000Z</time>
      </trkpt>
      <trkpt lat="49.39353" lon="5.76995">
        <ele>292.79998779297</ele>
        <time>2022-09-13T10:29:35.000Z</time>
      </trkpt>
      <trkpt lat="49.39354" lon="5.76994">
        <ele>292.39999389648</ele>
        <time>2022-09-13T10:29:36.000Z</time>
      </trkpt>
      <trkpt lat="49.39355" lon="5.76992">
        <ele>292.39999389648</ele>
        <time>2022-09-13T10:29:37.000Z</time>
      </trkpt>
      <trkpt lat="49.39361" lon="5.76985">
        <ele>292</ele>
        <time>2022-09-13T10:29:40.000Z</time>
      </trkpt>
      <trkpt lat="49.39363" lon="5.76984">
        <ele>291.79998779297</ele>
        <time>2022-09-13T10:29:41.000Z</time>
      </trkpt>
      <trkpt lat="49.39372" lon="5.76977">
        <ele>290.79998779297</ele>
        <time>2022-09-13T10:29:46.000Z</time>
      </trkpt>
      <trkpt lat="49.39376" lon="5.76971">
        <ele>290.39999389648</ele>
        <time>2022-09-13T10:29:48.000Z</time>
      </trkpt>
      <trkpt lat="49.39378" lon="5.76966">
        <ele>290.39999389648</ele>
        <time>2022-09-13T10:29:49.000Z</time>
      </trkpt>
      <trkpt lat="49.39381" lon="5.76963">
        <ele>290</ele>
        <time>2022-09-13T10:29:50.000Z</time>
      </trkpt>
      <trkpt lat="49.39383" lon="5.76961">
        <ele>289.79998779297</ele>
        <time>2022-09-13T10:29:51.000Z</time>
      </trkpt>
      <trkpt lat="49.39385" lon="5.7696">
        <ele>289.39999389648</ele>
        <time>2022-09-13T10:29:52.000Z</time>
      </trkpt>
      <trkpt lat="49.39389" lon="5.76956">
        <ele>289</ele>
        <time>2022-09-13T10:29:55.000Z</time>
      </trkpt>
      <trkpt lat="49.3939" lon="5.76954">
        <ele>288.79998779297</ele>
        <time>2022-09-13T10:29:56.000Z</time>
      </trkpt>
      <trkpt lat="49.39392" lon="5.76952">
        <ele>288.60000610352</ele>
        <time>2022-09-13T10:29:57.000Z</time>
      </trkpt>
      <trkpt lat="49.39393" lon="5.76951">
        <ele>288.60000610352</ele>
        <time>2022-09-13T10:29:58.000Z</time>
      </trkpt>
      <trkpt lat="49.394" lon="5.76942">
        <ele>288.20001220703</ele>
        <time>2022-09-13T10:30:01.000Z</time>
      </trkpt>
      <trkpt lat="49.39401" lon="5.76938">
        <ele>288</ele>
        <time>2022-09-13T10:30:02.000Z</time>
      </trkpt>
      <trkpt lat="49.39409" lon="5.76931">
        <ele>287.60000610352</ele>
        <time>2022-09-13T10:30:04.000Z</time>
      </trkpt>
      <trkpt lat="49.3942" lon="5.76918">
        <ele>286.79998779297</ele>
        <time>2022-09-13T10:30:07.000Z</time>
      </trkpt>
      <trkpt lat="49.39432" lon="5.76904">
        <ele>285.39999389648</ele>
        <time>2022-09-13T10:30:11.000Z</time>
      </trkpt>
      <trkpt lat="49.39444" lon="5.76895">
        <ele>285</ele>
        <time>2022-09-13T10:30:14.000Z</time>
      </trkpt>
      <trkpt lat="49.39453" lon="5.76889">
        <ele>284.20001220703</ele>
        <time>2022-09-13T10:30:16.000Z</time>
      </trkpt>
      <trkpt lat="49.39468" lon="5.76881">
        <ele>283.79998779297</ele>
        <time>2022-09-13T10:30:19.000Z</time>
      </trkpt>
      <trkpt lat="49.39474" lon="5.76879">
        <ele>283</ele>
        <time>2022-09-13T10:30:20.000Z</time>
      </trkpt>
      <trkpt lat="49.39491" lon="5.76872">
        <ele>281.60000610352</ele>
        <time>2022-09-13T10:30:23.000Z</time>
      </trkpt>
      <trkpt lat="49.39498" lon="5.7687">
        <ele>281.20001220703</ele>
        <time>2022-09-13T10:30:24.000Z</time>
      </trkpt>
      <trkpt lat="49.39504" lon="5.76869">
        <ele>280.39999389648</ele>
        <time>2022-09-13T10:30:25.000Z</time>
      </trkpt>
      <trkpt lat="49.39532" lon="5.76867">
        <ele>279.20001220703</ele>
        <time>2022-09-13T10:30:29.000Z</time>
      </trkpt>
      <trkpt lat="49.39539" lon="5.76867">
        <ele>278.60000610352</ele>
        <time>2022-09-13T10:30:30.000Z</time>
      </trkpt>
      <trkpt lat="49.39555" lon="5.76866">
        <ele>278</ele>
        <time>2022-09-13T10:30:32.000Z</time>
      </trkpt>
      <trkpt lat="49.39576" lon="5.76867">
        <ele>276.79998779297</ele>
        <time>2022-09-13T10:30:35.000Z</time>
      </trkpt>
      <trkpt lat="49.39582" lon="5.76869">
        <ele>276.20001220703</ele>
        <time>2022-09-13T10:30:36.000Z</time>
      </trkpt>
      <trkpt lat="49.39586" lon="5.76869">
        <ele>275.20001220703</ele>
        <time>2022-09-13T10:30:37.000Z</time>
      </trkpt>
      <trkpt lat="49.3959" lon="5.76871">
        <ele>274.79998779297</ele>
        <time>2022-09-13T10:30:38.000Z</time>
      </trkpt>
      <trkpt lat="49.39594" lon="5.76874">
        <ele>274</ele>
        <time>2022-09-13T10:30:39.000Z</time>
      </trkpt>
      <trkpt lat="49.39596" lon="5.76878">
        <ele>273.60000610352</ele>
        <time>2022-09-13T10:30:40.000Z</time>
      </trkpt>
      <trkpt lat="49.39599" lon="5.76881">
        <ele>272.79998779297</ele>
        <time>2022-09-13T10:30:41.000Z</time>
      </trkpt>
      <trkpt lat="49.39602" lon="5.76884">
        <ele>272.79998779297</ele>
        <time>2022-09-13T10:30:42.000Z</time>
      </trkpt>
      <trkpt lat="49.39605" lon="5.76887">
        <ele>272.20001220703</ele>
        <time>2022-09-13T10:30:43.000Z</time>
      </trkpt>
      <trkpt lat="49.39606" lon="5.7689">
        <ele>271.79998779297</ele>
        <time>2022-09-13T10:30:44.000Z</time>
      </trkpt>
      <trkpt lat="49.39608" lon="5.76894">
        <ele>271.39999389648</ele>
        <time>2022-09-13T10:30:45.000Z</time>
      </trkpt>
      <trkpt lat="49.39609" lon="5.76898">
        <ele>271</ele>
        <time>2022-09-13T10:30:46.000Z</time>
      </trkpt>
      <trkpt lat="49.39611" lon="5.76901">
        <ele>270.79998779297</ele>
        <time>2022-09-13T10:30:47.000Z</time>
      </trkpt>
      <trkpt lat="49.39612" lon="5.76905">
        <ele>270.60000610352</ele>
        <time>2022-09-13T10:30:48.000Z</time>
      </trkpt>
      <trkpt lat="49.39613" lon="5.76909">
        <ele>270.20001220703</ele>
        <time>2022-09-13T10:30:49.000Z</time>
      </trkpt>
      <trkpt lat="49.39615" lon="5.7693">
        <ele>269.20001220703</ele>
        <time>2022-09-13T10:30:53.000Z</time>
      </trkpt>
      <trkpt lat="49.39615" lon="5.76948">
        <ele>268.60000610352</ele>
        <time>2022-09-13T10:30:57.000Z</time>
      </trkpt>
      <trkpt lat="49.39615" lon="5.76957">
        <ele>268.60000610352</ele>
        <time>2022-09-13T10:30:59.000Z</time>
      </trkpt>
      <trkpt lat="49.39614" lon="5.7696">
        <ele>268.60000610352</ele>
        <time>2022-09-13T10:31:00.000Z</time>
      </trkpt>
      <trkpt lat="49.39613" lon="5.76963">
        <ele>268.60000610352</ele>
        <time>2022-09-13T10:31:01.000Z</time>
      </trkpt>
      <trkpt lat="49.39613" lon="5.76967">
        <ele>268.60000610352</ele>
        <time>2022-09-13T10:31:02.000Z</time>
      </trkpt>
      <trkpt lat="49.39612" lon="5.76969">
        <ele>268.60000610352</ele>
        <time>2022-09-13T10:31:03.000Z</time>
      </trkpt>
      <trkpt lat="49.39611" lon="5.76969">
        <ele>268.60000610352</ele>
        <time>2022-09-13T10:31:04.000Z</time>
      </trkpt>
      <trkpt lat="49.3961" lon="5.7697">
        <ele>268.60000610352</ele>
        <time>2022-09-13T10:31:05.000Z</time>
      </trkpt>
      <trkpt lat="49.3961" lon="5.76973">
        <ele>268.79998779297</ele>
        <time>2022-09-13T10:31:06.000Z</time>
      </trkpt>
      <trkpt lat="49.3961" lon="5.76975">
        <ele>268.79998779297</ele>
        <time>2022-09-13T10:31:07.000Z</time>
      </trkpt>
      <trkpt lat="49.39619" lon="5.76979">
        <ele>269.39999389648</ele>
        <time>2022-09-13T10:31:11.000Z</time>
      </trkpt>
      <trkpt lat="49.3962" lon="5.76981">
        <ele>269.60000610352</ele>
        <time>2022-09-13T10:31:12.000Z</time>
      </trkpt>
      <trkpt lat="49.39621" lon="5.76983">
        <ele>269.79998779297</ele>
        <time>2022-09-13T10:31:13.000Z</time>
      </trkpt>
      <trkpt lat="49.39623" lon="5.76984">
        <ele>270</ele>
        <time>2022-09-13T10:31:14.000Z</time>
      </trkpt>
      <trkpt lat="49.39624" lon="5.76984">
        <ele>270.20001220703</ele>
        <time>2022-09-13T10:31:15.000Z</time>
      </trkpt>
      <trkpt lat="49.39625" lon="5.76983">
        <ele>270.39999389648</ele>
        <time>2022-09-13T10:31:16.000Z</time>
      </trkpt>
      <trkpt lat="49.39626" lon="5.76983">
        <ele>270.39999389648</ele>
        <time>2022-09-13T10:31:17.000Z</time>
      </trkpt>
      <trkpt lat="49.39627" lon="5.76983">
        <ele>270.60000610352</ele>
        <time>2022-09-13T10:31:18.000Z</time>
      </trkpt>
      <trkpt lat="49.39629" lon="5.76983">
        <ele>270.79998779297</ele>
        <time>2022-09-13T10:31:19.000Z</time>
      </trkpt>
      <trkpt lat="49.39631" lon="5.76983">
        <ele>271</ele>
        <time>2022-09-13T10:31:20.000Z</time>
      </trkpt>
      <trkpt lat="49.39633" lon="5.76983">
        <ele>271.20001220703</ele>
        <time>2022-09-13T10:31:21.000Z</time>
      </trkpt>
      <trkpt lat="49.39634" lon="5.76983">
        <ele>271.20001220703</ele>
        <time>2022-09-13T10:31:22.000Z</time>
      </trkpt>
      <trkpt lat="49.39636" lon="5.76983">
        <ele>271.39999389648</ele>
        <time>2022-09-13T10:31:23.000Z</time>
      </trkpt>
      <trkpt lat="49.39638" lon="5.76983">
        <ele>271.39999389648</ele>
        <time>2022-09-13T10:31:24.000Z</time>
      </trkpt>
      <trkpt lat="49.3964" lon="5.76983">
        <ele>271.39999389648</ele>
        <time>2022-09-13T10:31:25.000Z</time>
      </trkpt>
      <trkpt lat="49.39641" lon="5.76983">
        <ele>271.60000610352</ele>
        <time>2022-09-13T10:31:26.000Z</time>
      </trkpt>
      <trkpt lat="49.39644" lon="5.76983">
        <ele>271.60000610352</ele>
        <time>2022-09-13T10:31:28.000Z</time>
      </trkpt>
      <trkpt lat="49.39646" lon="5.76983">
        <ele>271.79998779297</ele>
        <time>2022-09-13T10:31:29.000Z</time>
      </trkpt>
      <trkpt lat="49.39646" lon="5.76982">
        <ele>271.79998779297</ele>
        <time>2022-09-13T10:31:30.000Z</time>
      </trkpt>
      <trkpt lat="49.39648" lon="5.76982">
        <ele>271.79998779297</ele>
        <time>2022-09-13T10:31:31.000Z</time>
      </trkpt>
      <trkpt lat="49.3965" lon="5.7698">
        <ele>271.79998779297</ele>
        <time>2022-09-13T10:31:32.000Z</time>
      </trkpt>
      <trkpt lat="49.39653" lon="5.76975">
        <ele>271.79998779297</ele>
        <time>2022-09-13T10:31:33.000Z</time>
      </trkpt>
      <trkpt lat="49.39655" lon="5.76972">
        <ele>271.79998779297</ele>
        <time>2022-09-13T10:31:34.000Z</time>
      </trkpt>
      <trkpt lat="49.39659" lon="5.76971">
        <ele>271.39999389648</ele>
        <time>2022-09-13T10:31:35.000Z</time>
      </trkpt>
      <trkpt lat="49.39664" lon="5.7697">
        <ele>271.39999389648</ele>
        <time>2022-09-13T10:31:37.000Z</time>
      </trkpt>
      <trkpt lat="49.39667" lon="5.76969">
        <ele>271.39999389648</ele>
        <time>2022-09-13T10:31:38.000Z</time>
      </trkpt>
      <trkpt lat="49.39668" lon="5.7697">
        <ele>271.39999389648</ele>
        <time>2022-09-13T10:31:39.000Z</time>
      </trkpt>
      <trkpt lat="49.39671" lon="5.76968">
        <ele>271.20001220703</ele>
        <time>2022-09-13T10:31:40.000Z</time>
      </trkpt>
      <trkpt lat="49.39684" lon="5.7696">
        <ele>271</ele>
        <time>2022-09-13T10:31:44.000Z</time>
      </trkpt>
      <trkpt lat="49.39688" lon="5.76957">
        <ele>271</ele>
        <time>2022-09-13T10:31:45.000Z</time>
      </trkpt>
      <trkpt lat="49.39691" lon="5.76955">
        <ele>271</ele>
        <time>2022-09-13T10:31:46.000Z</time>
      </trkpt>
      <trkpt lat="49.39695" lon="5.76954">
        <ele>271</ele>
        <time>2022-09-13T10:31:47.000Z</time>
      </trkpt>
      <trkpt lat="49.39698" lon="5.76955">
        <ele>270.79998779297</ele>
        <time>2022-09-13T10:31:48.000Z</time>
      </trkpt>
      <trkpt lat="49.397" lon="5.76955">
        <ele>270.79998779297</ele>
        <time>2022-09-13T10:31:49.000Z</time>
      </trkpt>
      <trkpt lat="49.39703" lon="5.76956">
        <ele>270.79998779297</ele>
        <time>2022-09-13T10:31:50.000Z</time>
      </trkpt>
      <trkpt lat="49.39717" lon="5.76955">
        <ele>270.79998779297</ele>
        <time>2022-09-13T10:31:54.000Z</time>
      </trkpt>
      <trkpt lat="49.39721" lon="5.76953">
        <ele>270.79998779297</ele>
        <time>2022-09-13T10:31:55.000Z</time>
      </trkpt>
      <trkpt lat="49.39723" lon="5.76952">
        <ele>270.79998779297</ele>
        <time>2022-09-13T10:31:56.000Z</time>
      </trkpt>
      <trkpt lat="49.39732" lon="5.76947">
        <ele>270.79998779297</ele>
        <time>2022-09-13T10:31:59.000Z</time>
      </trkpt>
      <trkpt lat="49.39733" lon="5.76947">
        <ele>271</ele>
        <time>2022-09-13T10:32:00.000Z</time>
      </trkpt>
      <trkpt lat="49.39733" lon="5.76945">
        <ele>271</ele>
        <time>2022-09-13T10:32:01.000Z</time>
      </trkpt>
      <trkpt lat="49.39735" lon="5.76943">
        <ele>271</ele>
        <time>2022-09-13T10:32:02.000Z</time>
      </trkpt>
      <trkpt lat="49.39738" lon="5.76942">
        <ele>271</ele>
        <time>2022-09-13T10:32:03.000Z</time>
      </trkpt>
      <trkpt lat="49.39738" lon="5.76942">
        <ele>271</ele>
        <time>2022-09-13T10:32:04.000Z</time>
      </trkpt>
      <trkpt lat="49.39751" lon="5.76936">
        <ele>271.39999389648</ele>
        <time>2022-09-13T10:32:09.000Z</time>
      </trkpt>
      <trkpt lat="49.39753" lon="5.76935">
        <ele>271.39999389648</ele>
        <time>2022-09-13T10:32:10.000Z</time>
      </trkpt>
      <trkpt lat="49.3976" lon="5.76933">
        <ele>271.79998779297</ele>
        <time>2022-09-13T10:32:12.000Z</time>
      </trkpt>
      <trkpt lat="49.39764" lon="5.76931">
        <ele>272</ele>
        <time>2022-09-13T10:32:13.000Z</time>
      </trkpt>
      <trkpt lat="49.39767" lon="5.76929">
        <ele>272</ele>
        <time>2022-09-13T10:32:14.000Z</time>
      </trkpt>
      <trkpt lat="49.39769" lon="5.76927">
        <ele>272</ele>
        <time>2022-09-13T10:32:16.000Z</time>
      </trkpt>
      <trkpt lat="49.39771" lon="5.76926">
        <ele>272.20001220703</ele>
        <time>2022-09-13T10:32:17.000Z</time>
      </trkpt>
      <trkpt lat="49.39774" lon="5.76925">
        <ele>272.39999389648</ele>
        <time>2022-09-13T10:32:18.000Z</time>
      </trkpt>
      <trkpt lat="49.39776" lon="5.76922">
        <ele>272.39999389648</ele>
        <time>2022-09-13T10:32:19.000Z</time>
      </trkpt>
      <trkpt lat="49.39779" lon="5.7692">
        <ele>272.60000610352</ele>
        <time>2022-09-13T10:32:20.000Z</time>
      </trkpt>
      <trkpt lat="49.39783" lon="5.76916">
        <ele>272.60000610352</ele>
        <time>2022-09-13T10:32:22.000Z</time>
      </trkpt>
      <trkpt lat="49.39789" lon="5.76912">
        <ele>272.79998779297</ele>
        <time>2022-09-13T10:32:24.000Z</time>
      </trkpt>
      <trkpt lat="49.39798" lon="5.76908">
        <ele>273</ele>
        <time>2022-09-13T10:32:26.000Z</time>
      </trkpt>
      <trkpt lat="49.39799" lon="5.76908">
        <ele>273</ele>
        <time>2022-09-13T10:32:27.000Z</time>
      </trkpt>
      <trkpt lat="49.39801" lon="5.76907">
        <ele>273.20001220703</ele>
        <time>2022-09-13T10:32:28.000Z</time>
      </trkpt>
      <trkpt lat="49.39802" lon="5.76907">
        <ele>273.39999389648</ele>
        <time>2022-09-13T10:32:29.000Z</time>
      </trkpt>
      <trkpt lat="49.39805" lon="5.76908">
        <ele>273.79998779297</ele>
        <time>2022-09-13T10:32:30.000Z</time>
      </trkpt>
      <trkpt lat="49.39811" lon="5.76909">
        <ele>274</ele>
        <time>2022-09-13T10:32:31.000Z</time>
      </trkpt>
      <trkpt lat="49.39815" lon="5.76911">
        <ele>274.39999389648</ele>
        <time>2022-09-13T10:32:32.000Z</time>
      </trkpt>
      <trkpt lat="49.39816" lon="5.76911">
        <ele>274.60000610352</ele>
        <time>2022-09-13T10:32:33.000Z</time>
      </trkpt>
      <trkpt lat="49.39818" lon="5.7691">
        <ele>274.79998779297</ele>
        <time>2022-09-13T10:32:34.000Z</time>
      </trkpt>
      <trkpt lat="49.39819" lon="5.76909">
        <ele>275</ele>
        <time>2022-09-13T10:32:35.000Z</time>
      </trkpt>
      <trkpt lat="49.3982" lon="5.76909">
        <ele>275.20001220703</ele>
        <time>2022-09-13T10:32:36.000Z</time>
      </trkpt>
      <trkpt lat="49.39822" lon="5.76911">
        <ele>275.79998779297</ele>
        <time>2022-09-13T10:32:37.000Z</time>
      </trkpt>
      <trkpt lat="49.39823" lon="5.76912">
        <ele>276</ele>
        <time>2022-09-13T10:32:38.000Z</time>
      </trkpt>
      <trkpt lat="49.39823" lon="5.76913">
        <ele>276.39999389648</ele>
        <time>2022-09-13T10:32:39.000Z</time>
      </trkpt>
      <trkpt lat="49.39823" lon="5.76915">
        <ele>276.60000610352</ele>
        <time>2022-09-13T10:32:40.000Z</time>
      </trkpt>
      <trkpt lat="49.39823" lon="5.76917">
        <ele>277.20001220703</ele>
        <time>2022-09-13T10:32:41.000Z</time>
      </trkpt>
      <trkpt lat="49.39823" lon="5.76917">
        <ele>277.39999389648</ele>
        <time>2022-09-13T10:32:42.000Z</time>
      </trkpt>
      <trkpt lat="49.39823" lon="5.76918">
        <ele>277.79998779297</ele>
        <time>2022-09-13T10:32:43.000Z</time>
      </trkpt>
      <trkpt lat="49.39824" lon="5.76919">
        <ele>278</ele>
        <time>2022-09-13T10:32:44.000Z</time>
      </trkpt>
      <trkpt lat="49.39824" lon="5.76921">
        <ele>278.39999389648</ele>
        <time>2022-09-13T10:32:45.000Z</time>
      </trkpt>
      <trkpt lat="49.39824" lon="5.76923">
        <ele>278.79998779297</ele>
        <time>2022-09-13T10:32:46.000Z</time>
      </trkpt>
      <trkpt lat="49.39824" lon="5.76924">
        <ele>278.79998779297</ele>
        <time>2022-09-13T10:32:47.000Z</time>
      </trkpt>
      <trkpt lat="49.39824" lon="5.76926">
        <ele>280</ele>
        <time>2022-09-13T10:32:50.000Z</time>
      </trkpt>
      <trkpt lat="49.39824" lon="5.76928">
        <ele>280</ele>
        <time>2022-09-13T10:32:51.000Z</time>
      </trkpt>
      <trkpt lat="49.39824" lon="5.7693">
        <ele>280.39999389648</ele>
        <time>2022-09-13T10:32:52.000Z</time>
      </trkpt>
      <trkpt lat="49.39823" lon="5.76931">
        <ele>280.79998779297</ele>
        <time>2022-09-13T10:32:53.000Z</time>
      </trkpt>
      <trkpt lat="49.39822" lon="5.76933">
        <ele>281</ele>
        <time>2022-09-13T10:32:54.000Z</time>
      </trkpt>
      <trkpt lat="49.39822" lon="5.76935">
        <ele>281.20001220703</ele>
        <time>2022-09-13T10:32:55.000Z</time>
      </trkpt>
      <trkpt lat="49.39821" lon="5.76938">
        <ele>281.60000610352</ele>
        <time>2022-09-13T10:32:56.000Z</time>
      </trkpt>
      <trkpt lat="49.3982" lon="5.7694">
        <ele>281.79998779297</ele>
        <time>2022-09-13T10:32:57.000Z</time>
      </trkpt>
      <trkpt lat="49.39819" lon="5.76942">
        <ele>282</ele>
        <time>2022-09-13T10:32:58.000Z</time>
      </trkpt>
      <trkpt lat="49.39818" lon="5.76944">
        <ele>282.39999389648</ele>
        <time>2022-09-13T10:32:59.000Z</time>
      </trkpt>
      <trkpt lat="49.39818" lon="5.76947">
        <ele>282.79998779297</ele>
        <time>2022-09-13T10:33:00.000Z</time>
      </trkpt>
      <trkpt lat="49.39817" lon="5.7695">
        <ele>283</ele>
        <time>2022-09-13T10:33:01.000Z</time>
      </trkpt>
      <trkpt lat="49.39817" lon="5.76953">
        <ele>283.60000610352</ele>
        <time>2022-09-13T10:33:02.000Z</time>
      </trkpt>
      <trkpt lat="49.39815" lon="5.76956">
        <ele>284</ele>
        <time>2022-09-13T10:33:03.000Z</time>
      </trkpt>
      <trkpt lat="49.39814" lon="5.7696">
        <ele>284.60000610352</ele>
        <time>2022-09-13T10:33:04.000Z</time>
      </trkpt>
      <trkpt lat="49.39812" lon="5.76964">
        <ele>284.79998779297</ele>
        <time>2022-09-13T10:33:05.000Z</time>
      </trkpt>
      <trkpt lat="49.3981" lon="5.76967">
        <ele>285.39999389648</ele>
        <time>2022-09-13T10:33:06.000Z</time>
      </trkpt>
      <trkpt lat="49.39807" lon="5.76971">
        <ele>285.79998779297</ele>
        <time>2022-09-13T10:33:07.000Z</time>
      </trkpt>
      <trkpt lat="49.39805" lon="5.76974">
        <ele>286.20001220703</ele>
        <time>2022-09-13T10:33:08.000Z</time>
      </trkpt>
      <trkpt lat="49.39803" lon="5.76978">
        <ele>286.60000610352</ele>
        <time>2022-09-13T10:33:09.000Z</time>
      </trkpt>
      <trkpt lat="49.39802" lon="5.76979">
        <ele>286.60000610352</ele>
        <time>2022-09-13T10:33:10.000Z</time>
      </trkpt>
      <trkpt lat="49.39802" lon="5.7698">
        <ele>287</ele>
        <time>2022-09-13T10:33:11.000Z</time>
      </trkpt>
      <trkpt lat="49.39801" lon="5.7698">
        <ele>287.20001220703</ele>
        <time>2022-09-13T10:33:12.000Z</time>
      </trkpt>
      <trkpt lat="49.39799" lon="5.7698">
        <ele>287.60000610352</ele>
        <time>2022-09-13T10:33:13.000Z</time>
      </trkpt>
      <trkpt lat="49.39796" lon="5.76982">
        <ele>287.79998779297</ele>
        <time>2022-09-13T10:33:14.000Z</time>
      </trkpt>
      <trkpt lat="49.39794" lon="5.76983">
        <ele>288.39999389648</ele>
        <time>2022-09-13T10:33:15.000Z</time>
      </trkpt>
      <trkpt lat="49.39791" lon="5.76985">
        <ele>289</ele>
        <time>2022-09-13T10:33:16.000Z</time>
      </trkpt>
      <trkpt lat="49.3979" lon="5.76987">
        <ele>289.39999389648</ele>
        <time>2022-09-13T10:33:17.000Z</time>
      </trkpt>
      <trkpt lat="49.39788" lon="5.76988">
        <ele>289.79998779297</ele>
        <time>2022-09-13T10:33:18.000Z</time>
      </trkpt>
      <trkpt lat="49.39787" lon="5.7699">
        <ele>290</ele>
        <time>2022-09-13T10:33:19.000Z</time>
      </trkpt>
      <trkpt lat="49.39784" lon="5.76992">
        <ele>290.20001220703</ele>
        <time>2022-09-13T10:33:20.000Z</time>
      </trkpt>
      <trkpt lat="49.39781" lon="5.76994">
        <ele>290.20001220703</ele>
        <time>2022-09-13T10:33:21.000Z</time>
      </trkpt>
      <trkpt lat="49.39778" lon="5.76997">
        <ele>290.20001220703</ele>
        <time>2022-09-13T10:33:22.000Z</time>
      </trkpt>
      <trkpt lat="49.39775" lon="5.76998">
        <ele>290.39999389648</ele>
        <time>2022-09-13T10:33:23.000Z</time>
      </trkpt>
      <trkpt lat="49.39774" lon="5.76999">
        <ele>290.39999389648</ele>
        <time>2022-09-13T10:33:24.000Z</time>
      </trkpt>
      <trkpt lat="49.39772" lon="5.76999">
        <ele>290.39999389648</ele>
        <time>2022-09-13T10:33:25.000Z</time>
      </trkpt>
      <trkpt lat="49.3977" lon="5.77002">
        <ele>290.39999389648</ele>
        <time>2022-09-13T10:33:26.000Z</time>
      </trkpt>
      <trkpt lat="49.39768" lon="5.77004">
        <ele>290.39999389648</ele>
        <time>2022-09-13T10:33:27.000Z</time>
      </trkpt>
      <trkpt lat="49.39767" lon="5.77006">
        <ele>290.39999389648</ele>
        <time>2022-09-13T10:33:28.000Z</time>
      </trkpt>
      <trkpt lat="49.39764" lon="5.77008">
        <ele>290.39999389648</ele>
        <time>2022-09-13T10:33:29.000Z</time>
      </trkpt>
      <trkpt lat="49.39762" lon="5.77009">
        <ele>290.39999389648</ele>
        <time>2022-09-13T10:33:30.000Z</time>
      </trkpt>
      <trkpt lat="49.3976" lon="5.77011">
        <ele>290.39999389648</ele>
        <time>2022-09-13T10:33:31.000Z</time>
      </trkpt>
      <trkpt lat="49.39759" lon="5.77012">
        <ele>290.60000610352</ele>
        <time>2022-09-13T10:33:32.000Z</time>
      </trkpt>
      <trkpt lat="49.39759" lon="5.77012">
        <ele>290.60000610352</ele>
        <time>2022-09-13T10:33:33.000Z</time>
      </trkpt>
      <trkpt lat="49.39759" lon="5.77014">
        <ele>290.60000610352</ele>
        <time>2022-09-13T10:33:34.000Z</time>
      </trkpt>
      <trkpt lat="49.39758" lon="5.77017">
        <ele>290.79998779297</ele>
        <time>2022-09-13T10:33:35.000Z</time>
      </trkpt>
      <trkpt lat="49.39757" lon="5.77019">
        <ele>290.79998779297</ele>
        <time>2022-09-13T10:33:36.000Z</time>
      </trkpt>
      <trkpt lat="49.39756" lon="5.7702">
        <ele>290.79998779297</ele>
        <time>2022-09-13T10:33:37.000Z</time>
      </trkpt>
      <trkpt lat="49.39754" lon="5.77022">
        <ele>291</ele>
        <time>2022-09-13T10:33:38.000Z</time>
      </trkpt>
      <trkpt lat="49.39752" lon="5.77023">
        <ele>291</ele>
        <time>2022-09-13T10:33:39.000Z</time>
      </trkpt>
      <trkpt lat="49.3975" lon="5.77025">
        <ele>291.20001220703</ele>
        <time>2022-09-13T10:33:40.000Z</time>
      </trkpt>
      <trkpt lat="49.39748" lon="5.77027">
        <ele>291.20001220703</ele>
        <time>2022-09-13T10:33:41.000Z</time>
      </trkpt>
      <trkpt lat="49.39747" lon="5.77029">
        <ele>291.39999389648</ele>
        <time>2022-09-13T10:33:42.000Z</time>
      </trkpt>
      <trkpt lat="49.39746" lon="5.7703">
        <ele>291.60000610352</ele>
        <time>2022-09-13T10:33:43.000Z</time>
      </trkpt>
      <trkpt lat="49.39745" lon="5.77031">
        <ele>291.79998779297</ele>
        <time>2022-09-13T10:33:44.000Z</time>
      </trkpt>
      <trkpt lat="49.39744" lon="5.77032">
        <ele>291.79998779297</ele>
        <time>2022-09-13T10:33:45.000Z</time>
      </trkpt>
      <trkpt lat="49.39742" lon="5.77034">
        <ele>292</ele>
        <time>2022-09-13T10:33:46.000Z</time>
      </trkpt>
      <trkpt lat="49.39739" lon="5.77037">
        <ele>292.20001220703</ele>
        <time>2022-09-13T10:33:47.000Z</time>
      </trkpt>
      <trkpt lat="49.39738" lon="5.7704">
        <ele>292.39999389648</ele>
        <time>2022-09-13T10:33:48.000Z</time>
      </trkpt>
      <trkpt lat="49.39736" lon="5.77041">
        <ele>292.60000610352</ele>
        <time>2022-09-13T10:33:49.000Z</time>
      </trkpt>
      <trkpt lat="49.39734" lon="5.77043">
        <ele>292.60000610352</ele>
        <time>2022-09-13T10:33:50.000Z</time>
      </trkpt>
      <trkpt lat="49.39731" lon="5.77043">
        <ele>292.60000610352</ele>
        <time>2022-09-13T10:33:51.000Z</time>
      </trkpt>
      <trkpt lat="49.39728" lon="5.77044">
        <ele>292.60000610352</ele>
        <time>2022-09-13T10:33:52.000Z</time>
      </trkpt>
      <trkpt lat="49.39725" lon="5.77046">
        <ele>292.60000610352</ele>
        <time>2022-09-13T10:33:53.000Z</time>
      </trkpt>
      <trkpt lat="49.3972" lon="5.77047">
        <ele>292.60000610352</ele>
        <time>2022-09-13T10:33:54.000Z</time>
      </trkpt>
      <trkpt lat="49.39717" lon="5.7705">
        <ele>292.60000610352</ele>
        <time>2022-09-13T10:33:55.000Z</time>
      </trkpt>
      <trkpt lat="49.39715" lon="5.77054">
        <ele>292.60000610352</ele>
        <time>2022-09-13T10:33:56.000Z</time>
      </trkpt>
      <trkpt lat="49.39713" lon="5.77061">
        <ele>292.60000610352</ele>
        <time>2022-09-13T10:33:57.000Z</time>
      </trkpt>
      <trkpt lat="49.39711" lon="5.77065">
        <ele>292.39999389648</ele>
        <time>2022-09-13T10:33:58.000Z</time>
      </trkpt>
      <trkpt lat="49.3971" lon="5.77068">
        <ele>292.20001220703</ele>
        <time>2022-09-13T10:33:59.000Z</time>
      </trkpt>
      <trkpt lat="49.39709" lon="5.77072">
        <ele>292.20001220703</ele>
        <time>2022-09-13T10:34:00.000Z</time>
      </trkpt>
      <trkpt lat="49.39708" lon="5.77075">
        <ele>292.39999389648</ele>
        <time>2022-09-13T10:34:01.000Z</time>
      </trkpt>
      <trkpt lat="49.39709" lon="5.77078">
        <ele>292.39999389648</ele>
        <time>2022-09-13T10:34:02.000Z</time>
      </trkpt>
      <trkpt lat="49.3971" lon="5.7708">
        <ele>292.39999389648</ele>
        <time>2022-09-13T10:34:03.000Z</time>
      </trkpt>
      <trkpt lat="49.3971" lon="5.77083">
        <ele>292.39999389648</ele>
        <time>2022-09-13T10:34:04.000Z</time>
      </trkpt>
      <trkpt lat="49.39711" lon="5.77086">
        <ele>292.39999389648</ele>
        <time>2022-09-13T10:34:05.000Z</time>
      </trkpt>
      <trkpt lat="49.39713" lon="5.77089">
        <ele>292.60000610352</ele>
        <time>2022-09-13T10:34:06.000Z</time>
      </trkpt>
      <trkpt lat="49.3972" lon="5.77099">
        <ele>292.60000610352</ele>
        <time>2022-09-13T10:34:10.000Z</time>
      </trkpt>
      <trkpt lat="49.39721" lon="5.77102">
        <ele>292.79998779297</ele>
        <time>2022-09-13T10:34:11.000Z</time>
      </trkpt>
      <trkpt lat="49.39724" lon="5.77107">
        <ele>292.79998779297</ele>
        <time>2022-09-13T10:34:14.000Z</time>
      </trkpt>
      <trkpt lat="49.39724" lon="5.77108">
        <ele>292.79998779297</ele>
        <time>2022-09-13T10:34:15.000Z</time>
      </trkpt>
      <trkpt lat="49.39724" lon="5.7711">
        <ele>292.79998779297</ele>
        <time>2022-09-13T10:34:16.000Z</time>
      </trkpt>
      <trkpt lat="49.39724" lon="5.77115">
        <ele>292.79998779297</ele>
        <time>2022-09-13T10:34:17.000Z</time>
      </trkpt>
      <trkpt lat="49.39728" lon="5.77132">
        <ele>292.60000610352</ele>
        <time>2022-09-13T10:34:20.000Z</time>
      </trkpt>
      <trkpt lat="49.39726" lon="5.77143">
        <ele>292.39999389648</ele>
        <time>2022-09-13T10:34:22.000Z</time>
      </trkpt>
      <trkpt lat="49.39727" lon="5.77148">
        <ele>292.39999389648</ele>
        <time>2022-09-13T10:34:23.000Z</time>
      </trkpt>
      <trkpt lat="49.39728" lon="5.77153">
        <ele>291.60000610352</ele>
        <time>2022-09-13T10:34:25.000Z</time>
      </trkpt>
      <trkpt lat="49.39727" lon="5.77157">
        <ele>291.39999389648</ele>
        <time>2022-09-13T10:34:26.000Z</time>
      </trkpt>
      <trkpt lat="49.39726" lon="5.77159">
        <ele>291.20001220703</ele>
        <time>2022-09-13T10:34:27.000Z</time>
      </trkpt>
      <trkpt lat="49.39724" lon="5.77161">
        <ele>291</ele>
        <time>2022-09-13T10:34:28.000Z</time>
      </trkpt>
      <trkpt lat="49.3972" lon="5.77161">
        <ele>290.79998779297</ele>
        <time>2022-09-13T10:34:30.000Z</time>
      </trkpt>
      <trkpt lat="49.39718" lon="5.77161">
        <ele>290.79998779297</ele>
        <time>2022-09-13T10:34:31.000Z</time>
      </trkpt>
      <trkpt lat="49.39713" lon="5.77166">
        <ele>290.79998779297</ele>
        <time>2022-09-13T10:34:33.000Z</time>
      </trkpt>
      <trkpt lat="49.39711" lon="5.77169">
        <ele>290.79998779297</ele>
        <time>2022-09-13T10:34:34.000Z</time>
      </trkpt>
      <trkpt lat="49.39708" lon="5.77177">
        <ele>290.79998779297</ele>
        <time>2022-09-13T10:34:36.000Z</time>
      </trkpt>
      <trkpt lat="49.39706" lon="5.77181">
        <ele>290.79998779297</ele>
        <time>2022-09-13T10:34:37.000Z</time>
      </trkpt>
      <trkpt lat="49.397" lon="5.77192">
        <ele>291.20001220703</ele>
        <time>2022-09-13T10:34:40.000Z</time>
      </trkpt>
      <trkpt lat="49.39698" lon="5.77194">
        <ele>291.39999389648</ele>
        <time>2022-09-13T10:34:41.000Z</time>
      </trkpt>
      <trkpt lat="49.39697" lon="5.77198">
        <ele>291.60000610352</ele>
        <time>2022-09-13T10:34:42.000Z</time>
      </trkpt>
      <trkpt lat="49.39687" lon="5.7722">
        <ele>291.79998779297</ele>
        <time>2022-09-13T10:34:48.000Z</time>
      </trkpt>
      <trkpt lat="49.39681" lon="5.77233">
        <ele>291.79998779297</ele>
        <time>2022-09-13T10:34:52.000Z</time>
      </trkpt>
      <trkpt lat="49.3968" lon="5.77237">
        <ele>292</ele>
        <time>2022-09-13T10:34:53.000Z</time>
      </trkpt>
      <trkpt lat="49.39678" lon="5.7724">
        <ele>292.20001220703</ele>
        <time>2022-09-13T10:34:54.000Z</time>
      </trkpt>
      <trkpt lat="49.39677" lon="5.77244">
        <ele>292.39999389648</ele>
        <time>2022-09-13T10:34:55.000Z</time>
      </trkpt>
      <trkpt lat="49.39675" lon="5.77247">
        <ele>292.60000610352</ele>
        <time>2022-09-13T10:34:56.000Z</time>
      </trkpt>
      <trkpt lat="49.39672" lon="5.77254">
        <ele>292.79998779297</ele>
        <time>2022-09-13T10:34:58.000Z</time>
      </trkpt>
      <trkpt lat="49.39667" lon="5.77268">
        <ele>293.20001220703</ele>
        <time>2022-09-13T10:35:02.000Z</time>
      </trkpt>
      <trkpt lat="49.39662" lon="5.77278">
        <ele>293.39999389648</ele>
        <time>2022-09-13T10:35:05.000Z</time>
      </trkpt>
      <trkpt lat="49.39659" lon="5.77288">
        <ele>293.60000610352</ele>
        <time>2022-09-13T10:35:08.000Z</time>
      </trkpt>
      <trkpt lat="49.39657" lon="5.77291">
        <ele>293.60000610352</ele>
        <time>2022-09-13T10:35:09.000Z</time>
      </trkpt>
      <trkpt lat="49.39656" lon="5.77294">
        <ele>293.79998779297</ele>
        <time>2022-09-13T10:35:10.000Z</time>
      </trkpt>
      <trkpt lat="49.39655" lon="5.77297">
        <ele>293.79998779297</ele>
        <time>2022-09-13T10:35:11.000Z</time>
      </trkpt>
      <trkpt lat="49.39655" lon="5.77301">
        <ele>294</ele>
        <time>2022-09-13T10:35:12.000Z</time>
      </trkpt>
      <trkpt lat="49.39654" lon="5.77304">
        <ele>294.20001220703</ele>
        <time>2022-09-13T10:35:13.000Z</time>
      </trkpt>
      <trkpt lat="49.39653" lon="5.77308">
        <ele>294.20001220703</ele>
        <time>2022-09-13T10:35:14.000Z</time>
      </trkpt>
      <trkpt lat="49.39652" lon="5.77311">
        <ele>294.20001220703</ele>
        <time>2022-09-13T10:35:15.000Z</time>
      </trkpt>
      <trkpt lat="49.3965" lon="5.77316">
        <ele>294.60000610352</ele>
        <time>2022-09-13T10:35:17.000Z</time>
      </trkpt>
      <trkpt lat="49.39649" lon="5.77319">
        <ele>294.60000610352</ele>
        <time>2022-09-13T10:35:18.000Z</time>
      </trkpt>
      <trkpt lat="49.39648" lon="5.77326">
        <ele>294.79998779297</ele>
        <time>2022-09-13T10:35:20.000Z</time>
      </trkpt>
      <trkpt lat="49.39642" lon="5.77354">
        <ele>295.20001220703</ele>
        <time>2022-09-13T10:35:27.000Z</time>
      </trkpt>
      <trkpt lat="49.39641" lon="5.77362">
        <ele>295.20001220703</ele>
        <time>2022-09-13T10:35:29.000Z</time>
      </trkpt>
      <trkpt lat="49.39638" lon="5.77392">
        <ele>295</ele>
        <time>2022-09-13T10:35:36.000Z</time>
      </trkpt>
      <trkpt lat="49.39637" lon="5.77431">
        <ele>295.20001220703</ele>
        <time>2022-09-13T10:35:44.000Z</time>
      </trkpt>
      <trkpt lat="49.39638" lon="5.77462">
        <ele>295</ele>
        <time>2022-09-13T10:35:50.000Z</time>
      </trkpt>
      <trkpt lat="49.39639" lon="5.77499">
        <ele>294.79998779297</ele>
        <time>2022-09-13T10:35:57.000Z</time>
      </trkpt>
      <trkpt lat="49.39642" lon="5.77533">
        <ele>294.60000610352</ele>
        <time>2022-09-13T10:36:04.000Z</time>
      </trkpt>
      <trkpt lat="49.39642" lon="5.77538">
        <ele>294.60000610352</ele>
        <time>2022-09-13T10:36:05.000Z</time>
      </trkpt>
      <trkpt lat="49.39642" lon="5.77543">
        <ele>294.60000610352</ele>
        <time>2022-09-13T10:36:06.000Z</time>
      </trkpt>
      <trkpt lat="49.39642" lon="5.77548">
        <ele>294.60000610352</ele>
        <time>2022-09-13T10:36:07.000Z</time>
      </trkpt>
      <trkpt lat="49.39642" lon="5.77553">
        <ele>294.39999389648</ele>
        <time>2022-09-13T10:36:08.000Z</time>
      </trkpt>
      <trkpt lat="49.39642" lon="5.77558">
        <ele>294.39999389648</ele>
        <time>2022-09-13T10:36:09.000Z</time>
      </trkpt>
      <trkpt lat="49.39642" lon="5.77563">
        <ele>294.39999389648</ele>
        <time>2022-09-13T10:36:10.000Z</time>
      </trkpt>
      <trkpt lat="49.39643" lon="5.77567">
        <ele>294.60000610352</ele>
        <time>2022-09-13T10:36:11.000Z</time>
      </trkpt>
      <trkpt lat="49.39643" lon="5.77572">
        <ele>295</ele>
        <time>2022-09-13T10:36:12.000Z</time>
      </trkpt>
      <trkpt lat="49.39643" lon="5.77577">
        <ele>295</ele>
        <time>2022-09-13T10:36:13.000Z</time>
      </trkpt>
      <trkpt lat="49.39643" lon="5.77587">
        <ele>295.39999389648</ele>
        <time>2022-09-13T10:36:15.000Z</time>
      </trkpt>
      <trkpt lat="49.39644" lon="5.77592">
        <ele>295.39999389648</ele>
        <time>2022-09-13T10:36:16.000Z</time>
      </trkpt>
      <trkpt lat="49.39644" lon="5.77597">
        <ele>295.39999389648</ele>
        <time>2022-09-13T10:36:17.000Z</time>
      </trkpt>
      <trkpt lat="49.39644" lon="5.77607">
        <ele>295.60000610352</ele>
        <time>2022-09-13T10:36:19.000Z</time>
      </trkpt>
      <trkpt lat="49.39648" lon="5.77649">
        <ele>295.79998779297</ele>
        <time>2022-09-13T10:36:27.000Z</time>
      </trkpt>
      <trkpt lat="49.39649" lon="5.77659">
        <ele>296</ele>
        <time>2022-09-13T10:36:29.000Z</time>
      </trkpt>
      <trkpt lat="49.39649" lon="5.77663">
        <ele>296</ele>
        <time>2022-09-13T10:36:30.000Z</time>
      </trkpt>
      <trkpt lat="49.39649" lon="5.77667">
        <ele>296</ele>
        <time>2022-09-13T10:36:31.000Z</time>
      </trkpt>
      <trkpt lat="49.3965" lon="5.77672">
        <ele>296.20001220703</ele>
        <time>2022-09-13T10:36:32.000Z</time>
      </trkpt>
      <trkpt lat="49.3965" lon="5.77676">
        <ele>296.20001220703</ele>
        <time>2022-09-13T10:36:33.000Z</time>
      </trkpt>
      <trkpt lat="49.39651" lon="5.77681">
        <ele>296.60000610352</ele>
        <time>2022-09-13T10:36:34.000Z</time>
      </trkpt>
      <trkpt lat="49.39652" lon="5.7769">
        <ele>297.20001220703</ele>
        <time>2022-09-13T10:36:36.000Z</time>
      </trkpt>
      <trkpt lat="49.39652" lon="5.77695">
        <ele>297.39999389648</ele>
        <time>2022-09-13T10:36:37.000Z</time>
      </trkpt>
      <trkpt lat="49.39652" lon="5.77699">
        <ele>297.60000610352</ele>
        <time>2022-09-13T10:36:38.000Z</time>
      </trkpt>
      <trkpt lat="49.39653" lon="5.77713">
        <ele>297.60000610352</ele>
        <time>2022-09-13T10:36:41.000Z</time>
      </trkpt>
      <trkpt lat="49.39656" lon="5.77734">
        <ele>298.20001220703</ele>
        <time>2022-09-13T10:36:46.000Z</time>
      </trkpt>
      <trkpt lat="49.39656" lon="5.77738">
        <ele>298.39999389648</ele>
        <time>2022-09-13T10:36:47.000Z</time>
      </trkpt>
      <trkpt lat="49.39657" lon="5.77742">
        <ele>298.20001220703</ele>
        <time>2022-09-13T10:36:48.000Z</time>
      </trkpt>
      <trkpt lat="49.39657" lon="5.77747">
        <ele>298.39999389648</ele>
        <time>2022-09-13T10:36:49.000Z</time>
      </trkpt>
      <trkpt lat="49.39657" lon="5.77752">
        <ele>298.60000610352</ele>
        <time>2022-09-13T10:36:50.000Z</time>
      </trkpt>
      <trkpt lat="49.39657" lon="5.77756">
        <ele>298.60000610352</ele>
        <time>2022-09-13T10:36:51.000Z</time>
      </trkpt>
      <trkpt lat="49.39657" lon="5.77765">
        <ele>298.79998779297</ele>
        <time>2022-09-13T10:36:53.000Z</time>
      </trkpt>
      <trkpt lat="49.39657" lon="5.77769">
        <ele>299</ele>
        <time>2022-09-13T10:36:54.000Z</time>
      </trkpt>
      <trkpt lat="49.39657" lon="5.77773">
        <ele>299.20001220703</ele>
        <time>2022-09-13T10:36:55.000Z</time>
      </trkpt>
      <trkpt lat="49.39657" lon="5.77777">
        <ele>299.39999389648</ele>
        <time>2022-09-13T10:36:56.000Z</time>
      </trkpt>
      <trkpt lat="49.39656" lon="5.77781">
        <ele>299.60000610352</ele>
        <time>2022-09-13T10:36:57.000Z</time>
      </trkpt>
      <trkpt lat="49.39656" lon="5.77786">
        <ele>299.79998779297</ele>
        <time>2022-09-13T10:36:58.000Z</time>
      </trkpt>
      <trkpt lat="49.39656" lon="5.77789">
        <ele>300.20001220703</ele>
        <time>2022-09-13T10:36:59.000Z</time>
      </trkpt>
      <trkpt lat="49.39656" lon="5.77793">
        <ele>300.20001220703</ele>
        <time>2022-09-13T10:37:00.000Z</time>
      </trkpt>
      <trkpt lat="49.39656" lon="5.77797">
        <ele>300.39999389648</ele>
        <time>2022-09-13T10:37:01.000Z</time>
      </trkpt>
      <trkpt lat="49.39657" lon="5.778">
        <ele>300.39999389648</ele>
        <time>2022-09-13T10:37:02.000Z</time>
      </trkpt>
      <trkpt lat="49.39657" lon="5.77804">
        <ele>300.39999389648</ele>
        <time>2022-09-13T10:37:03.000Z</time>
      </trkpt>
      <trkpt lat="49.39657" lon="5.77807">
        <ele>300.39999389648</ele>
        <time>2022-09-13T10:37:04.000Z</time>
      </trkpt>
      <trkpt lat="49.39657" lon="5.7781">
        <ele>300.79998779297</ele>
        <time>2022-09-13T10:37:05.000Z</time>
      </trkpt>
      <trkpt lat="49.39657" lon="5.77813">
        <ele>301</ele>
        <time>2022-09-13T10:37:06.000Z</time>
      </trkpt>
      <trkpt lat="49.39657" lon="5.77817">
        <ele>301</ele>
        <time>2022-09-13T10:37:07.000Z</time>
      </trkpt>
      <trkpt lat="49.39657" lon="5.77821">
        <ele>301.20001220703</ele>
        <time>2022-09-13T10:37:08.000Z</time>
      </trkpt>
      <trkpt lat="49.39656" lon="5.77825">
        <ele>301.20001220703</ele>
        <time>2022-09-13T10:37:09.000Z</time>
      </trkpt>
      <trkpt lat="49.39656" lon="5.77829">
        <ele>301.39999389648</ele>
        <time>2022-09-13T10:37:10.000Z</time>
      </trkpt>
      <trkpt lat="49.39656" lon="5.77834">
        <ele>301.39999389648</ele>
        <time>2022-09-13T10:37:11.000Z</time>
      </trkpt>
      <trkpt lat="49.39656" lon="5.77837">
        <ele>301.60000610352</ele>
        <time>2022-09-13T10:37:12.000Z</time>
      </trkpt>
      <trkpt lat="49.39656" lon="5.7784">
        <ele>301.60000610352</ele>
        <time>2022-09-13T10:37:13.000Z</time>
      </trkpt>
      <trkpt lat="49.39656" lon="5.77845">
        <ele>301.79998779297</ele>
        <time>2022-09-13T10:37:14.000Z</time>
      </trkpt>
      <trkpt lat="49.39656" lon="5.77849">
        <ele>302</ele>
        <time>2022-09-13T10:37:15.000Z</time>
      </trkpt>
      <trkpt lat="49.39656" lon="5.77853">
        <ele>302</ele>
        <time>2022-09-13T10:37:16.000Z</time>
      </trkpt>
      <trkpt lat="49.39656" lon="5.77857">
        <ele>302</ele>
        <time>2022-09-13T10:37:17.000Z</time>
      </trkpt>
      <trkpt lat="49.39655" lon="5.77862">
        <ele>302</ele>
        <time>2022-09-13T10:37:18.000Z</time>
      </trkpt>
      <trkpt lat="49.39655" lon="5.77867">
        <ele>302.20001220703</ele>
        <time>2022-09-13T10:37:19.000Z</time>
      </trkpt>
      <trkpt lat="49.39654" lon="5.77872">
        <ele>302.20001220703</ele>
        <time>2022-09-13T10:37:20.000Z</time>
      </trkpt>
      <trkpt lat="49.39654" lon="5.77876">
        <ele>302.39999389648</ele>
        <time>2022-09-13T10:37:21.000Z</time>
      </trkpt>
      <trkpt lat="49.39654" lon="5.7788">
        <ele>302.39999389648</ele>
        <time>2022-09-13T10:37:22.000Z</time>
      </trkpt>
      <trkpt lat="49.39654" lon="5.77884">
        <ele>302.60000610352</ele>
        <time>2022-09-13T10:37:23.000Z</time>
      </trkpt>
      <trkpt lat="49.39653" lon="5.77889">
        <ele>302.60000610352</ele>
        <time>2022-09-13T10:37:24.000Z</time>
      </trkpt>
      <trkpt lat="49.39653" lon="5.77894">
        <ele>302.60000610352</ele>
        <time>2022-09-13T10:37:25.000Z</time>
      </trkpt>
      <trkpt lat="49.39653" lon="5.77898">
        <ele>302.79998779297</ele>
        <time>2022-09-13T10:37:26.000Z</time>
      </trkpt>
      <trkpt lat="49.39653" lon="5.77902">
        <ele>302.79998779297</ele>
        <time>2022-09-13T10:37:27.000Z</time>
      </trkpt>
      <trkpt lat="49.39654" lon="5.77907">
        <ele>303</ele>
        <time>2022-09-13T10:37:28.000Z</time>
      </trkpt>
      <trkpt lat="49.39653" lon="5.77911">
        <ele>303.20001220703</ele>
        <time>2022-09-13T10:37:29.000Z</time>
      </trkpt>
      <trkpt lat="49.39653" lon="5.77916">
        <ele>303.20001220703</ele>
        <time>2022-09-13T10:37:30.000Z</time>
      </trkpt>
      <trkpt lat="49.39653" lon="5.7792">
        <ele>303.39999389648</ele>
        <time>2022-09-13T10:37:31.000Z</time>
      </trkpt>
      <trkpt lat="49.39654" lon="5.77924">
        <ele>303.39999389648</ele>
        <time>2022-09-13T10:37:32.000Z</time>
      </trkpt>
      <trkpt lat="49.39654" lon="5.77928">
        <ele>303.60000610352</ele>
        <time>2022-09-13T10:37:33.000Z</time>
      </trkpt>
      <trkpt lat="49.39654" lon="5.77933">
        <ele>303.60000610352</ele>
        <time>2022-09-13T10:37:34.000Z</time>
      </trkpt>
      <trkpt lat="49.39654" lon="5.77937">
        <ele>303.79998779297</ele>
        <time>2022-09-13T10:37:35.000Z</time>
      </trkpt>
      <trkpt lat="49.39654" lon="5.77942">
        <ele>304</ele>
        <time>2022-09-13T10:37:36.000Z</time>
      </trkpt>
      <trkpt lat="49.39654" lon="5.77946">
        <ele>304</ele>
        <time>2022-09-13T10:37:37.000Z</time>
      </trkpt>
      <trkpt lat="49.39654" lon="5.77951">
        <ele>304.20001220703</ele>
        <time>2022-09-13T10:37:38.000Z</time>
      </trkpt>
      <trkpt lat="49.39654" lon="5.77955">
        <ele>304.20001220703</ele>
        <time>2022-09-13T10:37:39.000Z</time>
      </trkpt>
      <trkpt lat="49.39653" lon="5.7796">
        <ele>304.60000610352</ele>
        <time>2022-09-13T10:37:40.000Z</time>
      </trkpt>
      <trkpt lat="49.39653" lon="5.77964">
        <ele>304.60000610352</ele>
        <time>2022-09-13T10:37:41.000Z</time>
      </trkpt>
      <trkpt lat="49.39653" lon="5.77969">
        <ele>304.79998779297</ele>
        <time>2022-09-13T10:37:42.000Z</time>
      </trkpt>
      <trkpt lat="49.39653" lon="5.77974">
        <ele>305</ele>
        <time>2022-09-13T10:37:43.000Z</time>
      </trkpt>
      <trkpt lat="49.39653" lon="5.77978">
        <ele>305</ele>
        <time>2022-09-13T10:37:44.000Z</time>
      </trkpt>
      <trkpt lat="49.39653" lon="5.77983">
        <ele>305</ele>
        <time>2022-09-13T10:37:45.000Z</time>
      </trkpt>
      <trkpt lat="49.39652" lon="5.77988">
        <ele>305.20001220703</ele>
        <time>2022-09-13T10:37:46.000Z</time>
      </trkpt>
      <trkpt lat="49.39652" lon="5.77993">
        <ele>305.20001220703</ele>
        <time>2022-09-13T10:37:47.000Z</time>
      </trkpt>
      <trkpt lat="49.39652" lon="5.77998">
        <ele>305.20001220703</ele>
        <time>2022-09-13T10:37:48.000Z</time>
      </trkpt>
      <trkpt lat="49.39652" lon="5.78002">
        <ele>305.39999389648</ele>
        <time>2022-09-13T10:37:49.000Z</time>
      </trkpt>
      <trkpt lat="49.39652" lon="5.78007">
        <ele>305.39999389648</ele>
        <time>2022-09-13T10:37:50.000Z</time>
      </trkpt>
      <trkpt lat="49.39652" lon="5.78012">
        <ele>305.60000610352</ele>
        <time>2022-09-13T10:37:51.000Z</time>
      </trkpt>
      <trkpt lat="49.39652" lon="5.78017">
        <ele>305.79998779297</ele>
        <time>2022-09-13T10:37:52.000Z</time>
      </trkpt>
      <trkpt lat="49.39652" lon="5.78022">
        <ele>305.79998779297</ele>
        <time>2022-09-13T10:37:53.000Z</time>
      </trkpt>
      <trkpt lat="49.39652" lon="5.78027">
        <ele>306</ele>
        <time>2022-09-13T10:37:54.000Z</time>
      </trkpt>
      <trkpt lat="49.39652" lon="5.78031">
        <ele>306</ele>
        <time>2022-09-13T10:37:55.000Z</time>
      </trkpt>
      <trkpt lat="49.39652" lon="5.78036">
        <ele>306</ele>
        <time>2022-09-13T10:37:56.000Z</time>
      </trkpt>
      <trkpt lat="49.39651" lon="5.78046">
        <ele>306.20001220703</ele>
        <time>2022-09-13T10:37:58.000Z</time>
      </trkpt>
      <trkpt lat="49.39651" lon="5.78052">
        <ele>306.20001220703</ele>
        <time>2022-09-13T10:37:59.000Z</time>
      </trkpt>
      <trkpt lat="49.3965" lon="5.78056">
        <ele>306.20001220703</ele>
        <time>2022-09-13T10:38:00.000Z</time>
      </trkpt>
      <trkpt lat="49.3965" lon="5.78062">
        <ele>306.20001220703</ele>
        <time>2022-09-13T10:38:01.000Z</time>
      </trkpt>
      <trkpt lat="49.3965" lon="5.78066">
        <ele>306.20001220703</ele>
        <time>2022-09-13T10:38:02.000Z</time>
      </trkpt>
      <trkpt lat="49.3965" lon="5.7807">
        <ele>306.39999389648</ele>
        <time>2022-09-13T10:38:03.000Z</time>
      </trkpt>
      <trkpt lat="49.3965" lon="5.7808">
        <ele>306.79998779297</ele>
        <time>2022-09-13T10:38:05.000Z</time>
      </trkpt>
      <trkpt lat="49.3965" lon="5.781">
        <ele>307</ele>
        <time>2022-09-13T10:38:09.000Z</time>
      </trkpt>
      <trkpt lat="49.3965" lon="5.78105">
        <ele>307</ele>
        <time>2022-09-13T10:38:10.000Z</time>
      </trkpt>
      <trkpt lat="49.3965" lon="5.78134">
        <ele>307.39999389648</ele>
        <time>2022-09-13T10:38:16.000Z</time>
      </trkpt>
      <trkpt lat="49.3965" lon="5.78139">
        <ele>307.39999389648</ele>
        <time>2022-09-13T10:38:17.000Z</time>
      </trkpt>
      <trkpt lat="49.3965" lon="5.78173">
        <ele>307.79998779297</ele>
        <time>2022-09-13T10:38:24.000Z</time>
      </trkpt>
      <trkpt lat="49.3965" lon="5.78178">
        <ele>307.79998779297</ele>
        <time>2022-09-13T10:38:25.000Z</time>
      </trkpt>
      <trkpt lat="49.3965" lon="5.78183">
        <ele>307.79998779297</ele>
        <time>2022-09-13T10:38:26.000Z</time>
      </trkpt>
      <trkpt lat="49.3965" lon="5.78218">
        <ele>308</ele>
        <time>2022-09-13T10:38:33.000Z</time>
      </trkpt>
      <trkpt lat="49.3965" lon="5.78263">
        <ele>308.60000610352</ele>
        <time>2022-09-13T10:38:41.000Z</time>
      </trkpt>
      <trkpt lat="49.3965" lon="5.78284">
        <ele>308.79998779297</ele>
        <time>2022-09-13T10:38:45.000Z</time>
      </trkpt>
      <trkpt lat="49.3965" lon="5.783">
        <ele>308.79998779297</ele>
        <time>2022-09-13T10:38:48.000Z</time>
      </trkpt>
      <trkpt lat="49.3965" lon="5.78306">
        <ele>308.79998779297</ele>
        <time>2022-09-13T10:38:49.000Z</time>
      </trkpt>
      <trkpt lat="49.3965" lon="5.7831">
        <ele>308.79998779297</ele>
        <time>2022-09-13T10:38:50.000Z</time>
      </trkpt>
      <trkpt lat="49.39649" lon="5.78321">
        <ele>308.79998779297</ele>
        <time>2022-09-13T10:38:52.000Z</time>
      </trkpt>
      <trkpt lat="49.39649" lon="5.7833">
        <ele>308.60000610352</ele>
        <time>2022-09-13T10:38:54.000Z</time>
      </trkpt>
      <trkpt lat="49.39649" lon="5.78335">
        <ele>308.79998779297</ele>
        <time>2022-09-13T10:38:55.000Z</time>
      </trkpt>
      <trkpt lat="49.39649" lon="5.78355">
        <ele>309.39999389648</ele>
        <time>2022-09-13T10:38:59.000Z</time>
      </trkpt>
      <trkpt lat="49.39648" lon="5.78377">
        <ele>309.60000610352</ele>
        <time>2022-09-13T10:39:03.000Z</time>
      </trkpt>
      <trkpt lat="49.39647" lon="5.78397">
        <ele>309.79998779297</ele>
        <time>2022-09-13T10:39:07.000Z</time>
      </trkpt>
      <trkpt lat="49.39647" lon="5.78406">
        <ele>309.79998779297</ele>
        <time>2022-09-13T10:39:09.000Z</time>
      </trkpt>
      <trkpt lat="49.39647" lon="5.78411">
        <ele>309.79998779297</ele>
        <time>2022-09-13T10:39:10.000Z</time>
      </trkpt>
      <trkpt lat="49.39647" lon="5.78416">
        <ele>310</ele>
        <time>2022-09-13T10:39:11.000Z</time>
      </trkpt>
      <trkpt lat="49.39648" lon="5.7842">
        <ele>309.79998779297</ele>
        <time>2022-09-13T10:39:12.000Z</time>
      </trkpt>
      <trkpt lat="49.39649" lon="5.78424">
        <ele>309.79998779297</ele>
        <time>2022-09-13T10:39:13.000Z</time>
      </trkpt>
      <trkpt lat="49.39651" lon="5.78425">
        <ele>309.79998779297</ele>
        <time>2022-09-13T10:39:14.000Z</time>
      </trkpt>
      <trkpt lat="49.39653" lon="5.78426">
        <ele>309.79998779297</ele>
        <time>2022-09-13T10:39:15.000Z</time>
      </trkpt>
      <trkpt lat="49.39655" lon="5.78426">
        <ele>309.79998779297</ele>
        <time>2022-09-13T10:39:16.000Z</time>
      </trkpt>
      <trkpt lat="49.39657" lon="5.78426">
        <ele>309.79998779297</ele>
        <time>2022-09-13T10:39:17.000Z</time>
      </trkpt>
      <trkpt lat="49.39658" lon="5.78427">
        <ele>309.79998779297</ele>
        <time>2022-09-13T10:39:18.000Z</time>
      </trkpt>
      <trkpt lat="49.39659" lon="5.78429">
        <ele>309.60000610352</ele>
        <time>2022-09-13T10:39:19.000Z</time>
      </trkpt>
      <trkpt lat="49.3966" lon="5.78431">
        <ele>309.60000610352</ele>
        <time>2022-09-13T10:39:20.000Z</time>
      </trkpt>
      <trkpt lat="49.39661" lon="5.78434">
        <ele>309.39999389648</ele>
        <time>2022-09-13T10:39:21.000Z</time>
      </trkpt>
      <trkpt lat="49.39662" lon="5.78436">
        <ele>309.39999389648</ele>
        <time>2022-09-13T10:39:22.000Z</time>
      </trkpt>
      <trkpt lat="49.39662" lon="5.78438">
        <ele>309.20001220703</ele>
        <time>2022-09-13T10:39:23.000Z</time>
      </trkpt>
      <trkpt lat="49.39662" lon="5.78441">
        <ele>309</ele>
        <time>2022-09-13T10:39:24.000Z</time>
      </trkpt>
      <trkpt lat="49.39663" lon="5.78444">
        <ele>309</ele>
        <time>2022-09-13T10:39:25.000Z</time>
      </trkpt>
      <trkpt lat="49.39664" lon="5.78448">
        <ele>309</ele>
        <time>2022-09-13T10:39:26.000Z</time>
      </trkpt>
      <trkpt lat="49.39665" lon="5.78451">
        <ele>309</ele>
        <time>2022-09-13T10:39:27.000Z</time>
      </trkpt>
      <trkpt lat="49.39665" lon="5.78465">
        <ele>309</ele>
        <time>2022-09-13T10:39:32.000Z</time>
      </trkpt>
      <trkpt lat="49.39665" lon="5.78467">
        <ele>309</ele>
        <time>2022-09-13T10:39:33.000Z</time>
      </trkpt>
      <trkpt lat="49.39665" lon="5.78469">
        <ele>309</ele>
        <time>2022-09-13T10:39:34.000Z</time>
      </trkpt>
      <trkpt lat="49.39665" lon="5.78472">
        <ele>309.20001220703</ele>
        <time>2022-09-13T10:39:35.000Z</time>
      </trkpt>
      <trkpt lat="49.39665" lon="5.78475">
        <ele>309.20001220703</ele>
        <time>2022-09-13T10:39:36.000Z</time>
      </trkpt>
      <trkpt lat="49.39666" lon="5.78489">
        <ele>309.60000610352</ele>
        <time>2022-09-13T10:39:39.000Z</time>
      </trkpt>
      <trkpt lat="49.39663" lon="5.78507">
        <ele>310</ele>
        <time>2022-09-13T10:39:43.000Z</time>
      </trkpt>
      <trkpt lat="49.39662" lon="5.7851">
        <ele>310</ele>
        <time>2022-09-13T10:39:44.000Z</time>
      </trkpt>
      <trkpt lat="49.39661" lon="5.78514">
        <ele>310</ele>
        <time>2022-09-13T10:39:45.000Z</time>
      </trkpt>
      <trkpt lat="49.3966" lon="5.78522">
        <ele>310</ele>
        <time>2022-09-13T10:39:47.000Z</time>
      </trkpt>
      <trkpt lat="49.39657" lon="5.78533">
        <ele>310</ele>
        <time>2022-09-13T10:39:50.000Z</time>
      </trkpt>
      <trkpt lat="49.39656" lon="5.78534">
        <ele>310.20001220703</ele>
        <time>2022-09-13T10:39:51.000Z</time>
      </trkpt>
      <trkpt lat="49.39656" lon="5.78537">
        <ele>310.20001220703</ele>
        <time>2022-09-13T10:39:52.000Z</time>
      </trkpt>
      <trkpt lat="49.39657" lon="5.78542">
        <ele>310.20001220703</ele>
        <time>2022-09-13T10:39:53.000Z</time>
      </trkpt>
      <trkpt lat="49.39653" lon="5.78556">
        <ele>310.39999389648</ele>
        <time>2022-09-13T10:39:56.000Z</time>
      </trkpt>
      <trkpt lat="49.39652" lon="5.78561">
        <ele>310.39999389648</ele>
        <time>2022-09-13T10:39:57.000Z</time>
      </trkpt>
      <trkpt lat="49.39653" lon="5.78565">
        <ele>310.60000610352</ele>
        <time>2022-09-13T10:39:58.000Z</time>
      </trkpt>
      <trkpt lat="49.39653" lon="5.7857">
        <ele>311</ele>
        <time>2022-09-13T10:39:59.000Z</time>
      </trkpt>
      <trkpt lat="49.39654" lon="5.78572">
        <ele>311</ele>
        <time>2022-09-13T10:40:00.000Z</time>
      </trkpt>
      <trkpt lat="49.39654" lon="5.78575">
        <ele>311.20001220703</ele>
        <time>2022-09-13T10:40:01.000Z</time>
      </trkpt>
      <trkpt lat="49.39661" lon="5.78587">
        <ele>311.39999389648</ele>
        <time>2022-09-13T10:40:04.000Z</time>
      </trkpt>
      <trkpt lat="49.39663" lon="5.78601">
        <ele>311</ele>
        <time>2022-09-13T10:40:07.000Z</time>
      </trkpt>
      <trkpt lat="49.39661" lon="5.78608">
        <ele>310.79998779297</ele>
        <time>2022-09-13T10:40:08.000Z</time>
      </trkpt>
      <trkpt lat="49.3966" lon="5.78617">
        <ele>310.79998779297</ele>
        <time>2022-09-13T10:40:09.000Z</time>
      </trkpt>
      <trkpt lat="49.3966" lon="5.78621">
        <ele>310.60000610352</ele>
        <time>2022-09-13T10:40:10.000Z</time>
      </trkpt>
      <trkpt lat="49.3966" lon="5.78622">
        <ele>310.60000610352</ele>
        <time>2022-09-13T10:40:11.000Z</time>
      </trkpt>
      <trkpt lat="49.39659" lon="5.78624">
        <ele>310.39999389648</ele>
        <time>2022-09-13T10:40:12.000Z</time>
      </trkpt>
      <trkpt lat="49.39658" lon="5.78627">
        <ele>310.39999389648</ele>
        <time>2022-09-13T10:40:13.000Z</time>
      </trkpt>
      <trkpt lat="49.39658" lon="5.78627">
        <ele>310.20001220703</ele>
        <time>2022-09-13T10:40:14.000Z</time>
      </trkpt>
      <trkpt lat="49.39658" lon="5.78629">
        <ele>310.20001220703</ele>
        <time>2022-09-13T10:40:15.000Z</time>
      </trkpt>
      <trkpt lat="49.39658" lon="5.78632">
        <ele>310</ele>
        <time>2022-09-13T10:40:16.000Z</time>
      </trkpt>
      <trkpt lat="49.39657" lon="5.78636">
        <ele>310</ele>
        <time>2022-09-13T10:40:17.000Z</time>
      </trkpt>
      <trkpt lat="49.39654" lon="5.78642">
        <ele>309.79998779297</ele>
        <time>2022-09-13T10:40:19.000Z</time>
      </trkpt>
      <trkpt lat="49.39652" lon="5.78648">
        <ele>309.79998779297</ele>
        <time>2022-09-13T10:40:20.000Z</time>
      </trkpt>
      <trkpt lat="49.3965" lon="5.78653">
        <ele>309.79998779297</ele>
        <time>2022-09-13T10:40:21.000Z</time>
      </trkpt>
      <trkpt lat="49.39649" lon="5.78656">
        <ele>309.60000610352</ele>
        <time>2022-09-13T10:40:22.000Z</time>
      </trkpt>
      <trkpt lat="49.39645" lon="5.78676">
        <ele>309.39999389648</ele>
        <time>2022-09-13T10:40:26.000Z</time>
      </trkpt>
      <trkpt lat="49.39643" lon="5.78685">
        <ele>309.39999389648</ele>
        <time>2022-09-13T10:40:27.000Z</time>
      </trkpt>
      <trkpt lat="49.39636" lon="5.78714">
        <ele>308.60000610352</ele>
        <time>2022-09-13T10:40:31.000Z</time>
      </trkpt>
      <trkpt lat="49.39636" lon="5.78722">
        <ele>308.39999389648</ele>
        <time>2022-09-13T10:40:32.000Z</time>
      </trkpt>
      <trkpt lat="49.39635" lon="5.78729">
        <ele>308</ele>
        <time>2022-09-13T10:40:33.000Z</time>
      </trkpt>
      <trkpt lat="49.39634" lon="5.78741">
        <ele>307</ele>
        <time>2022-09-13T10:40:35.000Z</time>
      </trkpt>
      <trkpt lat="49.39635" lon="5.78745">
        <ele>306</ele>
        <time>2022-09-13T10:40:36.000Z</time>
      </trkpt>
      <trkpt lat="49.39633" lon="5.78752">
        <ele>305.79998779297</ele>
        <time>2022-09-13T10:40:37.000Z</time>
      </trkpt>
      <trkpt lat="49.39632" lon="5.78758">
        <ele>305.39999389648</ele>
        <time>2022-09-13T10:40:38.000Z</time>
      </trkpt>
      <trkpt lat="49.39632" lon="5.78765">
        <ele>305.20001220703</ele>
        <time>2022-09-13T10:40:39.000Z</time>
      </trkpt>
      <trkpt lat="49.39633" lon="5.78771">
        <ele>305</ele>
        <time>2022-09-13T10:40:40.000Z</time>
      </trkpt>
      <trkpt lat="49.39635" lon="5.78778">
        <ele>304.79998779297</ele>
        <time>2022-09-13T10:40:41.000Z</time>
      </trkpt>
      <trkpt lat="49.39634" lon="5.78784">
        <ele>304.20001220703</ele>
        <time>2022-09-13T10:40:42.000Z</time>
      </trkpt>
      <trkpt lat="49.3963" lon="5.78794">
        <ele>302.79998779297</ele>
        <time>2022-09-13T10:40:44.000Z</time>
      </trkpt>
      <trkpt lat="49.39628" lon="5.78801">
        <ele>301.20001220703</ele>
        <time>2022-09-13T10:40:45.000Z</time>
      </trkpt>
      <trkpt lat="49.39622" lon="5.78815">
        <ele>300</ele>
        <time>2022-09-13T10:40:47.000Z</time>
      </trkpt>
      <trkpt lat="49.39616" lon="5.78832">
        <ele>298.79998779297</ele>
        <time>2022-09-13T10:40:49.000Z</time>
      </trkpt>
      <trkpt lat="49.39614" lon="5.78836">
        <ele>298.60000610352</ele>
        <time>2022-09-13T10:40:50.000Z</time>
      </trkpt>
      <trkpt lat="49.39614" lon="5.78837">
        <ele>298.39999389648</ele>
        <time>2022-09-13T10:40:51.000Z</time>
      </trkpt>
      <trkpt lat="49.39613" lon="5.7884">
        <ele>298.20001220703</ele>
        <time>2022-09-13T10:40:52.000Z</time>
      </trkpt>
      <trkpt lat="49.39612" lon="5.78844">
        <ele>298</ele>
        <time>2022-09-13T10:40:53.000Z</time>
      </trkpt>
      <trkpt lat="49.39609" lon="5.7885">
        <ele>297.79998779297</ele>
        <time>2022-09-13T10:40:54.000Z</time>
      </trkpt>
      <trkpt lat="49.39606" lon="5.7886">
        <ele>297.60000610352</ele>
        <time>2022-09-13T10:40:57.000Z</time>
      </trkpt>
      <trkpt lat="49.39605" lon="5.78864">
        <ele>297.60000610352</ele>
        <time>2022-09-13T10:40:58.000Z</time>
      </trkpt>
      <trkpt lat="49.39605" lon="5.78867">
        <ele>297.60000610352</ele>
        <time>2022-09-13T10:40:59.000Z</time>
      </trkpt>
      <trkpt lat="49.39603" lon="5.78871">
        <ele>297.60000610352</ele>
        <time>2022-09-13T10:41:00.000Z</time>
      </trkpt>
      <trkpt lat="49.39603" lon="5.78875">
        <ele>297.60000610352</ele>
        <time>2022-09-13T10:41:01.000Z</time>
      </trkpt>
      <trkpt lat="49.39603" lon="5.78878">
        <ele>297.60000610352</ele>
        <time>2022-09-13T10:41:02.000Z</time>
      </trkpt>
      <trkpt lat="49.39604" lon="5.78881">
        <ele>297.39999389648</ele>
        <time>2022-09-13T10:41:03.000Z</time>
      </trkpt>
      <trkpt lat="49.39604" lon="5.78885">
        <ele>297.39999389648</ele>
        <time>2022-09-13T10:41:04.000Z</time>
      </trkpt>
      <trkpt lat="49.39603" lon="5.7889">
        <ele>297.60000610352</ele>
        <time>2022-09-13T10:41:05.000Z</time>
      </trkpt>
      <trkpt lat="49.39603" lon="5.78894">
        <ele>297.60000610352</ele>
        <time>2022-09-13T10:41:06.000Z</time>
      </trkpt>
      <trkpt lat="49.39602" lon="5.78895">
        <ele>297.60000610352</ele>
        <time>2022-09-13T10:41:07.000Z</time>
      </trkpt>
      <trkpt lat="49.39602" lon="5.78899">
        <ele>297.60000610352</ele>
        <time>2022-09-13T10:41:08.000Z</time>
      </trkpt>
      <trkpt lat="49.39601" lon="5.78904">
        <ele>297.60000610352</ele>
        <time>2022-09-13T10:41:09.000Z</time>
      </trkpt>
      <trkpt lat="49.396" lon="5.78914">
        <ele>297.60000610352</ele>
        <time>2022-09-13T10:41:11.000Z</time>
      </trkpt>
      <trkpt lat="49.39595" lon="5.7893">
        <ele>297.39999389648</ele>
        <time>2022-09-13T10:41:14.000Z</time>
      </trkpt>
      <trkpt lat="49.39595" lon="5.78935">
        <ele>297.39999389648</ele>
        <time>2022-09-13T10:41:15.000Z</time>
      </trkpt>
      <trkpt lat="49.39594" lon="5.78938">
        <ele>297.39999389648</ele>
        <time>2022-09-13T10:41:16.000Z</time>
      </trkpt>
      <trkpt lat="49.39594" lon="5.78942">
        <ele>297.39999389648</ele>
        <time>2022-09-13T10:41:17.000Z</time>
      </trkpt>
      <trkpt lat="49.39594" lon="5.78946">
        <ele>297.39999389648</ele>
        <time>2022-09-13T10:41:18.000Z</time>
      </trkpt>
      <trkpt lat="49.39595" lon="5.78947">
        <ele>297.39999389648</ele>
        <time>2022-09-13T10:41:19.000Z</time>
      </trkpt>
      <trkpt lat="49.39593" lon="5.78959">
        <ele>297.39999389648</ele>
        <time>2022-09-13T10:41:23.000Z</time>
      </trkpt>
      <trkpt lat="49.3959" lon="5.78965">
        <ele>297.20001220703</ele>
        <time>2022-09-13T10:41:24.000Z</time>
      </trkpt>
      <trkpt lat="49.39589" lon="5.78971">
        <ele>297.20001220703</ele>
        <time>2022-09-13T10:41:25.000Z</time>
      </trkpt>
      <trkpt lat="49.39577" lon="5.78994">
        <ele>297.60000610352</ele>
        <time>2022-09-13T10:41:32.000Z</time>
      </trkpt>
      <trkpt lat="49.39578" lon="5.78999">
        <ele>297.79998779297</ele>
        <time>2022-09-13T10:41:34.000Z</time>
      </trkpt>
      <trkpt lat="49.3958" lon="5.79002">
        <ele>298.20001220703</ele>
        <time>2022-09-13T10:41:35.000Z</time>
      </trkpt>
      <trkpt lat="49.39581" lon="5.79007">
        <ele>298.20001220703</ele>
        <time>2022-09-13T10:41:36.000Z</time>
      </trkpt>
      <trkpt lat="49.39582" lon="5.79011">
        <ele>298.39999389648</ele>
        <time>2022-09-13T10:41:37.000Z</time>
      </trkpt>
      <trkpt lat="49.39582" lon="5.79017">
        <ele>298.39999389648</ele>
        <time>2022-09-13T10:41:38.000Z</time>
      </trkpt>
      <trkpt lat="49.39584" lon="5.79024">
        <ele>298.39999389648</ele>
        <time>2022-09-13T10:41:39.000Z</time>
      </trkpt>
      <trkpt lat="49.39585" lon="5.79031">
        <ele>298.39999389648</ele>
        <time>2022-09-13T10:41:40.000Z</time>
      </trkpt>
      <trkpt lat="49.39588" lon="5.79041">
        <ele>298.20001220703</ele>
        <time>2022-09-13T10:41:42.000Z</time>
      </trkpt>
      <trkpt lat="49.39589" lon="5.79043">
        <ele>298</ele>
        <time>2022-09-13T10:41:43.000Z</time>
      </trkpt>
      <trkpt lat="49.39591" lon="5.79043">
        <ele>297.60000610352</ele>
        <time>2022-09-13T10:41:44.000Z</time>
      </trkpt>
      <trkpt lat="49.39593" lon="5.79042">
        <ele>297</ele>
        <time>2022-09-13T10:41:45.000Z</time>
      </trkpt>
      <trkpt lat="49.39599" lon="5.79037">
        <ele>296.39999389648</ele>
        <time>2022-09-13T10:41:47.000Z</time>
      </trkpt>
      <trkpt lat="49.3961" lon="5.79029">
        <ele>295.60000610352</ele>
        <time>2022-09-13T10:41:49.000Z</time>
      </trkpt>
      <trkpt lat="49.39616" lon="5.79022">
        <ele>295.20001220703</ele>
        <time>2022-09-13T10:41:50.000Z</time>
      </trkpt>
      <trkpt lat="49.39626" lon="5.79008">
        <ele>294</ele>
        <time>2022-09-13T10:41:52.000Z</time>
      </trkpt>
      <trkpt lat="49.39631" lon="5.79">
        <ele>293.39999389648</ele>
        <time>2022-09-13T10:41:53.000Z</time>
      </trkpt>
      <trkpt lat="49.39634" lon="5.78993">
        <ele>292.60000610352</ele>
        <time>2022-09-13T10:41:54.000Z</time>
      </trkpt>
      <trkpt lat="49.39638" lon="5.78985">
        <ele>292.39999389648</ele>
        <time>2022-09-13T10:41:55.000Z</time>
      </trkpt>
      <trkpt lat="49.39641" lon="5.78977">
        <ele>291</ele>
        <time>2022-09-13T10:41:56.000Z</time>
      </trkpt>
      <trkpt lat="49.39644" lon="5.7897">
        <ele>290.20001220703</ele>
        <time>2022-09-13T10:41:57.000Z</time>
      </trkpt>
      <trkpt lat="49.39647" lon="5.78966">
        <ele>289</ele>
        <time>2022-09-13T10:41:58.000Z</time>
      </trkpt>
      <trkpt lat="49.3965" lon="5.78964">
        <ele>288.39999389648</ele>
        <time>2022-09-13T10:41:59.000Z</time>
      </trkpt>
      <trkpt lat="49.39653" lon="5.78964">
        <ele>287</ele>
        <time>2022-09-13T10:42:00.000Z</time>
      </trkpt>
      <trkpt lat="49.39655" lon="5.78968">
        <ele>285.39999389648</ele>
        <time>2022-09-13T10:42:01.000Z</time>
      </trkpt>
      <trkpt lat="49.39656" lon="5.78974">
        <ele>284.60000610352</ele>
        <time>2022-09-13T10:42:02.000Z</time>
      </trkpt>
      <trkpt lat="49.39656" lon="5.7898">
        <ele>283.39999389648</ele>
        <time>2022-09-13T10:42:03.000Z</time>
      </trkpt>
      <trkpt lat="49.39657" lon="5.78994">
        <ele>281.79998779297</ele>
        <time>2022-09-13T10:42:05.000Z</time>
      </trkpt>
      <trkpt lat="49.39655" lon="5.79004">
        <ele>281.39999389648</ele>
        <time>2022-09-13T10:42:06.000Z</time>
      </trkpt>
      <trkpt lat="49.39649" lon="5.7903">
        <ele>280.60000610352</ele>
        <time>2022-09-13T10:42:08.000Z</time>
      </trkpt>
      <trkpt lat="49.39643" lon="5.79078">
        <ele>279.39999389648</ele>
        <time>2022-09-13T10:42:11.000Z</time>
      </trkpt>
      <trkpt lat="49.39636" lon="5.79108">
        <ele>278</ele>
        <time>2022-09-13T10:42:13.000Z</time>
      </trkpt>
      <trkpt lat="49.39629" lon="5.79118">
        <ele>276.79998779297</ele>
        <time>2022-09-13T10:42:14.000Z</time>
      </trkpt>
      <trkpt lat="49.39625" lon="5.79127">
        <ele>275.60000610352</ele>
        <time>2022-09-13T10:42:15.000Z</time>
      </trkpt>
      <trkpt lat="49.3962" lon="5.79134">
        <ele>275.20001220703</ele>
        <time>2022-09-13T10:42:16.000Z</time>
      </trkpt>
      <trkpt lat="49.39616" lon="5.7914">
        <ele>274</ele>
        <time>2022-09-13T10:42:17.000Z</time>
      </trkpt>
      <trkpt lat="49.39612" lon="5.79147">
        <ele>273.39999389648</ele>
        <time>2022-09-13T10:42:18.000Z</time>
      </trkpt>
      <trkpt lat="49.39609" lon="5.79153">
        <ele>272.60000610352</ele>
        <time>2022-09-13T10:42:19.000Z</time>
      </trkpt>
      <trkpt lat="49.39605" lon="5.7916">
        <ele>272.20001220703</ele>
        <time>2022-09-13T10:42:20.000Z</time>
      </trkpt>
      <trkpt lat="49.39602" lon="5.79166">
        <ele>271.60000610352</ele>
        <time>2022-09-13T10:42:21.000Z</time>
      </trkpt>
      <trkpt lat="49.39598" lon="5.79174">
        <ele>270.60000610352</ele>
        <time>2022-09-13T10:42:22.000Z</time>
      </trkpt>
      <trkpt lat="49.39595" lon="5.7918">
        <ele>270.39999389648</ele>
        <time>2022-09-13T10:42:23.000Z</time>
      </trkpt>
      <trkpt lat="49.39592" lon="5.79185">
        <ele>270</ele>
        <time>2022-09-13T10:42:24.000Z</time>
      </trkpt>
      <trkpt lat="49.3959" lon="5.79188">
        <ele>270</ele>
        <time>2022-09-13T10:42:25.000Z</time>
      </trkpt>
      <trkpt lat="49.39589" lon="5.79191">
        <ele>269.79998779297</ele>
        <time>2022-09-13T10:42:26.000Z</time>
      </trkpt>
      <trkpt lat="49.39587" lon="5.79193">
        <ele>269.79998779297</ele>
        <time>2022-09-13T10:42:27.000Z</time>
      </trkpt>
      <trkpt lat="49.39584" lon="5.79196">
        <ele>269.79998779297</ele>
        <time>2022-09-13T10:42:28.000Z</time>
      </trkpt>
      <trkpt lat="49.39582" lon="5.792">
        <ele>269.60000610352</ele>
        <time>2022-09-13T10:42:29.000Z</time>
      </trkpt>
      <trkpt lat="49.3958" lon="5.79204">
        <ele>269.60000610352</ele>
        <time>2022-09-13T10:42:30.000Z</time>
      </trkpt>
      <trkpt lat="49.39577" lon="5.7921">
        <ele>269.60000610352</ele>
        <time>2022-09-13T10:42:32.000Z</time>
      </trkpt>
      <trkpt lat="49.39574" lon="5.79214">
        <ele>269.60000610352</ele>
        <time>2022-09-13T10:42:33.000Z</time>
      </trkpt>
      <trkpt lat="49.39571" lon="5.7922">
        <ele>269.60000610352</ele>
        <time>2022-09-13T10:42:34.000Z</time>
      </trkpt>
      <trkpt lat="49.39559" lon="5.79246">
        <ele>269.60000610352</ele>
        <time>2022-09-13T10:42:38.000Z</time>
      </trkpt>
      <trkpt lat="49.39556" lon="5.79253">
        <ele>269.79998779297</ele>
        <time>2022-09-13T10:42:39.000Z</time>
      </trkpt>
      <trkpt lat="49.39554" lon="5.79258">
        <ele>270.20001220703</ele>
        <time>2022-09-13T10:42:40.000Z</time>
      </trkpt>
      <trkpt lat="49.39549" lon="5.79283">
        <ele>270.60000610352</ele>
        <time>2022-09-13T10:42:42.000Z</time>
      </trkpt>
      <trkpt lat="49.39547" lon="5.79291">
        <ele>270.60000610352</ele>
        <time>2022-09-13T10:42:43.000Z</time>
      </trkpt>
      <trkpt lat="49.39545" lon="5.79299">
        <ele>270.79998779297</ele>
        <time>2022-09-13T10:42:44.000Z</time>
      </trkpt>
      <trkpt lat="49.39545" lon="5.79304">
        <ele>271</ele>
        <time>2022-09-13T10:42:45.000Z</time>
      </trkpt>
      <trkpt lat="49.39543" lon="5.79312">
        <ele>271</ele>
        <time>2022-09-13T10:42:46.000Z</time>
      </trkpt>
      <trkpt lat="49.39542" lon="5.79319">
        <ele>271</ele>
        <time>2022-09-13T10:42:47.000Z</time>
      </trkpt>
      <trkpt lat="49.39538" lon="5.79352">
        <ele>271.39999389648</ele>
        <time>2022-09-13T10:42:52.000Z</time>
      </trkpt>
      <trkpt lat="49.3954" lon="5.79357">
        <ele>271.60000610352</ele>
        <time>2022-09-13T10:42:53.000Z</time>
      </trkpt>
      <trkpt lat="49.3954" lon="5.79361">
        <ele>271.60000610352</ele>
        <time>2022-09-13T10:42:54.000Z</time>
      </trkpt>
      <trkpt lat="49.39538" lon="5.79367">
        <ele>271.79998779297</ele>
        <time>2022-09-13T10:42:55.000Z</time>
      </trkpt>
      <trkpt lat="49.39537" lon="5.79372">
        <ele>272</ele>
        <time>2022-09-13T10:42:56.000Z</time>
      </trkpt>
      <trkpt lat="49.39537" lon="5.79378">
        <ele>272.20001220703</ele>
        <time>2022-09-13T10:42:57.000Z</time>
      </trkpt>
      <trkpt lat="49.39539" lon="5.79384">
        <ele>272.20001220703</ele>
        <time>2022-09-13T10:42:58.000Z</time>
      </trkpt>
      <trkpt lat="49.39542" lon="5.79389">
        <ele>272.39999389648</ele>
        <time>2022-09-13T10:42:59.000Z</time>
      </trkpt>
      <trkpt lat="49.39544" lon="5.79395">
        <ele>272.39999389648</ele>
        <time>2022-09-13T10:43:00.000Z</time>
      </trkpt>
      <trkpt lat="49.39546" lon="5.79419">
        <ele>272.79998779297</ele>
        <time>2022-09-13T10:43:02.000Z</time>
      </trkpt>
      <trkpt lat="49.39546" lon="5.79429">
        <ele>272.79998779297</ele>
        <time>2022-09-13T10:43:03.000Z</time>
      </trkpt>
      <trkpt lat="49.39547" lon="5.79437">
        <ele>272.79998779297</ele>
        <time>2022-09-13T10:43:04.000Z</time>
      </trkpt>
      <trkpt lat="49.3955" lon="5.79448">
        <ele>272.79998779297</ele>
        <time>2022-09-13T10:43:06.000Z</time>
      </trkpt>
      <trkpt lat="49.39551" lon="5.79453">
        <ele>272.79998779297</ele>
        <time>2022-09-13T10:43:07.000Z</time>
      </trkpt>
      <trkpt lat="49.39555" lon="5.7946">
        <ele>272.79998779297</ele>
        <time>2022-09-13T10:43:08.000Z</time>
      </trkpt>
      <trkpt lat="49.39558" lon="5.79478">
        <ele>272.79998779297</ele>
        <time>2022-09-13T10:43:09.000Z</time>
      </trkpt>
      <trkpt lat="49.3956" lon="5.79486">
        <ele>272.60000610352</ele>
        <time>2022-09-13T10:43:10.000Z</time>
      </trkpt>
      <trkpt lat="49.39563" lon="5.79506">
        <ele>272.60000610352</ele>
        <time>2022-09-13T10:43:12.000Z</time>
      </trkpt>
      <trkpt lat="49.39564" lon="5.79518">
        <ele>272.60000610352</ele>
        <time>2022-09-13T10:43:13.000Z</time>
      </trkpt>
      <trkpt lat="49.39566" lon="5.79524">
        <ele>272.39999389648</ele>
        <time>2022-09-13T10:43:14.000Z</time>
      </trkpt>
      <trkpt lat="49.39568" lon="5.79527">
        <ele>272.39999389648</ele>
        <time>2022-09-13T10:43:15.000Z</time>
      </trkpt>
      <trkpt lat="49.3957" lon="5.79531">
        <ele>272.39999389648</ele>
        <time>2022-09-13T10:43:16.000Z</time>
      </trkpt>
      <trkpt lat="49.39572" lon="5.79536">
        <ele>272.20001220703</ele>
        <time>2022-09-13T10:43:17.000Z</time>
      </trkpt>
      <trkpt lat="49.39574" lon="5.79541">
        <ele>272.20001220703</ele>
        <time>2022-09-13T10:43:18.000Z</time>
      </trkpt>
      <trkpt lat="49.39578" lon="5.79548">
        <ele>272.20001220703</ele>
        <time>2022-09-13T10:43:19.000Z</time>
      </trkpt>
      <trkpt lat="49.39595" lon="5.79587">
        <ele>271.60000610352</ele>
        <time>2022-09-13T10:43:25.000Z</time>
      </trkpt>
      <trkpt lat="49.39599" lon="5.7959">
        <ele>271.60000610352</ele>
        <time>2022-09-13T10:43:26.000Z</time>
      </trkpt>
      <trkpt lat="49.39601" lon="5.79593">
        <ele>271.60000610352</ele>
        <time>2022-09-13T10:43:27.000Z</time>
      </trkpt>
      <trkpt lat="49.39605" lon="5.79596">
        <ele>271.60000610352</ele>
        <time>2022-09-13T10:43:28.000Z</time>
      </trkpt>
      <trkpt lat="49.39609" lon="5.79601">
        <ele>271.60000610352</ele>
        <time>2022-09-13T10:43:29.000Z</time>
      </trkpt>
      <trkpt lat="49.39613" lon="5.79608">
        <ele>271.39999389648</ele>
        <time>2022-09-13T10:43:30.000Z</time>
      </trkpt>
      <trkpt lat="49.39632" lon="5.79644">
        <ele>271.39999389648</ele>
        <time>2022-09-13T10:43:35.000Z</time>
      </trkpt>
      <trkpt lat="49.39634" lon="5.79655">
        <ele>271.39999389648</ele>
        <time>2022-09-13T10:43:37.000Z</time>
      </trkpt>
      <trkpt lat="49.39635" lon="5.79659">
        <ele>271.39999389648</ele>
        <time>2022-09-13T10:43:38.000Z</time>
      </trkpt>
      <trkpt lat="49.39635" lon="5.79663">
        <ele>271.60000610352</ele>
        <time>2022-09-13T10:43:39.000Z</time>
      </trkpt>
      <trkpt lat="49.39635" lon="5.79666">
        <ele>271.60000610352</ele>
        <time>2022-09-13T10:43:40.000Z</time>
      </trkpt>
      <trkpt lat="49.39636" lon="5.79671">
        <ele>271.60000610352</ele>
        <time>2022-09-13T10:43:41.000Z</time>
      </trkpt>
      <trkpt lat="49.39637" lon="5.79675">
        <ele>271.79998779297</ele>
        <time>2022-09-13T10:43:42.000Z</time>
      </trkpt>
      <trkpt lat="49.39651" lon="5.797">
        <ele>272.39999389648</ele>
        <time>2022-09-13T10:43:45.000Z</time>
      </trkpt>
      <trkpt lat="49.39652" lon="5.79708">
        <ele>272.79998779297</ele>
        <time>2022-09-13T10:43:46.000Z</time>
      </trkpt>
      <trkpt lat="49.39654" lon="5.79716">
        <ele>273.20001220703</ele>
        <time>2022-09-13T10:43:47.000Z</time>
      </trkpt>
      <trkpt lat="49.39656" lon="5.7972">
        <ele>273.39999389648</ele>
        <time>2022-09-13T10:43:48.000Z</time>
      </trkpt>
      <trkpt lat="49.39656" lon="5.79725">
        <ele>273.79998779297</ele>
        <time>2022-09-13T10:43:49.000Z</time>
      </trkpt>
      <trkpt lat="49.39656" lon="5.79732">
        <ele>274</ele>
        <time>2022-09-13T10:43:50.000Z</time>
      </trkpt>
      <trkpt lat="49.39656" lon="5.79742">
        <ele>274.60000610352</ele>
        <time>2022-09-13T10:43:52.000Z</time>
      </trkpt>
      <trkpt lat="49.39656" lon="5.79745">
        <ele>275</ele>
        <time>2022-09-13T10:43:53.000Z</time>
      </trkpt>
      <trkpt lat="49.39656" lon="5.79749">
        <ele>275.20001220703</ele>
        <time>2022-09-13T10:43:54.000Z</time>
      </trkpt>
      <trkpt lat="49.39657" lon="5.79753">
        <ele>275.39999389648</ele>
        <time>2022-09-13T10:43:55.000Z</time>
      </trkpt>
      <trkpt lat="49.39658" lon="5.79757">
        <ele>275.60000610352</ele>
        <time>2022-09-13T10:43:56.000Z</time>
      </trkpt>
      <trkpt lat="49.3966" lon="5.79761">
        <ele>276</ele>
        <time>2022-09-13T10:43:57.000Z</time>
      </trkpt>
      <trkpt lat="49.39661" lon="5.79765">
        <ele>276.60000610352</ele>
        <time>2022-09-13T10:43:58.000Z</time>
      </trkpt>
      <trkpt lat="49.39662" lon="5.7977">
        <ele>276.79998779297</ele>
        <time>2022-09-13T10:43:59.000Z</time>
      </trkpt>
      <trkpt lat="49.39663" lon="5.79775">
        <ele>277</ele>
        <time>2022-09-13T10:44:00.000Z</time>
      </trkpt>
      <trkpt lat="49.39663" lon="5.79779">
        <ele>277</ele>
        <time>2022-09-13T10:44:01.000Z</time>
      </trkpt>
      <trkpt lat="49.39663" lon="5.79784">
        <ele>277.60000610352</ele>
        <time>2022-09-13T10:44:02.000Z</time>
      </trkpt>
      <trkpt lat="49.39661" lon="5.79788">
        <ele>278</ele>
        <time>2022-09-13T10:44:03.000Z</time>
      </trkpt>
      <trkpt lat="49.39662" lon="5.79792">
        <ele>278.39999389648</ele>
        <time>2022-09-13T10:44:04.000Z</time>
      </trkpt>
      <trkpt lat="49.39662" lon="5.79796">
        <ele>278.79998779297</ele>
        <time>2022-09-13T10:44:05.000Z</time>
      </trkpt>
      <trkpt lat="49.39663" lon="5.79801">
        <ele>279</ele>
        <time>2022-09-13T10:44:06.000Z</time>
      </trkpt>
      <trkpt lat="49.39663" lon="5.79805">
        <ele>279.20001220703</ele>
        <time>2022-09-13T10:44:07.000Z</time>
      </trkpt>
      <trkpt lat="49.39663" lon="5.79808">
        <ele>279.60000610352</ele>
        <time>2022-09-13T10:44:08.000Z</time>
      </trkpt>
      <trkpt lat="49.39662" lon="5.79812">
        <ele>280.20001220703</ele>
        <time>2022-09-13T10:44:09.000Z</time>
      </trkpt>
      <trkpt lat="49.39661" lon="5.79817">
        <ele>280.39999389648</ele>
        <time>2022-09-13T10:44:10.000Z</time>
      </trkpt>
      <trkpt lat="49.3966" lon="5.79823">
        <ele>280.60000610352</ele>
        <time>2022-09-13T10:44:11.000Z</time>
      </trkpt>
      <trkpt lat="49.3966" lon="5.79827">
        <ele>281</ele>
        <time>2022-09-13T10:44:12.000Z</time>
      </trkpt>
      <trkpt lat="49.39659" lon="5.79831">
        <ele>281.39999389648</ele>
        <time>2022-09-13T10:44:13.000Z</time>
      </trkpt>
      <trkpt lat="49.3966" lon="5.79837">
        <ele>281.79998779297</ele>
        <time>2022-09-13T10:44:14.000Z</time>
      </trkpt>
      <trkpt lat="49.39659" lon="5.79841">
        <ele>281.79998779297</ele>
        <time>2022-09-13T10:44:15.000Z</time>
      </trkpt>
      <trkpt lat="49.39658" lon="5.79846">
        <ele>282</ele>
        <time>2022-09-13T10:44:16.000Z</time>
      </trkpt>
      <trkpt lat="49.39655" lon="5.7985">
        <ele>282</ele>
        <time>2022-09-13T10:44:17.000Z</time>
      </trkpt>
      <trkpt lat="49.39652" lon="5.79854">
        <ele>282</ele>
        <time>2022-09-13T10:44:18.000Z</time>
      </trkpt>
      <trkpt lat="49.39649" lon="5.79858">
        <ele>282</ele>
        <time>2022-09-13T10:44:19.000Z</time>
      </trkpt>
      <trkpt lat="49.39645" lon="5.79863">
        <ele>282</ele>
        <time>2022-09-13T10:44:20.000Z</time>
      </trkpt>
      <trkpt lat="49.3964" lon="5.79868">
        <ele>282</ele>
        <time>2022-09-13T10:44:21.000Z</time>
      </trkpt>
      <trkpt lat="49.39634" lon="5.79873">
        <ele>282</ele>
        <time>2022-09-13T10:44:22.000Z</time>
      </trkpt>
      <trkpt lat="49.39627" lon="5.79878">
        <ele>281.79998779297</ele>
        <time>2022-09-13T10:44:23.000Z</time>
      </trkpt>
      <trkpt lat="49.39621" lon="5.79884">
        <ele>281.60000610352</ele>
        <time>2022-09-13T10:44:24.000Z</time>
      </trkpt>
      <trkpt lat="49.39615" lon="5.79891">
        <ele>281.39999389648</ele>
        <time>2022-09-13T10:44:25.000Z</time>
      </trkpt>
      <trkpt lat="49.39609" lon="5.79897">
        <ele>281</ele>
        <time>2022-09-13T10:44:26.000Z</time>
      </trkpt>
      <trkpt lat="49.39603" lon="5.79903">
        <ele>280.79998779297</ele>
        <time>2022-09-13T10:44:27.000Z</time>
      </trkpt>
      <trkpt lat="49.39598" lon="5.79909">
        <ele>280.20001220703</ele>
        <time>2022-09-13T10:44:28.000Z</time>
      </trkpt>
      <trkpt lat="49.39594" lon="5.79914">
        <ele>279.39999389648</ele>
        <time>2022-09-13T10:44:29.000Z</time>
      </trkpt>
      <trkpt lat="49.39589" lon="5.79918">
        <ele>278</ele>
        <time>2022-09-13T10:44:30.000Z</time>
      </trkpt>
      <trkpt lat="49.39584" lon="5.79924">
        <ele>277.79998779297</ele>
        <time>2022-09-13T10:44:31.000Z</time>
      </trkpt>
      <trkpt lat="49.39577" lon="5.79931">
        <ele>277</ele>
        <time>2022-09-13T10:44:32.000Z</time>
      </trkpt>
      <trkpt lat="49.39572" lon="5.79936">
        <ele>276.39999389648</ele>
        <time>2022-09-13T10:44:33.000Z</time>
      </trkpt>
      <trkpt lat="49.39568" lon="5.7994">
        <ele>276</ele>
        <time>2022-09-13T10:44:34.000Z</time>
      </trkpt>
      <trkpt lat="49.39566" lon="5.79946">
        <ele>274.79998779297</ele>
        <time>2022-09-13T10:44:35.000Z</time>
      </trkpt>
      <trkpt lat="49.39561" lon="5.79954">
        <ele>274.20001220703</ele>
        <time>2022-09-13T10:44:36.000Z</time>
      </trkpt>
      <trkpt lat="49.39556" lon="5.79959">
        <ele>273.20001220703</ele>
        <time>2022-09-13T10:44:37.000Z</time>
      </trkpt>
      <trkpt lat="49.39552" lon="5.79962">
        <ele>273</ele>
        <time>2022-09-13T10:44:38.000Z</time>
      </trkpt>
      <trkpt lat="49.39548" lon="5.79964">
        <ele>272.20001220703</ele>
        <time>2022-09-13T10:44:39.000Z</time>
      </trkpt>
      <trkpt lat="49.39546" lon="5.79966">
        <ele>272</ele>
        <time>2022-09-13T10:44:40.000Z</time>
      </trkpt>
      <trkpt lat="49.39544" lon="5.79968">
        <ele>271.60000610352</ele>
        <time>2022-09-13T10:44:41.000Z</time>
      </trkpt>
      <trkpt lat="49.39542" lon="5.79971">
        <ele>271.39999389648</ele>
        <time>2022-09-13T10:44:42.000Z</time>
      </trkpt>
      <trkpt lat="49.39538" lon="5.79974">
        <ele>271.20001220703</ele>
        <time>2022-09-13T10:44:43.000Z</time>
      </trkpt>
      <trkpt lat="49.39535" lon="5.79978">
        <ele>271</ele>
        <time>2022-09-13T10:44:44.000Z</time>
      </trkpt>
      <trkpt lat="49.39526" lon="5.79982">
        <ele>270.79998779297</ele>
        <time>2022-09-13T10:44:47.000Z</time>
      </trkpt>
      <trkpt lat="49.39523" lon="5.79983">
        <ele>270.79998779297</ele>
        <time>2022-09-13T10:44:48.000Z</time>
      </trkpt>
      <trkpt lat="49.3952" lon="5.79986">
        <ele>270.79998779297</ele>
        <time>2022-09-13T10:44:49.000Z</time>
      </trkpt>
      <trkpt lat="49.39517" lon="5.79989">
        <ele>270.79998779297</ele>
        <time>2022-09-13T10:44:50.000Z</time>
      </trkpt>
      <trkpt lat="49.39508" lon="5.79997">
        <ele>271.20001220703</ele>
        <time>2022-09-13T10:44:53.000Z</time>
      </trkpt>
      <trkpt lat="49.39502" lon="5.80005">
        <ele>271.39999389648</ele>
        <time>2022-09-13T10:44:56.000Z</time>
      </trkpt>
      <trkpt lat="49.39501" lon="5.80008">
        <ele>271.39999389648</ele>
        <time>2022-09-13T10:44:57.000Z</time>
      </trkpt>
      <trkpt lat="49.39497" lon="5.80015">
        <ele>271.39999389648</ele>
        <time>2022-09-13T10:45:00.000Z</time>
      </trkpt>
      <trkpt lat="49.39497" lon="5.80018">
        <ele>271.60000610352</ele>
        <time>2022-09-13T10:45:01.000Z</time>
      </trkpt>
      <trkpt lat="49.39495" lon="5.80021">
        <ele>271.79998779297</ele>
        <time>2022-09-13T10:45:02.000Z</time>
      </trkpt>
      <trkpt lat="49.39493" lon="5.80018">
        <ele>271.79998779297</ele>
        <time>2022-09-13T10:45:03.000Z</time>
      </trkpt>
      <trkpt lat="49.39492" lon="5.8002">
        <ele>271.79998779297</ele>
        <time>2022-09-13T10:45:04.000Z</time>
      </trkpt>
      <trkpt lat="49.3949" lon="5.80024">
        <ele>271.79998779297</ele>
        <time>2022-09-13T10:45:05.000Z</time>
      </trkpt>
      <trkpt lat="49.39488" lon="5.80027">
        <ele>271.79998779297</ele>
        <time>2022-09-13T10:45:06.000Z</time>
      </trkpt>
      <trkpt lat="49.39486" lon="5.8003">
        <ele>271.79998779297</ele>
        <time>2022-09-13T10:45:07.000Z</time>
      </trkpt>
      <trkpt lat="49.39478" lon="5.80048">
        <ele>271.79998779297</ele>
        <time>2022-09-13T10:45:11.000Z</time>
      </trkpt>
      <trkpt lat="49.39476" lon="5.80052">
        <ele>271.79998779297</ele>
        <time>2022-09-13T10:45:12.000Z</time>
      </trkpt>
      <trkpt lat="49.39475" lon="5.80054">
        <ele>271.60000610352</ele>
        <time>2022-09-13T10:45:13.000Z</time>
      </trkpt>
      <trkpt lat="49.39473" lon="5.80058">
        <ele>271.60000610352</ele>
        <time>2022-09-13T10:45:14.000Z</time>
      </trkpt>
      <trkpt lat="49.39461" lon="5.80081">
        <ele>271.60000610352</ele>
        <time>2022-09-13T10:45:19.000Z</time>
      </trkpt>
      <trkpt lat="49.39455" lon="5.80108">
        <ele>271.79998779297</ele>
        <time>2022-09-13T10:45:23.000Z</time>
      </trkpt>
      <trkpt lat="49.39453" lon="5.80116">
        <ele>271.79998779297</ele>
        <time>2022-09-13T10:45:24.000Z</time>
      </trkpt>
      <trkpt lat="49.39449" lon="5.80134">
        <ele>272</ele>
        <time>2022-09-13T10:45:26.000Z</time>
      </trkpt>
      <trkpt lat="49.39448" lon="5.80141">
        <ele>272</ele>
        <time>2022-09-13T10:45:27.000Z</time>
      </trkpt>
      <trkpt lat="49.39448" lon="5.80146">
        <ele>272</ele>
        <time>2022-09-13T10:45:28.000Z</time>
      </trkpt>
      <trkpt lat="49.39448" lon="5.80152">
        <ele>272</ele>
        <time>2022-09-13T10:45:29.000Z</time>
      </trkpt>
      <trkpt lat="49.39444" lon="5.80182">
        <ele>272</ele>
        <time>2022-09-13T10:45:33.000Z</time>
      </trkpt>
      <trkpt lat="49.39443" lon="5.80189">
        <ele>272.20001220703</ele>
        <time>2022-09-13T10:45:34.000Z</time>
      </trkpt>
      <trkpt lat="49.39442" lon="5.80194">
        <ele>272.20001220703</ele>
        <time>2022-09-13T10:45:35.000Z</time>
      </trkpt>
      <trkpt lat="49.39441" lon="5.802">
        <ele>272.20001220703</ele>
        <time>2022-09-13T10:45:36.000Z</time>
      </trkpt>
      <trkpt lat="49.3944" lon="5.80206">
        <ele>272.20001220703</ele>
        <time>2022-09-13T10:45:37.000Z</time>
      </trkpt>
      <trkpt lat="49.3944" lon="5.80212">
        <ele>272.20001220703</ele>
        <time>2022-09-13T10:45:38.000Z</time>
      </trkpt>
      <trkpt lat="49.39441" lon="5.80216">
        <ele>272.39999389648</ele>
        <time>2022-09-13T10:45:39.000Z</time>
      </trkpt>
      <trkpt lat="49.39441" lon="5.8022">
        <ele>272.60000610352</ele>
        <time>2022-09-13T10:45:40.000Z</time>
      </trkpt>
      <trkpt lat="49.39441" lon="5.80225">
        <ele>272.79998779297</ele>
        <time>2022-09-13T10:45:41.000Z</time>
      </trkpt>
      <trkpt lat="49.3944" lon="5.80231">
        <ele>272.79998779297</ele>
        <time>2022-09-13T10:45:42.000Z</time>
      </trkpt>
      <trkpt lat="49.39438" lon="5.80238">
        <ele>272.79998779297</ele>
        <time>2022-09-13T10:45:43.000Z</time>
      </trkpt>
      <trkpt lat="49.39438" lon="5.80245">
        <ele>273</ele>
        <time>2022-09-13T10:45:44.000Z</time>
      </trkpt>
      <trkpt lat="49.39438" lon="5.80249">
        <ele>272.79998779297</ele>
        <time>2022-09-13T10:45:45.000Z</time>
      </trkpt>
      <trkpt lat="49.39437" lon="5.80253">
        <ele>273</ele>
        <time>2022-09-13T10:45:46.000Z</time>
      </trkpt>
      <trkpt lat="49.39438" lon="5.80257">
        <ele>273.20001220703</ele>
        <time>2022-09-13T10:45:47.000Z</time>
      </trkpt>
      <trkpt lat="49.39438" lon="5.80262">
        <ele>273.39999389648</ele>
        <time>2022-09-13T10:45:48.000Z</time>
      </trkpt>
      <trkpt lat="49.39437" lon="5.80268">
        <ele>273.39999389648</ele>
        <time>2022-09-13T10:45:49.000Z</time>
      </trkpt>
      <trkpt lat="49.39435" lon="5.80275">
        <ele>273.60000610352</ele>
        <time>2022-09-13T10:45:50.000Z</time>
      </trkpt>
      <trkpt lat="49.39435" lon="5.8028">
        <ele>273.79998779297</ele>
        <time>2022-09-13T10:45:51.000Z</time>
      </trkpt>
      <trkpt lat="49.39435" lon="5.80284">
        <ele>274</ele>
        <time>2022-09-13T10:45:52.000Z</time>
      </trkpt>
      <trkpt lat="49.39435" lon="5.80288">
        <ele>274.20001220703</ele>
        <time>2022-09-13T10:45:53.000Z</time>
      </trkpt>
      <trkpt lat="49.39434" lon="5.80294">
        <ele>274.20001220703</ele>
        <time>2022-09-13T10:45:54.000Z</time>
      </trkpt>
      <trkpt lat="49.39433" lon="5.80315">
        <ele>274.60000610352</ele>
        <time>2022-09-13T10:45:58.000Z</time>
      </trkpt>
      <trkpt lat="49.39433" lon="5.80319">
        <ele>274.60000610352</ele>
        <time>2022-09-13T10:45:59.000Z</time>
      </trkpt>
      <trkpt lat="49.39432" lon="5.80324">
        <ele>275</ele>
        <time>2022-09-13T10:46:00.000Z</time>
      </trkpt>
      <trkpt lat="49.3943" lon="5.80331">
        <ele>275.20001220703</ele>
        <time>2022-09-13T10:46:01.000Z</time>
      </trkpt>
      <trkpt lat="49.3943" lon="5.80336">
        <ele>275.39999389648</ele>
        <time>2022-09-13T10:46:02.000Z</time>
      </trkpt>
      <trkpt lat="49.3943" lon="5.8034">
        <ele>275.60000610352</ele>
        <time>2022-09-13T10:46:03.000Z</time>
      </trkpt>
      <trkpt lat="49.39432" lon="5.80346">
        <ele>276</ele>
        <time>2022-09-13T10:46:04.000Z</time>
      </trkpt>
      <trkpt lat="49.39432" lon="5.80351">
        <ele>276.20001220703</ele>
        <time>2022-09-13T10:46:05.000Z</time>
      </trkpt>
      <trkpt lat="49.39432" lon="5.80355">
        <ele>276.79998779297</ele>
        <time>2022-09-13T10:46:06.000Z</time>
      </trkpt>
      <trkpt lat="49.39432" lon="5.8036">
        <ele>277</ele>
        <time>2022-09-13T10:46:07.000Z</time>
      </trkpt>
      <trkpt lat="49.39432" lon="5.80365">
        <ele>277.20001220703</ele>
        <time>2022-09-13T10:46:08.000Z</time>
      </trkpt>
      <trkpt lat="49.39432" lon="5.8037">
        <ele>277.39999389648</ele>
        <time>2022-09-13T10:46:09.000Z</time>
      </trkpt>
      <trkpt lat="49.39431" lon="5.80375">
        <ele>277.60000610352</ele>
        <time>2022-09-13T10:46:10.000Z</time>
      </trkpt>
      <trkpt lat="49.39429" lon="5.80381">
        <ele>278</ele>
        <time>2022-09-13T10:46:11.000Z</time>
      </trkpt>
      <trkpt lat="49.39429" lon="5.80387">
        <ele>278</ele>
        <time>2022-09-13T10:46:12.000Z</time>
      </trkpt>
      <trkpt lat="49.39428" lon="5.80391">
        <ele>278.39999389648</ele>
        <time>2022-09-13T10:46:13.000Z</time>
      </trkpt>
      <trkpt lat="49.39427" lon="5.80394">
        <ele>278.79998779297</ele>
        <time>2022-09-13T10:46:14.000Z</time>
      </trkpt>
      <trkpt lat="49.39426" lon="5.80398">
        <ele>278.79998779297</ele>
        <time>2022-09-13T10:46:15.000Z</time>
      </trkpt>
      <trkpt lat="49.39426" lon="5.80403">
        <ele>279.20001220703</ele>
        <time>2022-09-13T10:46:16.000Z</time>
      </trkpt>
      <trkpt lat="49.39426" lon="5.80407">
        <ele>279.60000610352</ele>
        <time>2022-09-13T10:46:17.000Z</time>
      </trkpt>
      <trkpt lat="49.39426" lon="5.80413">
        <ele>280</ele>
        <time>2022-09-13T10:46:18.000Z</time>
      </trkpt>
      <trkpt lat="49.39425" lon="5.80418">
        <ele>280.39999389648</ele>
        <time>2022-09-13T10:46:19.000Z</time>
      </trkpt>
      <trkpt lat="49.39424" lon="5.80421">
        <ele>280.79998779297</ele>
        <time>2022-09-13T10:46:20.000Z</time>
      </trkpt>
      <trkpt lat="49.39425" lon="5.80425">
        <ele>281</ele>
        <time>2022-09-13T10:46:21.000Z</time>
      </trkpt>
      <trkpt lat="49.39425" lon="5.80428">
        <ele>281.20001220703</ele>
        <time>2022-09-13T10:46:22.000Z</time>
      </trkpt>
      <trkpt lat="49.39424" lon="5.80432">
        <ele>281.39999389648</ele>
        <time>2022-09-13T10:46:23.000Z</time>
      </trkpt>
      <trkpt lat="49.39424" lon="5.80436">
        <ele>281.60000610352</ele>
        <time>2022-09-13T10:46:24.000Z</time>
      </trkpt>
      <trkpt lat="49.39423" lon="5.80439">
        <ele>282</ele>
        <time>2022-09-13T10:46:25.000Z</time>
      </trkpt>
      <trkpt lat="49.39423" lon="5.80443">
        <ele>282.20001220703</ele>
        <time>2022-09-13T10:46:26.000Z</time>
      </trkpt>
      <trkpt lat="49.39422" lon="5.80446">
        <ele>282.79998779297</ele>
        <time>2022-09-13T10:46:27.000Z</time>
      </trkpt>
      <trkpt lat="49.39421" lon="5.8045">
        <ele>283</ele>
        <time>2022-09-13T10:46:28.000Z</time>
      </trkpt>
      <trkpt lat="49.39421" lon="5.80453">
        <ele>283.39999389648</ele>
        <time>2022-09-13T10:46:29.000Z</time>
      </trkpt>
      <trkpt lat="49.3942" lon="5.80456">
        <ele>283.79998779297</ele>
        <time>2022-09-13T10:46:30.000Z</time>
      </trkpt>
      <trkpt lat="49.39419" lon="5.80459">
        <ele>283.79998779297</ele>
        <time>2022-09-13T10:46:31.000Z</time>
      </trkpt>
      <trkpt lat="49.39419" lon="5.80463">
        <ele>284</ele>
        <time>2022-09-13T10:46:32.000Z</time>
      </trkpt>
      <trkpt lat="49.3942" lon="5.80467">
        <ele>284.20001220703</ele>
        <time>2022-09-13T10:46:33.000Z</time>
      </trkpt>
      <trkpt lat="49.3942" lon="5.80471">
        <ele>284.39999389648</ele>
        <time>2022-09-13T10:46:34.000Z</time>
      </trkpt>
      <trkpt lat="49.39419" lon="5.80474">
        <ele>284.60000610352</ele>
        <time>2022-09-13T10:46:35.000Z</time>
      </trkpt>
      <trkpt lat="49.39418" lon="5.80478">
        <ele>285</ele>
        <time>2022-09-13T10:46:36.000Z</time>
      </trkpt>
      <trkpt lat="49.39418" lon="5.80482">
        <ele>285.20001220703</ele>
        <time>2022-09-13T10:46:37.000Z</time>
      </trkpt>
      <trkpt lat="49.39418" lon="5.80486">
        <ele>285.60000610352</ele>
        <time>2022-09-13T10:46:38.000Z</time>
      </trkpt>
      <trkpt lat="49.39418" lon="5.80491">
        <ele>286</ele>
        <time>2022-09-13T10:46:39.000Z</time>
      </trkpt>
      <trkpt lat="49.39417" lon="5.80496">
        <ele>286.20001220703</ele>
        <time>2022-09-13T10:46:40.000Z</time>
      </trkpt>
      <trkpt lat="49.39418" lon="5.80501">
        <ele>286.39999389648</ele>
        <time>2022-09-13T10:46:41.000Z</time>
      </trkpt>
      <trkpt lat="49.39417" lon="5.80507">
        <ele>286.60000610352</ele>
        <time>2022-09-13T10:46:42.000Z</time>
      </trkpt>
      <trkpt lat="49.39415" lon="5.80513">
        <ele>286.79998779297</ele>
        <time>2022-09-13T10:46:43.000Z</time>
      </trkpt>
      <trkpt lat="49.39414" lon="5.80519">
        <ele>286.79998779297</ele>
        <time>2022-09-13T10:46:44.000Z</time>
      </trkpt>
      <trkpt lat="49.39413" lon="5.80524">
        <ele>287.20001220703</ele>
        <time>2022-09-13T10:46:45.000Z</time>
      </trkpt>
      <trkpt lat="49.39413" lon="5.8053">
        <ele>287.39999389648</ele>
        <time>2022-09-13T10:46:46.000Z</time>
      </trkpt>
      <trkpt lat="49.39412" lon="5.80534">
        <ele>287.60000610352</ele>
        <time>2022-09-13T10:46:47.000Z</time>
      </trkpt>
      <trkpt lat="49.39412" lon="5.80538">
        <ele>287.79998779297</ele>
        <time>2022-09-13T10:46:48.000Z</time>
      </trkpt>
      <trkpt lat="49.3941" lon="5.80542">
        <ele>288</ele>
        <time>2022-09-13T10:46:49.000Z</time>
      </trkpt>
      <trkpt lat="49.39409" lon="5.80546">
        <ele>288.60000610352</ele>
        <time>2022-09-13T10:46:50.000Z</time>
      </trkpt>
      <trkpt lat="49.39408" lon="5.80549">
        <ele>288.79998779297</ele>
        <time>2022-09-13T10:46:51.000Z</time>
      </trkpt>
      <trkpt lat="49.39406" lon="5.80552">
        <ele>289.39999389648</ele>
        <time>2022-09-13T10:46:52.000Z</time>
      </trkpt>
      <trkpt lat="49.39404" lon="5.80556">
        <ele>289.60000610352</ele>
        <time>2022-09-13T10:46:53.000Z</time>
      </trkpt>
      <trkpt lat="49.39403" lon="5.80559">
        <ele>289.60000610352</ele>
        <time>2022-09-13T10:46:54.000Z</time>
      </trkpt>
      <trkpt lat="49.39401" lon="5.80562">
        <ele>289.79998779297</ele>
        <time>2022-09-13T10:46:55.000Z</time>
      </trkpt>
      <trkpt lat="49.39399" lon="5.80566">
        <ele>290</ele>
        <time>2022-09-13T10:46:56.000Z</time>
      </trkpt>
      <trkpt lat="49.39397" lon="5.8057">
        <ele>290</ele>
        <time>2022-09-13T10:46:57.000Z</time>
      </trkpt>
      <trkpt lat="49.39395" lon="5.80574">
        <ele>290.20001220703</ele>
        <time>2022-09-13T10:46:58.000Z</time>
      </trkpt>
      <trkpt lat="49.39393" lon="5.80577">
        <ele>290.60000610352</ele>
        <time>2022-09-13T10:46:59.000Z</time>
      </trkpt>
      <trkpt lat="49.3939" lon="5.8058">
        <ele>290.60000610352</ele>
        <time>2022-09-13T10:47:00.000Z</time>
      </trkpt>
      <trkpt lat="49.39388" lon="5.80582">
        <ele>290.79998779297</ele>
        <time>2022-09-13T10:47:01.000Z</time>
      </trkpt>
      <trkpt lat="49.39385" lon="5.80585">
        <ele>291.20001220703</ele>
        <time>2022-09-13T10:47:02.000Z</time>
      </trkpt>
      <trkpt lat="49.39382" lon="5.80588">
        <ele>291.39999389648</ele>
        <time>2022-09-13T10:47:03.000Z</time>
      </trkpt>
      <trkpt lat="49.3938" lon="5.80591">
        <ele>291.79998779297</ele>
        <time>2022-09-13T10:47:04.000Z</time>
      </trkpt>
      <trkpt lat="49.39377" lon="5.80593">
        <ele>292</ele>
        <time>2022-09-13T10:47:05.000Z</time>
      </trkpt>
      <trkpt lat="49.39375" lon="5.80596">
        <ele>292.20001220703</ele>
        <time>2022-09-13T10:47:06.000Z</time>
      </trkpt>
      <trkpt lat="49.39372" lon="5.80598">
        <ele>292.20001220703</ele>
        <time>2022-09-13T10:47:07.000Z</time>
      </trkpt>
      <trkpt lat="49.39369" lon="5.80601">
        <ele>292.60000610352</ele>
        <time>2022-09-13T10:47:08.000Z</time>
      </trkpt>
      <trkpt lat="49.39366" lon="5.80603">
        <ele>292.79998779297</ele>
        <time>2022-09-13T10:47:09.000Z</time>
      </trkpt>
      <trkpt lat="49.39364" lon="5.80605">
        <ele>293</ele>
        <time>2022-09-13T10:47:10.000Z</time>
      </trkpt>
      <trkpt lat="49.39361" lon="5.80607">
        <ele>293.20001220703</ele>
        <time>2022-09-13T10:47:11.000Z</time>
      </trkpt>
      <trkpt lat="49.39358" lon="5.80609">
        <ele>293.20001220703</ele>
        <time>2022-09-13T10:47:12.000Z</time>
      </trkpt>
      <trkpt lat="49.39355" lon="5.80611">
        <ele>293.60000610352</ele>
        <time>2022-09-13T10:47:13.000Z</time>
      </trkpt>
      <trkpt lat="49.39353" lon="5.80613">
        <ele>293.79998779297</ele>
        <time>2022-09-13T10:47:14.000Z</time>
      </trkpt>
      <trkpt lat="49.39351" lon="5.80615">
        <ele>294.20001220703</ele>
        <time>2022-09-13T10:47:15.000Z</time>
      </trkpt>
      <trkpt lat="49.39348" lon="5.80617">
        <ele>294.39999389648</ele>
        <time>2022-09-13T10:47:16.000Z</time>
      </trkpt>
      <trkpt lat="49.39346" lon="5.80618">
        <ele>294.60000610352</ele>
        <time>2022-09-13T10:47:17.000Z</time>
      </trkpt>
      <trkpt lat="49.39343" lon="5.8062">
        <ele>294.60000610352</ele>
        <time>2022-09-13T10:47:18.000Z</time>
      </trkpt>
      <trkpt lat="49.39341" lon="5.80621">
        <ele>294.60000610352</ele>
        <time>2022-09-13T10:47:19.000Z</time>
      </trkpt>
      <trkpt lat="49.39339" lon="5.80623">
        <ele>294.79998779297</ele>
        <time>2022-09-13T10:47:20.000Z</time>
      </trkpt>
      <trkpt lat="49.39337" lon="5.80624">
        <ele>295</ele>
        <time>2022-09-13T10:47:21.000Z</time>
      </trkpt>
      <trkpt lat="49.39335" lon="5.80626">
        <ele>295.20001220703</ele>
        <time>2022-09-13T10:47:22.000Z</time>
      </trkpt>
      <trkpt lat="49.39332" lon="5.80627">
        <ele>295.39999389648</ele>
        <time>2022-09-13T10:47:23.000Z</time>
      </trkpt>
      <trkpt lat="49.39329" lon="5.80629">
        <ele>295.60000610352</ele>
        <time>2022-09-13T10:47:24.000Z</time>
      </trkpt>
      <trkpt lat="49.39327" lon="5.8063">
        <ele>295.79998779297</ele>
        <time>2022-09-13T10:47:25.000Z</time>
      </trkpt>
      <trkpt lat="49.39324" lon="5.80631">
        <ele>296</ele>
        <time>2022-09-13T10:47:26.000Z</time>
      </trkpt>
      <trkpt lat="49.39321" lon="5.80633">
        <ele>296.20001220703</ele>
        <time>2022-09-13T10:47:27.000Z</time>
      </trkpt>
      <trkpt lat="49.39319" lon="5.80635">
        <ele>296.39999389648</ele>
        <time>2022-09-13T10:47:28.000Z</time>
      </trkpt>
      <trkpt lat="49.39316" lon="5.80637">
        <ele>296.79998779297</ele>
        <time>2022-09-13T10:47:29.000Z</time>
      </trkpt>
      <trkpt lat="49.39314" lon="5.80638">
        <ele>297</ele>
        <time>2022-09-13T10:47:30.000Z</time>
      </trkpt>
      <trkpt lat="49.39312" lon="5.80639">
        <ele>297.20001220703</ele>
        <time>2022-09-13T10:47:31.000Z</time>
      </trkpt>
      <trkpt lat="49.3931" lon="5.8064">
        <ele>297.39999389648</ele>
        <time>2022-09-13T10:47:32.000Z</time>
      </trkpt>
      <trkpt lat="49.39308" lon="5.80641">
        <ele>297.60000610352</ele>
        <time>2022-09-13T10:47:33.000Z</time>
      </trkpt>
      <trkpt lat="49.39305" lon="5.80643">
        <ele>298</ele>
        <time>2022-09-13T10:47:34.000Z</time>
      </trkpt>
      <trkpt lat="49.39303" lon="5.80646">
        <ele>298.20001220703</ele>
        <time>2022-09-13T10:47:35.000Z</time>
      </trkpt>
      <trkpt lat="49.39301" lon="5.80647">
        <ele>298.60000610352</ele>
        <time>2022-09-13T10:47:36.000Z</time>
      </trkpt>
      <trkpt lat="49.39298" lon="5.80649">
        <ele>298.60000610352</ele>
        <time>2022-09-13T10:47:37.000Z</time>
      </trkpt>
      <trkpt lat="49.39296" lon="5.8065">
        <ele>299.39999389648</ele>
        <time>2022-09-13T10:47:38.000Z</time>
      </trkpt>
      <trkpt lat="49.39293" lon="5.80651">
        <ele>299.20001220703</ele>
        <time>2022-09-13T10:47:39.000Z</time>
      </trkpt>
      <trkpt lat="49.3929" lon="5.80653">
        <ele>299.79998779297</ele>
        <time>2022-09-13T10:47:40.000Z</time>
      </trkpt>
      <trkpt lat="49.39288" lon="5.80655">
        <ele>300.20001220703</ele>
        <time>2022-09-13T10:47:41.000Z</time>
      </trkpt>
      <trkpt lat="49.39285" lon="5.80656">
        <ele>300.39999389648</ele>
        <time>2022-09-13T10:47:42.000Z</time>
      </trkpt>
      <trkpt lat="49.39283" lon="5.80657">
        <ele>300.60000610352</ele>
        <time>2022-09-13T10:47:43.000Z</time>
      </trkpt>
      <trkpt lat="49.3928" lon="5.80658">
        <ele>300.60000610352</ele>
        <time>2022-09-13T10:47:44.000Z</time>
      </trkpt>
      <trkpt lat="49.39278" lon="5.80657">
        <ele>301.20001220703</ele>
        <time>2022-09-13T10:47:45.000Z</time>
      </trkpt>
      <trkpt lat="49.39276" lon="5.80655">
        <ele>301.60000610352</ele>
        <time>2022-09-13T10:47:46.000Z</time>
      </trkpt>
      <trkpt lat="49.39275" lon="5.80652">
        <ele>302.20001220703</ele>
        <time>2022-09-13T10:47:47.000Z</time>
      </trkpt>
      <trkpt lat="49.39276" lon="5.80649">
        <ele>302.60000610352</ele>
        <time>2022-09-13T10:47:48.000Z</time>
      </trkpt>
      <trkpt lat="49.39277" lon="5.80645">
        <ele>302.79998779297</ele>
        <time>2022-09-13T10:47:49.000Z</time>
      </trkpt>
      <trkpt lat="49.39279" lon="5.80641">
        <ele>303.20001220703</ele>
        <time>2022-09-13T10:47:50.000Z</time>
      </trkpt>
      <trkpt lat="49.3928" lon="5.80637">
        <ele>303.20001220703</ele>
        <time>2022-09-13T10:47:51.000Z</time>
      </trkpt>
      <trkpt lat="49.39282" lon="5.80633">
        <ele>303.60000610352</ele>
        <time>2022-09-13T10:47:52.000Z</time>
      </trkpt>
      <trkpt lat="49.39283" lon="5.80629">
        <ele>303.79998779297</ele>
        <time>2022-09-13T10:47:53.000Z</time>
      </trkpt>
      <trkpt lat="49.39284" lon="5.80625">
        <ele>304.39999389648</ele>
        <time>2022-09-13T10:47:54.000Z</time>
      </trkpt>
      <trkpt lat="49.39285" lon="5.8062">
        <ele>304.60000610352</ele>
        <time>2022-09-13T10:47:55.000Z</time>
      </trkpt>
      <trkpt lat="49.39286" lon="5.80616">
        <ele>304.79998779297</ele>
        <time>2022-09-13T10:47:56.000Z</time>
      </trkpt>
      <trkpt lat="49.39287" lon="5.80612">
        <ele>305</ele>
        <time>2022-09-13T10:47:57.000Z</time>
      </trkpt>
      <trkpt lat="49.39288" lon="5.80607">
        <ele>305</ele>
        <time>2022-09-13T10:47:58.000Z</time>
      </trkpt>
      <trkpt lat="49.39289" lon="5.80603">
        <ele>305.39999389648</ele>
        <time>2022-09-13T10:47:59.000Z</time>
      </trkpt>
      <trkpt lat="49.3929" lon="5.80599">
        <ele>305.39999389648</ele>
        <time>2022-09-13T10:48:00.000Z</time>
      </trkpt>
      <trkpt lat="49.3929" lon="5.80594">
        <ele>305.60000610352</ele>
        <time>2022-09-13T10:48:01.000Z</time>
      </trkpt>
      <trkpt lat="49.39291" lon="5.8059">
        <ele>305.60000610352</ele>
        <time>2022-09-13T10:48:02.000Z</time>
      </trkpt>
      <trkpt lat="49.39292" lon="5.80585">
        <ele>306</ele>
        <time>2022-09-13T10:48:03.000Z</time>
      </trkpt>
      <trkpt lat="49.39292" lon="5.8058">
        <ele>306.20001220703</ele>
        <time>2022-09-13T10:48:04.000Z</time>
      </trkpt>
      <trkpt lat="49.39293" lon="5.80576">
        <ele>306.20001220703</ele>
        <time>2022-09-13T10:48:05.000Z</time>
      </trkpt>
      <trkpt lat="49.39293" lon="5.80571">
        <ele>306.39999389648</ele>
        <time>2022-09-13T10:48:06.000Z</time>
      </trkpt>
      <trkpt lat="49.39293" lon="5.80567">
        <ele>306.60000610352</ele>
        <time>2022-09-13T10:48:07.000Z</time>
      </trkpt>
      <trkpt lat="49.39293" lon="5.80564">
        <ele>306.79998779297</ele>
        <time>2022-09-13T10:48:08.000Z</time>
      </trkpt>
      <trkpt lat="49.39291" lon="5.80559">
        <ele>306.79998779297</ele>
        <time>2022-09-13T10:48:09.000Z</time>
      </trkpt>
      <trkpt lat="49.3929" lon="5.80555">
        <ele>307</ele>
        <time>2022-09-13T10:48:10.000Z</time>
      </trkpt>
      <trkpt lat="49.39288" lon="5.80551">
        <ele>307.20001220703</ele>
        <time>2022-09-13T10:48:11.000Z</time>
      </trkpt>
      <trkpt lat="49.39286" lon="5.80547">
        <ele>307.39999389648</ele>
        <time>2022-09-13T10:48:12.000Z</time>
      </trkpt>
      <trkpt lat="49.39284" lon="5.80544">
        <ele>307.60000610352</ele>
        <time>2022-09-13T10:48:13.000Z</time>
      </trkpt>
      <trkpt lat="49.39282" lon="5.80542">
        <ele>307.60000610352</ele>
        <time>2022-09-13T10:48:14.000Z</time>
      </trkpt>
      <trkpt lat="49.39279" lon="5.8054">
        <ele>307.79998779297</ele>
        <time>2022-09-13T10:48:15.000Z</time>
      </trkpt>
      <trkpt lat="49.39276" lon="5.80538">
        <ele>308</ele>
        <time>2022-09-13T10:48:16.000Z</time>
      </trkpt>
      <trkpt lat="49.39273" lon="5.80537">
        <ele>308.20001220703</ele>
        <time>2022-09-13T10:48:17.000Z</time>
      </trkpt>
      <trkpt lat="49.3927" lon="5.80536">
        <ele>308.60000610352</ele>
        <time>2022-09-13T10:48:18.000Z</time>
      </trkpt>
      <trkpt lat="49.39267" lon="5.80537">
        <ele>308.79998779297</ele>
        <time>2022-09-13T10:48:19.000Z</time>
      </trkpt>
      <trkpt lat="49.39264" lon="5.80538">
        <ele>309.20001220703</ele>
        <time>2022-09-13T10:48:20.000Z</time>
      </trkpt>
      <trkpt lat="49.39261" lon="5.80539">
        <ele>309.39999389648</ele>
        <time>2022-09-13T10:48:21.000Z</time>
      </trkpt>
      <trkpt lat="49.39258" lon="5.80541">
        <ele>310</ele>
        <time>2022-09-13T10:48:22.000Z</time>
      </trkpt>
      <trkpt lat="49.39255" lon="5.80542">
        <ele>310.20001220703</ele>
        <time>2022-09-13T10:48:23.000Z</time>
      </trkpt>
      <trkpt lat="49.39253" lon="5.80544">
        <ele>310.79998779297</ele>
        <time>2022-09-13T10:48:24.000Z</time>
      </trkpt>
      <trkpt lat="49.39251" lon="5.80547">
        <ele>311</ele>
        <time>2022-09-13T10:48:25.000Z</time>
      </trkpt>
      <trkpt lat="49.39248" lon="5.8055">
        <ele>311.39999389648</ele>
        <time>2022-09-13T10:48:26.000Z</time>
      </trkpt>
      <trkpt lat="49.39246" lon="5.80553">
        <ele>311.60000610352</ele>
        <time>2022-09-13T10:48:27.000Z</time>
      </trkpt>
      <trkpt lat="49.39243" lon="5.80556">
        <ele>311.79998779297</ele>
        <time>2022-09-13T10:48:28.000Z</time>
      </trkpt>
      <trkpt lat="49.39241" lon="5.80558">
        <ele>312</ele>
        <time>2022-09-13T10:48:29.000Z</time>
      </trkpt>
      <trkpt lat="49.39239" lon="5.80561">
        <ele>312.20001220703</ele>
        <time>2022-09-13T10:48:30.000Z</time>
      </trkpt>
      <trkpt lat="49.39236" lon="5.80564">
        <ele>312.79998779297</ele>
        <time>2022-09-13T10:48:31.000Z</time>
      </trkpt>
      <trkpt lat="49.39234" lon="5.80567">
        <ele>313</ele>
        <time>2022-09-13T10:48:32.000Z</time>
      </trkpt>
      <trkpt lat="49.39231" lon="5.8057">
        <ele>313.39999389648</ele>
        <time>2022-09-13T10:48:33.000Z</time>
      </trkpt>
      <trkpt lat="49.39228" lon="5.80572">
        <ele>313.79998779297</ele>
        <time>2022-09-13T10:48:34.000Z</time>
      </trkpt>
      <trkpt lat="49.39226" lon="5.80575">
        <ele>314</ele>
        <time>2022-09-13T10:48:35.000Z</time>
      </trkpt>
      <trkpt lat="49.39223" lon="5.80578">
        <ele>314.39999389648</ele>
        <time>2022-09-13T10:48:36.000Z</time>
      </trkpt>
      <trkpt lat="49.39221" lon="5.8058">
        <ele>314.60000610352</ele>
        <time>2022-09-13T10:48:37.000Z</time>
      </trkpt>
      <trkpt lat="49.39218" lon="5.80583">
        <ele>314.79998779297</ele>
        <time>2022-09-13T10:48:38.000Z</time>
      </trkpt>
      <trkpt lat="49.39216" lon="5.80586">
        <ele>315</ele>
        <time>2022-09-13T10:48:39.000Z</time>
      </trkpt>
      <trkpt lat="49.39213" lon="5.80589">
        <ele>315.20001220703</ele>
        <time>2022-09-13T10:48:40.000Z</time>
      </trkpt>
      <trkpt lat="49.39211" lon="5.80591">
        <ele>315.39999389648</ele>
        <time>2022-09-13T10:48:41.000Z</time>
      </trkpt>
      <trkpt lat="49.39209" lon="5.80594">
        <ele>315.60000610352</ele>
        <time>2022-09-13T10:48:42.000Z</time>
      </trkpt>
      <trkpt lat="49.39206" lon="5.80596">
        <ele>315.79998779297</ele>
        <time>2022-09-13T10:48:43.000Z</time>
      </trkpt>
      <trkpt lat="49.39204" lon="5.80598">
        <ele>316</ele>
        <time>2022-09-13T10:48:44.000Z</time>
      </trkpt>
      <trkpt lat="49.39202" lon="5.80601">
        <ele>316.39999389648</ele>
        <time>2022-09-13T10:48:45.000Z</time>
      </trkpt>
      <trkpt lat="49.39199" lon="5.80603">
        <ele>316.60000610352</ele>
        <time>2022-09-13T10:48:46.000Z</time>
      </trkpt>
      <trkpt lat="49.39197" lon="5.80606">
        <ele>316.79998779297</ele>
        <time>2022-09-13T10:48:47.000Z</time>
      </trkpt>
      <trkpt lat="49.39195" lon="5.80608">
        <ele>317.20001220703</ele>
        <time>2022-09-13T10:48:48.000Z</time>
      </trkpt>
      <trkpt lat="49.39192" lon="5.80611">
        <ele>317.39999389648</ele>
        <time>2022-09-13T10:48:49.000Z</time>
      </trkpt>
      <trkpt lat="49.39191" lon="5.80613">
        <ele>317.60000610352</ele>
        <time>2022-09-13T10:48:50.000Z</time>
      </trkpt>
      <trkpt lat="49.39188" lon="5.80615">
        <ele>318</ele>
        <time>2022-09-13T10:48:51.000Z</time>
      </trkpt>
      <trkpt lat="49.39185" lon="5.80618">
        <ele>318.20001220703</ele>
        <time>2022-09-13T10:48:52.000Z</time>
      </trkpt>
      <trkpt lat="49.39183" lon="5.80621">
        <ele>318.39999389648</ele>
        <time>2022-09-13T10:48:53.000Z</time>
      </trkpt>
      <trkpt lat="49.3918" lon="5.80623">
        <ele>318.39999389648</ele>
        <time>2022-09-13T10:48:54.000Z</time>
      </trkpt>
      <trkpt lat="49.39177" lon="5.80625">
        <ele>318.39999389648</ele>
        <time>2022-09-13T10:48:55.000Z</time>
      </trkpt>
      <trkpt lat="49.39175" lon="5.80627">
        <ele>318.60000610352</ele>
        <time>2022-09-13T10:48:56.000Z</time>
      </trkpt>
      <trkpt lat="49.39172" lon="5.80628">
        <ele>318.79998779297</ele>
        <time>2022-09-13T10:48:57.000Z</time>
      </trkpt>
      <trkpt lat="49.39169" lon="5.80629">
        <ele>318.79998779297</ele>
        <time>2022-09-13T10:48:58.000Z</time>
      </trkpt>
      <trkpt lat="49.39166" lon="5.8063">
        <ele>319.20001220703</ele>
        <time>2022-09-13T10:48:59.000Z</time>
      </trkpt>
      <trkpt lat="49.39164" lon="5.8063">
        <ele>319.39999389648</ele>
        <time>2022-09-13T10:49:00.000Z</time>
      </trkpt>
      <trkpt lat="49.39161" lon="5.80631">
        <ele>319.79998779297</ele>
        <time>2022-09-13T10:49:01.000Z</time>
      </trkpt>
      <trkpt lat="49.39159" lon="5.80632">
        <ele>320</ele>
        <time>2022-09-13T10:49:02.000Z</time>
      </trkpt>
      <trkpt lat="49.39156" lon="5.80635">
        <ele>320.20001220703</ele>
        <time>2022-09-13T10:49:03.000Z</time>
      </trkpt>
      <trkpt lat="49.39155" lon="5.80638">
        <ele>320.39999389648</ele>
        <time>2022-09-13T10:49:04.000Z</time>
      </trkpt>
      <trkpt lat="49.39154" lon="5.8064">
        <ele>320.79998779297</ele>
        <time>2022-09-13T10:49:05.000Z</time>
      </trkpt>
      <trkpt lat="49.39154" lon="5.80643">
        <ele>321.20001220703</ele>
        <time>2022-09-13T10:49:06.000Z</time>
      </trkpt>
      <trkpt lat="49.39155" lon="5.80647">
        <ele>321.39999389648</ele>
        <time>2022-09-13T10:49:07.000Z</time>
      </trkpt>
      <trkpt lat="49.39155" lon="5.80651">
        <ele>321.79998779297</ele>
        <time>2022-09-13T10:49:08.000Z</time>
      </trkpt>
      <trkpt lat="49.39156" lon="5.80655">
        <ele>322</ele>
        <time>2022-09-13T10:49:09.000Z</time>
      </trkpt>
      <trkpt lat="49.39157" lon="5.8066">
        <ele>322</ele>
        <time>2022-09-13T10:49:10.000Z</time>
      </trkpt>
      <trkpt lat="49.39158" lon="5.80665">
        <ele>322</ele>
        <time>2022-09-13T10:49:11.000Z</time>
      </trkpt>
      <trkpt lat="49.39159" lon="5.80671">
        <ele>322</ele>
        <time>2022-09-13T10:49:12.000Z</time>
      </trkpt>
      <trkpt lat="49.3916" lon="5.80676">
        <ele>322</ele>
        <time>2022-09-13T10:49:13.000Z</time>
      </trkpt>
      <trkpt lat="49.39162" lon="5.80683">
        <ele>322</ele>
        <time>2022-09-13T10:49:14.000Z</time>
      </trkpt>
      <trkpt lat="49.39162" lon="5.8069">
        <ele>321.60000610352</ele>
        <time>2022-09-13T10:49:15.000Z</time>
      </trkpt>
      <trkpt lat="49.39162" lon="5.80695">
        <ele>321.39999389648</ele>
        <time>2022-09-13T10:49:16.000Z</time>
      </trkpt>
      <trkpt lat="49.39162" lon="5.80703">
        <ele>321.20001220703</ele>
        <time>2022-09-13T10:49:17.000Z</time>
      </trkpt>
      <trkpt lat="49.39161" lon="5.80709">
        <ele>321</ele>
        <time>2022-09-13T10:49:18.000Z</time>
      </trkpt>
      <trkpt lat="49.3916" lon="5.80713">
        <ele>320.39999389648</ele>
        <time>2022-09-13T10:49:19.000Z</time>
      </trkpt>
      <trkpt lat="49.39159" lon="5.80718">
        <ele>320</ele>
        <time>2022-09-13T10:49:20.000Z</time>
      </trkpt>
      <trkpt lat="49.39159" lon="5.80722">
        <ele>320</ele>
        <time>2022-09-13T10:49:21.000Z</time>
      </trkpt>
      <trkpt lat="49.39158" lon="5.80725">
        <ele>319.79998779297</ele>
        <time>2022-09-13T10:49:22.000Z</time>
      </trkpt>
      <trkpt lat="49.39158" lon="5.80729">
        <ele>319.79998779297</ele>
        <time>2022-09-13T10:49:23.000Z</time>
      </trkpt>
      <trkpt lat="49.39158" lon="5.80732">
        <ele>319.60000610352</ele>
        <time>2022-09-13T10:49:24.000Z</time>
      </trkpt>
      <trkpt lat="49.39158" lon="5.80735">
        <ele>319.60000610352</ele>
        <time>2022-09-13T10:49:25.000Z</time>
      </trkpt>
      <trkpt lat="49.39153" lon="5.80748">
        <ele>319.79998779297</ele>
        <time>2022-09-13T10:49:29.000Z</time>
      </trkpt>
      <trkpt lat="49.39153" lon="5.8075">
        <ele>319.79998779297</ele>
        <time>2022-09-13T10:49:30.000Z</time>
      </trkpt>
      <trkpt lat="49.39152" lon="5.80753">
        <ele>319.79998779297</ele>
        <time>2022-09-13T10:49:31.000Z</time>
      </trkpt>
      <trkpt lat="49.39151" lon="5.80756">
        <ele>319.79998779297</ele>
        <time>2022-09-13T10:49:32.000Z</time>
      </trkpt>
      <trkpt lat="49.39151" lon="5.8076">
        <ele>320</ele>
        <time>2022-09-13T10:49:33.000Z</time>
      </trkpt>
      <trkpt lat="49.39151" lon="5.80764">
        <ele>320</ele>
        <time>2022-09-13T10:49:34.000Z</time>
      </trkpt>
      <trkpt lat="49.39151" lon="5.80768">
        <ele>319.79998779297</ele>
        <time>2022-09-13T10:49:35.000Z</time>
      </trkpt>
      <trkpt lat="49.39147" lon="5.80778">
        <ele>320</ele>
        <time>2022-09-13T10:49:37.000Z</time>
      </trkpt>
      <trkpt lat="49.39146" lon="5.80783">
        <ele>320</ele>
        <time>2022-09-13T10:49:38.000Z</time>
      </trkpt>
      <trkpt lat="49.39144" lon="5.80801">
        <ele>319.79998779297</ele>
        <time>2022-09-13T10:49:41.000Z</time>
      </trkpt>
      <trkpt lat="49.39134" lon="5.8085">
        <ele>319.39999389648</ele>
        <time>2022-09-13T10:49:49.000Z</time>
      </trkpt>
      <trkpt lat="49.39132" lon="5.80854">
        <ele>319.39999389648</ele>
        <time>2022-09-13T10:49:50.000Z</time>
      </trkpt>
      <trkpt lat="49.39131" lon="5.80869">
        <ele>319</ele>
        <time>2022-09-13T10:49:53.000Z</time>
      </trkpt>
      <trkpt lat="49.3913" lon="5.80875">
        <ele>318.79998779297</ele>
        <time>2022-09-13T10:49:54.000Z</time>
      </trkpt>
      <trkpt lat="49.39124" lon="5.8092">
        <ele>318</ele>
        <time>2022-09-13T10:49:59.000Z</time>
      </trkpt>
      <trkpt lat="49.39124" lon="5.80938">
        <ele>317.79998779297</ele>
        <time>2022-09-13T10:50:01.000Z</time>
      </trkpt>
      <trkpt lat="49.39123" lon="5.80945">
        <ele>317.79998779297</ele>
        <time>2022-09-13T10:50:02.000Z</time>
      </trkpt>
      <trkpt lat="49.39123" lon="5.80953">
        <ele>317.60000610352</ele>
        <time>2022-09-13T10:50:03.000Z</time>
      </trkpt>
      <trkpt lat="49.39122" lon="5.80963">
        <ele>317.60000610352</ele>
        <time>2022-09-13T10:50:04.000Z</time>
      </trkpt>
      <trkpt lat="49.39124" lon="5.80973">
        <ele>317.20001220703</ele>
        <time>2022-09-13T10:50:05.000Z</time>
      </trkpt>
      <trkpt lat="49.39127" lon="5.80982">
        <ele>317</ele>
        <time>2022-09-13T10:50:06.000Z</time>
      </trkpt>
      <trkpt lat="49.3913" lon="5.80993">
        <ele>316.79998779297</ele>
        <time>2022-09-13T10:50:07.000Z</time>
      </trkpt>
      <trkpt lat="49.39132" lon="5.81004">
        <ele>316.60000610352</ele>
        <time>2022-09-13T10:50:08.000Z</time>
      </trkpt>
      <trkpt lat="49.39134" lon="5.81016">
        <ele>316.20001220703</ele>
        <time>2022-09-13T10:50:09.000Z</time>
      </trkpt>
      <trkpt lat="49.39137" lon="5.81047">
        <ele>315.60000610352</ele>
        <time>2022-09-13T10:50:11.000Z</time>
      </trkpt>
      <trkpt lat="49.39139" lon="5.81064">
        <ele>314.60000610352</ele>
        <time>2022-09-13T10:50:12.000Z</time>
      </trkpt>
      <trkpt lat="49.39141" lon="5.8108">
        <ele>314.39999389648</ele>
        <time>2022-09-13T10:50:13.000Z</time>
      </trkpt>
      <trkpt lat="49.39143" lon="5.81093">
        <ele>313</ele>
        <time>2022-09-13T10:50:14.000Z</time>
      </trkpt>
      <trkpt lat="49.39146" lon="5.81112">
        <ele>311.20001220703</ele>
        <time>2022-09-13T10:50:15.000Z</time>
      </trkpt>
      <trkpt lat="49.39149" lon="5.81128">
        <ele>310.79998779297</ele>
        <time>2022-09-13T10:50:16.000Z</time>
      </trkpt>
      <trkpt lat="49.3915" lon="5.81142">
        <ele>310.39999389648</ele>
        <time>2022-09-13T10:50:17.000Z</time>
      </trkpt>
      <trkpt lat="49.39152" lon="5.81156">
        <ele>309.60000610352</ele>
        <time>2022-09-13T10:50:18.000Z</time>
      </trkpt>
      <trkpt lat="49.39152" lon="5.81169">
        <ele>308.79998779297</ele>
        <time>2022-09-13T10:50:19.000Z</time>
      </trkpt>
      <trkpt lat="49.39154" lon="5.81183">
        <ele>308.60000610352</ele>
        <time>2022-09-13T10:50:20.000Z</time>
      </trkpt>
      <trkpt lat="49.39156" lon="5.81196">
        <ele>307.79998779297</ele>
        <time>2022-09-13T10:50:21.000Z</time>
      </trkpt>
      <trkpt lat="49.39159" lon="5.81213">
        <ele>307.39999389648</ele>
        <time>2022-09-13T10:50:22.000Z</time>
      </trkpt>
      <trkpt lat="49.39162" lon="5.81228">
        <ele>307</ele>
        <time>2022-09-13T10:50:23.000Z</time>
      </trkpt>
      <trkpt lat="49.39165" lon="5.81237">
        <ele>306.39999389648</ele>
        <time>2022-09-13T10:50:24.000Z</time>
      </trkpt>
      <trkpt lat="49.39169" lon="5.81247">
        <ele>306.20001220703</ele>
        <time>2022-09-13T10:50:25.000Z</time>
      </trkpt>
      <trkpt lat="49.39174" lon="5.81255">
        <ele>305.20001220703</ele>
        <time>2022-09-13T10:50:26.000Z</time>
      </trkpt>
      <trkpt lat="49.39179" lon="5.8126">
        <ele>304.79998779297</ele>
        <time>2022-09-13T10:50:27.000Z</time>
      </trkpt>
      <trkpt lat="49.39184" lon="5.81265">
        <ele>304.20001220703</ele>
        <time>2022-09-13T10:50:28.000Z</time>
      </trkpt>
      <trkpt lat="49.39188" lon="5.81271">
        <ele>303.79998779297</ele>
        <time>2022-09-13T10:50:29.000Z</time>
      </trkpt>
      <trkpt lat="49.39193" lon="5.81275">
        <ele>303.20001220703</ele>
        <time>2022-09-13T10:50:30.000Z</time>
      </trkpt>
      <trkpt lat="49.39196" lon="5.81285">
        <ele>302.20001220703</ele>
        <time>2022-09-13T10:50:31.000Z</time>
      </trkpt>
      <trkpt lat="49.39199" lon="5.81291">
        <ele>302</ele>
        <time>2022-09-13T10:50:32.000Z</time>
      </trkpt>
      <trkpt lat="49.39198" lon="5.81298">
        <ele>301.39999389648</ele>
        <time>2022-09-13T10:50:33.000Z</time>
      </trkpt>
      <trkpt lat="49.39196" lon="5.81303">
        <ele>301.20001220703</ele>
        <time>2022-09-13T10:50:34.000Z</time>
      </trkpt>
      <trkpt lat="49.39194" lon="5.81307">
        <ele>300.79998779297</ele>
        <time>2022-09-13T10:50:35.000Z</time>
      </trkpt>
      <trkpt lat="49.39192" lon="5.81309">
        <ele>300.79998779297</ele>
        <time>2022-09-13T10:50:36.000Z</time>
      </trkpt>
      <trkpt lat="49.39192" lon="5.8131">
        <ele>300.60000610352</ele>
        <time>2022-09-13T10:50:37.000Z</time>
      </trkpt>
      <trkpt lat="49.3919" lon="5.81312">
        <ele>300.60000610352</ele>
        <time>2022-09-13T10:50:38.000Z</time>
      </trkpt>
      <trkpt lat="49.39188" lon="5.81315">
        <ele>300.60000610352</ele>
        <time>2022-09-13T10:50:39.000Z</time>
      </trkpt>
      <trkpt lat="49.39187" lon="5.8132">
        <ele>300.60000610352</ele>
        <time>2022-09-13T10:50:40.000Z</time>
      </trkpt>
      <trkpt lat="49.39187" lon="5.81323">
        <ele>300.60000610352</ele>
        <time>2022-09-13T10:50:41.000Z</time>
      </trkpt>
      <trkpt lat="49.39187" lon="5.81327">
        <ele>300.79998779297</ele>
        <time>2022-09-13T10:50:42.000Z</time>
      </trkpt>
      <trkpt lat="49.39187" lon="5.8133">
        <ele>300.79998779297</ele>
        <time>2022-09-13T10:50:43.000Z</time>
      </trkpt>
      <trkpt lat="49.39188" lon="5.81336">
        <ele>301</ele>
        <time>2022-09-13T10:50:44.000Z</time>
      </trkpt>
      <trkpt lat="49.39188" lon="5.81339">
        <ele>301.20001220703</ele>
        <time>2022-09-13T10:50:45.000Z</time>
      </trkpt>
      <trkpt lat="49.39189" lon="5.81342">
        <ele>301.20001220703</ele>
        <time>2022-09-13T10:50:46.000Z</time>
      </trkpt>
      <trkpt lat="49.39187" lon="5.81347">
        <ele>301.20001220703</ele>
        <time>2022-09-13T10:50:47.000Z</time>
      </trkpt>
      <trkpt lat="49.39186" lon="5.81349">
        <ele>301.39999389648</ele>
        <time>2022-09-13T10:50:48.000Z</time>
      </trkpt>
      <trkpt lat="49.39186" lon="5.81353">
        <ele>301.60000610352</ele>
        <time>2022-09-13T10:50:49.000Z</time>
      </trkpt>
      <trkpt lat="49.39184" lon="5.81356">
        <ele>301.60000610352</ele>
        <time>2022-09-13T10:50:50.000Z</time>
      </trkpt>
      <trkpt lat="49.39184" lon="5.81359">
        <ele>301.79998779297</ele>
        <time>2022-09-13T10:50:51.000Z</time>
      </trkpt>
      <trkpt lat="49.39184" lon="5.81365">
        <ele>302.20001220703</ele>
        <time>2022-09-13T10:50:53.000Z</time>
      </trkpt>
      <trkpt lat="49.39184" lon="5.81368">
        <ele>302.60000610352</ele>
        <time>2022-09-13T10:50:54.000Z</time>
      </trkpt>
      <trkpt lat="49.39183" lon="5.81372">
        <ele>302.60000610352</ele>
        <time>2022-09-13T10:50:55.000Z</time>
      </trkpt>
      <trkpt lat="49.39183" lon="5.81376">
        <ele>302.79998779297</ele>
        <time>2022-09-13T10:50:56.000Z</time>
      </trkpt>
      <trkpt lat="49.39182" lon="5.81393">
        <ele>303.39999389648</ele>
        <time>2022-09-13T10:51:00.000Z</time>
      </trkpt>
      <trkpt lat="49.39182" lon="5.81398">
        <ele>303.79998779297</ele>
        <time>2022-09-13T10:51:01.000Z</time>
      </trkpt>
      <trkpt lat="49.39183" lon="5.81404">
        <ele>304</ele>
        <time>2022-09-13T10:51:03.000Z</time>
      </trkpt>
      <trkpt lat="49.39183" lon="5.81412">
        <ele>304.20001220703</ele>
        <time>2022-09-13T10:51:05.000Z</time>
      </trkpt>
      <trkpt lat="49.39182" lon="5.81414">
        <ele>304.39999389648</ele>
        <time>2022-09-13T10:51:06.000Z</time>
      </trkpt>
      <trkpt lat="49.39181" lon="5.81419">
        <ele>304.60000610352</ele>
        <time>2022-09-13T10:51:07.000Z</time>
      </trkpt>
      <trkpt lat="49.39178" lon="5.81439">
        <ele>305.20001220703</ele>
        <time>2022-09-13T10:51:09.000Z</time>
      </trkpt>
      <trkpt lat="49.39177" lon="5.81444">
        <ele>305.39999389648</ele>
        <time>2022-09-13T10:51:10.000Z</time>
      </trkpt>
      <trkpt lat="49.39177" lon="5.81449">
        <ele>305.60000610352</ele>
        <time>2022-09-13T10:51:11.000Z</time>
      </trkpt>
      <trkpt lat="49.39175" lon="5.81456">
        <ele>305.79998779297</ele>
        <time>2022-09-13T10:51:12.000Z</time>
      </trkpt>
      <trkpt lat="49.39174" lon="5.81461">
        <ele>305.79998779297</ele>
        <time>2022-09-13T10:51:13.000Z</time>
      </trkpt>
      <trkpt lat="49.39174" lon="5.81466">
        <ele>306</ele>
        <time>2022-09-13T10:51:14.000Z</time>
      </trkpt>
      <trkpt lat="49.39172" lon="5.81473">
        <ele>306</ele>
        <time>2022-09-13T10:51:15.000Z</time>
      </trkpt>
      <trkpt lat="49.39173" lon="5.81479">
        <ele>306.20001220703</ele>
        <time>2022-09-13T10:51:16.000Z</time>
      </trkpt>
      <trkpt lat="49.39174" lon="5.81486">
        <ele>306.20001220703</ele>
        <time>2022-09-13T10:51:17.000Z</time>
      </trkpt>
      <trkpt lat="49.39174" lon="5.81492">
        <ele>306.20001220703</ele>
        <time>2022-09-13T10:51:18.000Z</time>
      </trkpt>
      <trkpt lat="49.39175" lon="5.81497">
        <ele>306.20001220703</ele>
        <time>2022-09-13T10:51:19.000Z</time>
      </trkpt>
      <trkpt lat="49.39174" lon="5.81502">
        <ele>306.39999389648</ele>
        <time>2022-09-13T10:51:20.000Z</time>
      </trkpt>
      <trkpt lat="49.39173" lon="5.81508">
        <ele>306.39999389648</ele>
        <time>2022-09-13T10:51:21.000Z</time>
      </trkpt>
      <trkpt lat="49.39172" lon="5.81512">
        <ele>306.39999389648</ele>
        <time>2022-09-13T10:51:22.000Z</time>
      </trkpt>
      <trkpt lat="49.39171" lon="5.81517">
        <ele>306.39999389648</ele>
        <time>2022-09-13T10:51:23.000Z</time>
      </trkpt>
      <trkpt lat="49.39172" lon="5.81522">
        <ele>306.79998779297</ele>
        <time>2022-09-13T10:51:24.000Z</time>
      </trkpt>
      <trkpt lat="49.39172" lon="5.81526">
        <ele>306.79998779297</ele>
        <time>2022-09-13T10:51:25.000Z</time>
      </trkpt>
      <trkpt lat="49.39173" lon="5.81529">
        <ele>306.79998779297</ele>
        <time>2022-09-13T10:51:26.000Z</time>
      </trkpt>
      <trkpt lat="49.39172" lon="5.81531">
        <ele>306.79998779297</ele>
        <time>2022-09-13T10:51:27.000Z</time>
      </trkpt>
      <trkpt lat="49.39173" lon="5.81532">
        <ele>306.79998779297</ele>
        <time>2022-09-13T10:51:28.000Z</time>
      </trkpt>
      <trkpt lat="49.39173" lon="5.81534">
        <ele>307</ele>
        <time>2022-09-13T10:51:29.000Z</time>
      </trkpt>
      <trkpt lat="49.39172" lon="5.81536">
        <ele>307</ele>
        <time>2022-09-13T10:51:30.000Z</time>
      </trkpt>
      <trkpt lat="49.39169" lon="5.81539">
        <ele>307.20001220703</ele>
        <time>2022-09-13T10:51:31.000Z</time>
      </trkpt>
      <trkpt lat="49.39168" lon="5.81538">
        <ele>307.39999389648</ele>
        <time>2022-09-13T10:51:32.000Z</time>
      </trkpt>
      <trkpt lat="49.39166" lon="5.8154">
        <ele>307.79998779297</ele>
        <time>2022-09-13T10:51:33.000Z</time>
      </trkpt>
      <trkpt lat="49.39165" lon="5.81542">
        <ele>308.20001220703</ele>
        <time>2022-09-13T10:51:34.000Z</time>
      </trkpt>
      <trkpt lat="49.39164" lon="5.81543">
        <ele>308.79998779297</ele>
        <time>2022-09-13T10:51:35.000Z</time>
      </trkpt>
      <trkpt lat="49.39163" lon="5.81545">
        <ele>308.79998779297</ele>
        <time>2022-09-13T10:51:36.000Z</time>
      </trkpt>
      <trkpt lat="49.39161" lon="5.81546">
        <ele>309.39999389648</ele>
        <time>2022-09-13T10:51:37.000Z</time>
      </trkpt>
      <trkpt lat="49.3916" lon="5.81548">
        <ele>309.79998779297</ele>
        <time>2022-09-13T10:51:38.000Z</time>
      </trkpt>
      <trkpt lat="49.39158" lon="5.81551">
        <ele>310.39999389648</ele>
        <time>2022-09-13T10:51:39.000Z</time>
      </trkpt>
      <trkpt lat="49.39157" lon="5.81553">
        <ele>311.39999389648</ele>
        <time>2022-09-13T10:51:40.000Z</time>
      </trkpt>
      <trkpt lat="49.39155" lon="5.81555">
        <ele>311.60000610352</ele>
        <time>2022-09-13T10:51:41.000Z</time>
      </trkpt>
      <trkpt lat="49.39154" lon="5.81557">
        <ele>312.20001220703</ele>
        <time>2022-09-13T10:51:42.000Z</time>
      </trkpt>
      <trkpt lat="49.39153" lon="5.81559">
        <ele>312.39999389648</ele>
        <time>2022-09-13T10:51:43.000Z</time>
      </trkpt>
      <trkpt lat="49.39151" lon="5.81562">
        <ele>313.20001220703</ele>
        <time>2022-09-13T10:51:44.000Z</time>
      </trkpt>
      <trkpt lat="49.3915" lon="5.81564">
        <ele>313.39999389648</ele>
        <time>2022-09-13T10:51:45.000Z</time>
      </trkpt>
      <trkpt lat="49.39149" lon="5.81567">
        <ele>314</ele>
        <time>2022-09-13T10:51:46.000Z</time>
      </trkpt>
      <trkpt lat="49.39147" lon="5.8157">
        <ele>314.39999389648</ele>
        <time>2022-09-13T10:51:47.000Z</time>
      </trkpt>
      <trkpt lat="49.39146" lon="5.81573">
        <ele>314.60000610352</ele>
        <time>2022-09-13T10:51:48.000Z</time>
      </trkpt>
      <trkpt lat="49.39145" lon="5.81575">
        <ele>315.60000610352</ele>
        <time>2022-09-13T10:51:49.000Z</time>
      </trkpt>
      <trkpt lat="49.39144" lon="5.81577">
        <ele>315.79998779297</ele>
        <time>2022-09-13T10:51:50.000Z</time>
      </trkpt>
      <trkpt lat="49.39142" lon="5.81579">
        <ele>316.20001220703</ele>
        <time>2022-09-13T10:51:51.000Z</time>
      </trkpt>
      <trkpt lat="49.39141" lon="5.81581">
        <ele>316.39999389648</ele>
        <time>2022-09-13T10:51:52.000Z</time>
      </trkpt>
      <trkpt lat="49.3914" lon="5.81583">
        <ele>316.79998779297</ele>
        <time>2022-09-13T10:51:53.000Z</time>
      </trkpt>
      <trkpt lat="49.39139" lon="5.81586">
        <ele>317.20001220703</ele>
        <time>2022-09-13T10:51:54.000Z</time>
      </trkpt>
      <trkpt lat="49.39137" lon="5.8159">
        <ele>317.60000610352</ele>
        <time>2022-09-13T10:51:55.000Z</time>
      </trkpt>
      <trkpt lat="49.39136" lon="5.81591">
        <ele>317.79998779297</ele>
        <time>2022-09-13T10:51:56.000Z</time>
      </trkpt>
      <trkpt lat="49.39136" lon="5.81591">
        <ele>318</ele>
        <time>2022-09-13T10:51:57.000Z</time>
      </trkpt>
      <trkpt lat="49.39135" lon="5.81593">
        <ele>318.39999389648</ele>
        <time>2022-09-13T10:51:58.000Z</time>
      </trkpt>
      <trkpt lat="49.39134" lon="5.81593">
        <ele>318.60000610352</ele>
        <time>2022-09-13T10:51:59.000Z</time>
      </trkpt>
      <trkpt lat="49.39133" lon="5.81595">
        <ele>319.20001220703</ele>
        <time>2022-09-13T10:52:00.000Z</time>
      </trkpt>
      <trkpt lat="49.39133" lon="5.81596">
        <ele>319.39999389648</ele>
        <time>2022-09-13T10:52:01.000Z</time>
      </trkpt>
      <trkpt lat="49.39132" lon="5.81597">
        <ele>319.60000610352</ele>
        <time>2022-09-13T10:52:02.000Z</time>
      </trkpt>
      <trkpt lat="49.3913" lon="5.81598">
        <ele>320</ele>
        <time>2022-09-13T10:52:03.000Z</time>
      </trkpt>
      <trkpt lat="49.39128" lon="5.816">
        <ele>320.39999389648</ele>
        <time>2022-09-13T10:52:04.000Z</time>
      </trkpt>
      <trkpt lat="49.39126" lon="5.81603">
        <ele>320.79998779297</ele>
        <time>2022-09-13T10:52:05.000Z</time>
      </trkpt>
      <trkpt lat="49.39124" lon="5.81605">
        <ele>321</ele>
        <time>2022-09-13T10:52:06.000Z</time>
      </trkpt>
      <trkpt lat="49.39123" lon="5.81608">
        <ele>321.39999389648</ele>
        <time>2022-09-13T10:52:07.000Z</time>
      </trkpt>
      <trkpt lat="49.39122" lon="5.8161">
        <ele>321.60000610352</ele>
        <time>2022-09-13T10:52:08.000Z</time>
      </trkpt>
      <trkpt lat="49.3912" lon="5.81613">
        <ele>321.79998779297</ele>
        <time>2022-09-13T10:52:09.000Z</time>
      </trkpt>
      <trkpt lat="49.39119" lon="5.81615">
        <ele>322.39999389648</ele>
        <time>2022-09-13T10:52:10.000Z</time>
      </trkpt>
      <trkpt lat="49.39118" lon="5.81618">
        <ele>322.60000610352</ele>
        <time>2022-09-13T10:52:11.000Z</time>
      </trkpt>
      <trkpt lat="49.39117" lon="5.81621">
        <ele>323.20001220703</ele>
        <time>2022-09-13T10:52:12.000Z</time>
      </trkpt>
      <trkpt lat="49.39116" lon="5.81624">
        <ele>323.39999389648</ele>
        <time>2022-09-13T10:52:13.000Z</time>
      </trkpt>
      <trkpt lat="49.39115" lon="5.81629">
        <ele>323.79998779297</ele>
        <time>2022-09-13T10:52:14.000Z</time>
      </trkpt>
      <trkpt lat="49.39113" lon="5.81633">
        <ele>324</ele>
        <time>2022-09-13T10:52:15.000Z</time>
      </trkpt>
      <trkpt lat="49.39112" lon="5.81637">
        <ele>324.20001220703</ele>
        <time>2022-09-13T10:52:16.000Z</time>
      </trkpt>
      <trkpt lat="49.39111" lon="5.8164">
        <ele>324.39999389648</ele>
        <time>2022-09-13T10:52:17.000Z</time>
      </trkpt>
      <trkpt lat="49.39109" lon="5.81643">
        <ele>324.60000610352</ele>
        <time>2022-09-13T10:52:18.000Z</time>
      </trkpt>
      <trkpt lat="49.39108" lon="5.81645">
        <ele>325</ele>
        <time>2022-09-13T10:52:19.000Z</time>
      </trkpt>
      <trkpt lat="49.39106" lon="5.81648">
        <ele>325</ele>
        <time>2022-09-13T10:52:20.000Z</time>
      </trkpt>
      <trkpt lat="49.39105" lon="5.81651">
        <ele>325.20001220703</ele>
        <time>2022-09-13T10:52:21.000Z</time>
      </trkpt>
      <trkpt lat="49.39104" lon="5.81656">
        <ele>325.39999389648</ele>
        <time>2022-09-13T10:52:22.000Z</time>
      </trkpt>
      <trkpt lat="49.39103" lon="5.81661">
        <ele>325.39999389648</ele>
        <time>2022-09-13T10:52:23.000Z</time>
      </trkpt>
      <trkpt lat="49.39102" lon="5.81666">
        <ele>325.60000610352</ele>
        <time>2022-09-13T10:52:24.000Z</time>
      </trkpt>
      <trkpt lat="49.39102" lon="5.8167">
        <ele>325.79998779297</ele>
        <time>2022-09-13T10:52:25.000Z</time>
      </trkpt>
      <trkpt lat="49.39103" lon="5.81675">
        <ele>326</ele>
        <time>2022-09-13T10:52:26.000Z</time>
      </trkpt>
      <trkpt lat="49.39103" lon="5.8168">
        <ele>326</ele>
        <time>2022-09-13T10:52:27.000Z</time>
      </trkpt>
      <trkpt lat="49.39103" lon="5.81685">
        <ele>326.20001220703</ele>
        <time>2022-09-13T10:52:28.000Z</time>
      </trkpt>
      <trkpt lat="49.39103" lon="5.81689">
        <ele>326.20001220703</ele>
        <time>2022-09-13T10:52:29.000Z</time>
      </trkpt>
      <trkpt lat="49.39104" lon="5.81692">
        <ele>326.39999389648</ele>
        <time>2022-09-13T10:52:30.000Z</time>
      </trkpt>
      <trkpt lat="49.39102" lon="5.81698">
        <ele>326.60000610352</ele>
        <time>2022-09-13T10:52:31.000Z</time>
      </trkpt>
      <trkpt lat="49.39104" lon="5.81702">
        <ele>326.60000610352</ele>
        <time>2022-09-13T10:52:32.000Z</time>
      </trkpt>
      <trkpt lat="49.39105" lon="5.81706">
        <ele>326.60000610352</ele>
        <time>2022-09-13T10:52:33.000Z</time>
      </trkpt>
      <trkpt lat="49.39106" lon="5.8171">
        <ele>326.60000610352</ele>
        <time>2022-09-13T10:52:34.000Z</time>
      </trkpt>
      <trkpt lat="49.39106" lon="5.81716">
        <ele>326.60000610352</ele>
        <time>2022-09-13T10:52:35.000Z</time>
      </trkpt>
      <trkpt lat="49.39107" lon="5.8172">
        <ele>326.79998779297</ele>
        <time>2022-09-13T10:52:36.000Z</time>
      </trkpt>
      <trkpt lat="49.39107" lon="5.81725">
        <ele>326.79998779297</ele>
        <time>2022-09-13T10:52:37.000Z</time>
      </trkpt>
      <trkpt lat="49.39108" lon="5.81729">
        <ele>326.79998779297</ele>
        <time>2022-09-13T10:52:38.000Z</time>
      </trkpt>
      <trkpt lat="49.3911" lon="5.81734">
        <ele>327</ele>
        <time>2022-09-13T10:52:39.000Z</time>
      </trkpt>
      <trkpt lat="49.3911" lon="5.81739">
        <ele>327</ele>
        <time>2022-09-13T10:52:40.000Z</time>
      </trkpt>
      <trkpt lat="49.3911" lon="5.81744">
        <ele>327.20001220703</ele>
        <time>2022-09-13T10:52:41.000Z</time>
      </trkpt>
      <trkpt lat="49.3911" lon="5.81749">
        <ele>327</ele>
        <time>2022-09-13T10:52:42.000Z</time>
      </trkpt>
      <trkpt lat="49.39111" lon="5.81755">
        <ele>327</ele>
        <time>2022-09-13T10:52:43.000Z</time>
      </trkpt>
      <trkpt lat="49.39111" lon="5.8176">
        <ele>327.20001220703</ele>
        <time>2022-09-13T10:52:44.000Z</time>
      </trkpt>
      <trkpt lat="49.39112" lon="5.81764">
        <ele>327.20001220703</ele>
        <time>2022-09-13T10:52:45.000Z</time>
      </trkpt>
      <trkpt lat="49.39113" lon="5.81768">
        <ele>327.20001220703</ele>
        <time>2022-09-13T10:52:46.000Z</time>
      </trkpt>
      <trkpt lat="49.39112" lon="5.81772">
        <ele>327.20001220703</ele>
        <time>2022-09-13T10:52:47.000Z</time>
      </trkpt>
      <trkpt lat="49.39111" lon="5.81776">
        <ele>327.20001220703</ele>
        <time>2022-09-13T10:52:48.000Z</time>
      </trkpt>
      <trkpt lat="49.39111" lon="5.81779">
        <ele>327.20001220703</ele>
        <time>2022-09-13T10:52:49.000Z</time>
      </trkpt>
      <trkpt lat="49.39112" lon="5.81784">
        <ele>327.20001220703</ele>
        <time>2022-09-13T10:52:50.000Z</time>
      </trkpt>
      <trkpt lat="49.39112" lon="5.81787">
        <ele>327.20001220703</ele>
        <time>2022-09-13T10:52:51.000Z</time>
      </trkpt>
      <trkpt lat="49.39111" lon="5.81791">
        <ele>327.20001220703</ele>
        <time>2022-09-13T10:52:52.000Z</time>
      </trkpt>
      <trkpt lat="49.39112" lon="5.818">
        <ele>327.20001220703</ele>
        <time>2022-09-13T10:52:54.000Z</time>
      </trkpt>
      <trkpt lat="49.39113" lon="5.8182">
        <ele>327.60000610352</ele>
        <time>2022-09-13T10:52:59.000Z</time>
      </trkpt>
      <trkpt lat="49.39114" lon="5.81822">
        <ele>327.79998779297</ele>
        <time>2022-09-13T10:53:00.000Z</time>
      </trkpt>
      <trkpt lat="49.39116" lon="5.81829">
        <ele>328</ele>
        <time>2022-09-13T10:53:02.000Z</time>
      </trkpt>
      <trkpt lat="49.39117" lon="5.81833">
        <ele>328</ele>
        <time>2022-09-13T10:53:03.000Z</time>
      </trkpt>
      <trkpt lat="49.39117" lon="5.81837">
        <ele>328.20001220703</ele>
        <time>2022-09-13T10:53:04.000Z</time>
      </trkpt>
      <trkpt lat="49.39118" lon="5.8184">
        <ele>328.39999389648</ele>
        <time>2022-09-13T10:53:05.000Z</time>
      </trkpt>
      <trkpt lat="49.39118" lon="5.81844">
        <ele>328.39999389648</ele>
        <time>2022-09-13T10:53:06.000Z</time>
      </trkpt>
      <trkpt lat="49.39119" lon="5.81849">
        <ele>328.39999389648</ele>
        <time>2022-09-13T10:53:07.000Z</time>
      </trkpt>
      <trkpt lat="49.39119" lon="5.81853">
        <ele>328.39999389648</ele>
        <time>2022-09-13T10:53:08.000Z</time>
      </trkpt>
      <trkpt lat="49.3912" lon="5.81861">
        <ele>328.60000610352</ele>
        <time>2022-09-13T10:53:10.000Z</time>
      </trkpt>
      <trkpt lat="49.39121" lon="5.81867">
        <ele>328.60000610352</ele>
        <time>2022-09-13T10:53:12.000Z</time>
      </trkpt>
      <trkpt lat="49.39121" lon="5.8187">
        <ele>328.79998779297</ele>
        <time>2022-09-13T10:53:13.000Z</time>
      </trkpt>
      <trkpt lat="49.39124" lon="5.81871">
        <ele>328.79998779297</ele>
        <time>2022-09-13T10:53:14.000Z</time>
      </trkpt>
      <trkpt lat="49.39126" lon="5.81875">
        <ele>328.79998779297</ele>
        <time>2022-09-13T10:53:15.000Z</time>
      </trkpt>
      <trkpt lat="49.3913" lon="5.81889">
        <ele>328.60000610352</ele>
        <time>2022-09-13T10:53:19.000Z</time>
      </trkpt>
      <trkpt lat="49.39132" lon="5.81891">
        <ele>328.60000610352</ele>
        <time>2022-09-13T10:53:20.000Z</time>
      </trkpt>
      <trkpt lat="49.39136" lon="5.81895">
        <ele>328.60000610352</ele>
        <time>2022-09-13T10:53:21.000Z</time>
      </trkpt>
      <trkpt lat="49.39138" lon="5.81899">
        <ele>328.60000610352</ele>
        <time>2022-09-13T10:53:22.000Z</time>
      </trkpt>
      <trkpt lat="49.3914" lon="5.81903">
        <ele>328.60000610352</ele>
        <time>2022-09-13T10:53:23.000Z</time>
      </trkpt>
      <trkpt lat="49.39147" lon="5.81912">
        <ele>328.20001220703</ele>
        <time>2022-09-13T10:53:25.000Z</time>
      </trkpt>
      <trkpt lat="49.39164" lon="5.81923">
        <ele>328</ele>
        <time>2022-09-13T10:53:29.000Z</time>
      </trkpt>
      <trkpt lat="49.39168" lon="5.81922">
        <ele>328</ele>
        <time>2022-09-13T10:53:30.000Z</time>
      </trkpt>
      <trkpt lat="49.39172" lon="5.81922">
        <ele>327.79998779297</ele>
        <time>2022-09-13T10:53:31.000Z</time>
      </trkpt>
      <trkpt lat="49.39177" lon="5.81921">
        <ele>327.60000610352</ele>
        <time>2022-09-13T10:53:32.000Z</time>
      </trkpt>
      <trkpt lat="49.39186" lon="5.81919">
        <ele>326.79998779297</ele>
        <time>2022-09-13T10:53:34.000Z</time>
      </trkpt>
      <trkpt lat="49.39191" lon="5.81917">
        <ele>326.20001220703</ele>
        <time>2022-09-13T10:53:35.000Z</time>
      </trkpt>
      <trkpt lat="49.39203" lon="5.81916">
        <ele>325.60000610352</ele>
        <time>2022-09-13T10:53:37.000Z</time>
      </trkpt>
      <trkpt lat="49.39214" lon="5.81916">
        <ele>324.60000610352</ele>
        <time>2022-09-13T10:53:39.000Z</time>
      </trkpt>
      <trkpt lat="49.39219" lon="5.81919">
        <ele>324.39999389648</ele>
        <time>2022-09-13T10:53:40.000Z</time>
      </trkpt>
      <trkpt lat="49.39223" lon="5.81923">
        <ele>324</ele>
        <time>2022-09-13T10:53:41.000Z</time>
      </trkpt>
      <trkpt lat="49.39227" lon="5.81927">
        <ele>323.39999389648</ele>
        <time>2022-09-13T10:53:42.000Z</time>
      </trkpt>
      <trkpt lat="49.3923" lon="5.81934">
        <ele>323</ele>
        <time>2022-09-13T10:53:43.000Z</time>
      </trkpt>
      <trkpt lat="49.39232" lon="5.81941">
        <ele>322.20001220703</ele>
        <time>2022-09-13T10:53:44.000Z</time>
      </trkpt>
      <trkpt lat="49.39234" lon="5.81945">
        <ele>322</ele>
        <time>2022-09-13T10:53:45.000Z</time>
      </trkpt>
      <trkpt lat="49.39235" lon="5.81949">
        <ele>321.79998779297</ele>
        <time>2022-09-13T10:53:46.000Z</time>
      </trkpt>
      <trkpt lat="49.39235" lon="5.81952">
        <ele>321.60000610352</ele>
        <time>2022-09-13T10:53:47.000Z</time>
      </trkpt>
      <trkpt lat="49.39236" lon="5.81955">
        <ele>320.79998779297</ele>
        <time>2022-09-13T10:53:48.000Z</time>
      </trkpt>
      <trkpt lat="49.39237" lon="5.81958">
        <ele>320.39999389648</ele>
        <time>2022-09-13T10:53:49.000Z</time>
      </trkpt>
      <trkpt lat="49.39237" lon="5.81961">
        <ele>320</ele>
        <time>2022-09-13T10:53:50.000Z</time>
      </trkpt>
      <trkpt lat="49.39238" lon="5.81963">
        <ele>319.60000610352</ele>
        <time>2022-09-13T10:53:51.000Z</time>
      </trkpt>
      <trkpt lat="49.39241" lon="5.81973">
        <ele>319.39999389648</ele>
        <time>2022-09-13T10:53:53.000Z</time>
      </trkpt>
      <trkpt lat="49.39243" lon="5.81977">
        <ele>319.39999389648</ele>
        <time>2022-09-13T10:53:54.000Z</time>
      </trkpt>
      <trkpt lat="49.39243" lon="5.81979">
        <ele>319.20001220703</ele>
        <time>2022-09-13T10:53:55.000Z</time>
      </trkpt>
      <trkpt lat="49.39243" lon="5.81982">
        <ele>319.20001220703</ele>
        <time>2022-09-13T10:53:56.000Z</time>
      </trkpt>
      <trkpt lat="49.39243" lon="5.81983">
        <ele>319.20001220703</ele>
        <time>2022-09-13T10:53:57.000Z</time>
      </trkpt>
      <trkpt lat="49.39244" lon="5.81986">
        <ele>319.20001220703</ele>
        <time>2022-09-13T10:53:58.000Z</time>
      </trkpt>
      <trkpt lat="49.39245" lon="5.8199">
        <ele>319.20001220703</ele>
        <time>2022-09-13T10:53:59.000Z</time>
      </trkpt>
      <trkpt lat="49.39247" lon="5.81993">
        <ele>319.20001220703</ele>
        <time>2022-09-13T10:54:00.000Z</time>
      </trkpt>
      <trkpt lat="49.39249" lon="5.81996">
        <ele>319.20001220703</ele>
        <time>2022-09-13T10:54:01.000Z</time>
      </trkpt>
      <trkpt lat="49.39249" lon="5.81999">
        <ele>319.20001220703</ele>
        <time>2022-09-13T10:54:02.000Z</time>
      </trkpt>
      <trkpt lat="49.39253" lon="5.82008">
        <ele>319.20001220703</ele>
        <time>2022-09-13T10:54:04.000Z</time>
      </trkpt>
      <trkpt lat="49.39266" lon="5.82028">
        <ele>319.20001220703</ele>
        <time>2022-09-13T10:54:09.000Z</time>
      </trkpt>
      <trkpt lat="49.39269" lon="5.82031">
        <ele>319</ele>
        <time>2022-09-13T10:54:10.000Z</time>
      </trkpt>
      <trkpt lat="49.39271" lon="5.82035">
        <ele>319</ele>
        <time>2022-09-13T10:54:11.000Z</time>
      </trkpt>
      <trkpt lat="49.39273" lon="5.82038">
        <ele>319</ele>
        <time>2022-09-13T10:54:12.000Z</time>
      </trkpt>
      <trkpt lat="49.39277" lon="5.82048">
        <ele>318.20001220703</ele>
        <time>2022-09-13T10:54:14.000Z</time>
      </trkpt>
      <trkpt lat="49.39281" lon="5.82054">
        <ele>318</ele>
        <time>2022-09-13T10:54:15.000Z</time>
      </trkpt>
      <trkpt lat="49.39297" lon="5.82084">
        <ele>316.60000610352</ele>
        <time>2022-09-13T10:54:20.000Z</time>
      </trkpt>
      <trkpt lat="49.39301" lon="5.82093">
        <ele>316.20001220703</ele>
        <time>2022-09-13T10:54:21.000Z</time>
      </trkpt>
      <trkpt lat="49.39305" lon="5.82101">
        <ele>316</ele>
        <time>2022-09-13T10:54:22.000Z</time>
      </trkpt>
      <trkpt lat="49.39315" lon="5.82124">
        <ele>315.20001220703</ele>
        <time>2022-09-13T10:54:25.000Z</time>
      </trkpt>
      <trkpt lat="49.39318" lon="5.82132">
        <ele>315</ele>
        <time>2022-09-13T10:54:26.000Z</time>
      </trkpt>
      <trkpt lat="49.39321" lon="5.82139">
        <ele>314.79998779297</ele>
        <time>2022-09-13T10:54:27.000Z</time>
      </trkpt>
      <trkpt lat="49.39324" lon="5.8215">
        <ele>314.60000610352</ele>
        <time>2022-09-13T10:54:28.000Z</time>
      </trkpt>
      <trkpt lat="49.39327" lon="5.82158">
        <ele>314.39999389648</ele>
        <time>2022-09-13T10:54:29.000Z</time>
      </trkpt>
      <trkpt lat="49.3933" lon="5.82163">
        <ele>314.20001220703</ele>
        <time>2022-09-13T10:54:30.000Z</time>
      </trkpt>
      <trkpt lat="49.39332" lon="5.82167">
        <ele>314</ele>
        <time>2022-09-13T10:54:31.000Z</time>
      </trkpt>
      <trkpt lat="49.39334" lon="5.82171">
        <ele>313.60000610352</ele>
        <time>2022-09-13T10:54:32.000Z</time>
      </trkpt>
      <trkpt lat="49.39336" lon="5.82174">
        <ele>313.60000610352</ele>
        <time>2022-09-13T10:54:33.000Z</time>
      </trkpt>
      <trkpt lat="49.39344" lon="5.82186">
        <ele>313</ele>
        <time>2022-09-13T10:54:36.000Z</time>
      </trkpt>
      <trkpt lat="49.39352" lon="5.82204">
        <ele>312.20001220703</ele>
        <time>2022-09-13T10:54:39.000Z</time>
      </trkpt>
      <trkpt lat="49.39353" lon="5.82207">
        <ele>312.20001220703</ele>
        <time>2022-09-13T10:54:40.000Z</time>
      </trkpt>
      <trkpt lat="49.39354" lon="5.8221">
        <ele>312</ele>
        <time>2022-09-13T10:54:41.000Z</time>
      </trkpt>
      <trkpt lat="49.39355" lon="5.82213">
        <ele>312</ele>
        <time>2022-09-13T10:54:42.000Z</time>
      </trkpt>
      <trkpt lat="49.39355" lon="5.82216">
        <ele>311.79998779297</ele>
        <time>2022-09-13T10:54:43.000Z</time>
      </trkpt>
      <trkpt lat="49.39354" lon="5.82217">
        <ele>311.60000610352</ele>
        <time>2022-09-13T10:54:44.000Z</time>
      </trkpt>
      <trkpt lat="49.39353" lon="5.82218">
        <ele>311.39999389648</ele>
        <time>2022-09-13T10:54:45.000Z</time>
      </trkpt>
      <trkpt lat="49.39346" lon="5.82218">
        <ele>311.20001220703</ele>
        <time>2022-09-13T10:54:48.000Z</time>
      </trkpt>
      <trkpt lat="49.39343" lon="5.82219">
        <ele>311</ele>
        <time>2022-09-13T10:54:49.000Z</time>
      </trkpt>
      <trkpt lat="49.39341" lon="5.82221">
        <ele>311</ele>
        <time>2022-09-13T10:54:50.000Z</time>
      </trkpt>
      <trkpt lat="49.39339" lon="5.82222">
        <ele>311</ele>
        <time>2022-09-13T10:54:51.000Z</time>
      </trkpt>
      <trkpt lat="49.39333" lon="5.82222">
        <ele>311.39999389648</ele>
        <time>2022-09-13T10:54:54.000Z</time>
      </trkpt>
      <trkpt lat="49.39331" lon="5.82222">
        <ele>311.79998779297</ele>
        <time>2022-09-13T10:54:55.000Z</time>
      </trkpt>
      <trkpt lat="49.39327" lon="5.82222">
        <ele>312.20001220703</ele>
        <time>2022-09-13T10:54:57.000Z</time>
      </trkpt>
      <trkpt lat="49.39325" lon="5.82222">
        <ele>312.39999389648</ele>
        <time>2022-09-13T10:54:58.000Z</time>
      </trkpt>
      <trkpt lat="49.39323" lon="5.82222">
        <ele>313.39999389648</ele>
        <time>2022-09-13T10:54:59.000Z</time>
      </trkpt>
      <trkpt lat="49.39316" lon="5.8222">
        <ele>314.39999389648</ele>
        <time>2022-09-13T10:55:02.000Z</time>
      </trkpt>
      <trkpt lat="49.39313" lon="5.82218">
        <ele>314.60000610352</ele>
        <time>2022-09-13T10:55:03.000Z</time>
      </trkpt>
      <trkpt lat="49.3931" lon="5.82216">
        <ele>314.79998779297</ele>
        <time>2022-09-13T10:55:04.000Z</time>
      </trkpt>
      <trkpt lat="49.39304" lon="5.82212">
        <ele>315.20001220703</ele>
        <time>2022-09-13T10:55:06.000Z</time>
      </trkpt>
      <trkpt lat="49.39301" lon="5.82214">
        <ele>315.39999389648</ele>
        <time>2022-09-13T10:55:07.000Z</time>
      </trkpt>
      <trkpt lat="49.39298" lon="5.82214">
        <ele>315.79998779297</ele>
        <time>2022-09-13T10:55:08.000Z</time>
      </trkpt>
      <trkpt lat="49.39295" lon="5.82214">
        <ele>316.20001220703</ele>
        <time>2022-09-13T10:55:09.000Z</time>
      </trkpt>
      <trkpt lat="49.39293" lon="5.82214">
        <ele>316.39999389648</ele>
        <time>2022-09-13T10:55:10.000Z</time>
      </trkpt>
      <trkpt lat="49.3929" lon="5.82213">
        <ele>317.20001220703</ele>
        <time>2022-09-13T10:55:11.000Z</time>
      </trkpt>
      <trkpt lat="49.39288" lon="5.82213">
        <ele>317.39999389648</ele>
        <time>2022-09-13T10:55:12.000Z</time>
      </trkpt>
      <trkpt lat="49.39285" lon="5.82212">
        <ele>317.60000610352</ele>
        <time>2022-09-13T10:55:13.000Z</time>
      </trkpt>
      <trkpt lat="49.39282" lon="5.8221">
        <ele>317.60000610352</ele>
        <time>2022-09-13T10:55:14.000Z</time>
      </trkpt>
      <trkpt lat="49.3928" lon="5.82209">
        <ele>317.79998779297</ele>
        <time>2022-09-13T10:55:15.000Z</time>
      </trkpt>
      <trkpt lat="49.39277" lon="5.82208">
        <ele>318.20001220703</ele>
        <time>2022-09-13T10:55:16.000Z</time>
      </trkpt>
      <trkpt lat="49.39276" lon="5.82208">
        <ele>318.60000610352</ele>
        <time>2022-09-13T10:55:17.000Z</time>
      </trkpt>
      <trkpt lat="49.39272" lon="5.82206">
        <ele>319.20001220703</ele>
        <time>2022-09-13T10:55:18.000Z</time>
      </trkpt>
      <trkpt lat="49.39268" lon="5.82203">
        <ele>319.39999389648</ele>
        <time>2022-09-13T10:55:19.000Z</time>
      </trkpt>
      <trkpt lat="49.39266" lon="5.82203">
        <ele>319.60000610352</ele>
        <time>2022-09-13T10:55:20.000Z</time>
      </trkpt>
      <trkpt lat="49.39264" lon="5.82204">
        <ele>319.79998779297</ele>
        <time>2022-09-13T10:55:21.000Z</time>
      </trkpt>
      <trkpt lat="49.39261" lon="5.82203">
        <ele>320.20001220703</ele>
        <time>2022-09-13T10:55:22.000Z</time>
      </trkpt>
      <trkpt lat="49.39259" lon="5.82202">
        <ele>320.39999389648</ele>
        <time>2022-09-13T10:55:23.000Z</time>
      </trkpt>
      <trkpt lat="49.39257" lon="5.822">
        <ele>320.60000610352</ele>
        <time>2022-09-13T10:55:24.000Z</time>
      </trkpt>
      <trkpt lat="49.39254" lon="5.82199">
        <ele>320.79998779297</ele>
        <time>2022-09-13T10:55:25.000Z</time>
      </trkpt>
      <trkpt lat="49.39251" lon="5.82196">
        <ele>321</ele>
        <time>2022-09-13T10:55:26.000Z</time>
      </trkpt>
      <trkpt lat="49.39248" lon="5.82195">
        <ele>321.20001220703</ele>
        <time>2022-09-13T10:55:27.000Z</time>
      </trkpt>
      <trkpt lat="49.39247" lon="5.82194">
        <ele>321.39999389648</ele>
        <time>2022-09-13T10:55:28.000Z</time>
      </trkpt>
      <trkpt lat="49.39245" lon="5.82193">
        <ele>321.60000610352</ele>
        <time>2022-09-13T10:55:29.000Z</time>
      </trkpt>
      <trkpt lat="49.39241" lon="5.82191">
        <ele>321.79998779297</ele>
        <time>2022-09-13T10:55:30.000Z</time>
      </trkpt>
      <trkpt lat="49.39237" lon="5.82188">
        <ele>322</ele>
        <time>2022-09-13T10:55:31.000Z</time>
      </trkpt>
      <trkpt lat="49.39234" lon="5.82187">
        <ele>322.20001220703</ele>
        <time>2022-09-13T10:55:32.000Z</time>
      </trkpt>
      <trkpt lat="49.39232" lon="5.82188">
        <ele>322.20001220703</ele>
        <time>2022-09-13T10:55:33.000Z</time>
      </trkpt>
      <trkpt lat="49.3923" lon="5.82188">
        <ele>322.60000610352</ele>
        <time>2022-09-13T10:55:34.000Z</time>
      </trkpt>
      <trkpt lat="49.39228" lon="5.82186">
        <ele>322.79998779297</ele>
        <time>2022-09-13T10:55:35.000Z</time>
      </trkpt>
      <trkpt lat="49.39225" lon="5.82185">
        <ele>323</ele>
        <time>2022-09-13T10:55:36.000Z</time>
      </trkpt>
      <trkpt lat="49.39223" lon="5.82184">
        <ele>323.20001220703</ele>
        <time>2022-09-13T10:55:37.000Z</time>
      </trkpt>
      <trkpt lat="49.39221" lon="5.82184">
        <ele>323.39999389648</ele>
        <time>2022-09-13T10:55:38.000Z</time>
      </trkpt>
      <trkpt lat="49.39218" lon="5.82183">
        <ele>323.60000610352</ele>
        <time>2022-09-13T10:55:39.000Z</time>
      </trkpt>
      <trkpt lat="49.39215" lon="5.82182">
        <ele>323.79998779297</ele>
        <time>2022-09-13T10:55:40.000Z</time>
      </trkpt>
      <trkpt lat="49.39211" lon="5.82181">
        <ele>324</ele>
        <time>2022-09-13T10:55:41.000Z</time>
      </trkpt>
      <trkpt lat="49.39208" lon="5.82181">
        <ele>324.20001220703</ele>
        <time>2022-09-13T10:55:42.000Z</time>
      </trkpt>
      <trkpt lat="49.39204" lon="5.82181">
        <ele>324.39999389648</ele>
        <time>2022-09-13T10:55:43.000Z</time>
      </trkpt>
      <trkpt lat="49.39201" lon="5.82182">
        <ele>324.39999389648</ele>
        <time>2022-09-13T10:55:44.000Z</time>
      </trkpt>
      <trkpt lat="49.392" lon="5.82182">
        <ele>324.79998779297</ele>
        <time>2022-09-13T10:55:45.000Z</time>
      </trkpt>
      <trkpt lat="49.39198" lon="5.82183">
        <ele>325</ele>
        <time>2022-09-13T10:55:46.000Z</time>
      </trkpt>
      <trkpt lat="49.39196" lon="5.82183">
        <ele>325</ele>
        <time>2022-09-13T10:55:47.000Z</time>
      </trkpt>
      <trkpt lat="49.39193" lon="5.82183">
        <ele>325</ele>
        <time>2022-09-13T10:55:48.000Z</time>
      </trkpt>
      <trkpt lat="49.3919" lon="5.82181">
        <ele>325.20001220703</ele>
        <time>2022-09-13T10:55:49.000Z</time>
      </trkpt>
      <trkpt lat="49.39186" lon="5.82181">
        <ele>325.20001220703</ele>
        <time>2022-09-13T10:55:50.000Z</time>
      </trkpt>
      <trkpt lat="49.39184" lon="5.82182">
        <ele>325.20001220703</ele>
        <time>2022-09-13T10:55:51.000Z</time>
      </trkpt>
      <trkpt lat="49.39181" lon="5.82183">
        <ele>325.60000610352</ele>
        <time>2022-09-13T10:55:52.000Z</time>
      </trkpt>
      <trkpt lat="49.39177" lon="5.82183">
        <ele>325.79998779297</ele>
        <time>2022-09-13T10:55:53.000Z</time>
      </trkpt>
      <trkpt lat="49.39174" lon="5.82183">
        <ele>326</ele>
        <time>2022-09-13T10:55:54.000Z</time>
      </trkpt>
      <trkpt lat="49.39172" lon="5.82183">
        <ele>326.20001220703</ele>
        <time>2022-09-13T10:55:55.000Z</time>
      </trkpt>
      <trkpt lat="49.3917" lon="5.82183">
        <ele>326.39999389648</ele>
        <time>2022-09-13T10:55:56.000Z</time>
      </trkpt>
      <trkpt lat="49.39168" lon="5.82184">
        <ele>326.60000610352</ele>
        <time>2022-09-13T10:55:57.000Z</time>
      </trkpt>
      <trkpt lat="49.39166" lon="5.82185">
        <ele>326.79998779297</ele>
        <time>2022-09-13T10:55:58.000Z</time>
      </trkpt>
      <trkpt lat="49.39163" lon="5.82185">
        <ele>327</ele>
        <time>2022-09-13T10:55:59.000Z</time>
      </trkpt>
      <trkpt lat="49.39161" lon="5.82186">
        <ele>327.20001220703</ele>
        <time>2022-09-13T10:56:00.000Z</time>
      </trkpt>
      <trkpt lat="49.39159" lon="5.82185">
        <ele>327.39999389648</ele>
        <time>2022-09-13T10:56:01.000Z</time>
      </trkpt>
      <trkpt lat="49.39155" lon="5.82184">
        <ele>327.60000610352</ele>
        <time>2022-09-13T10:56:02.000Z</time>
      </trkpt>
      <trkpt lat="49.39152" lon="5.82182">
        <ele>327.79998779297</ele>
        <time>2022-09-13T10:56:03.000Z</time>
      </trkpt>
      <trkpt lat="49.39148" lon="5.8218">
        <ele>328</ele>
        <time>2022-09-13T10:56:04.000Z</time>
      </trkpt>
      <trkpt lat="49.39146" lon="5.82178">
        <ele>328.20001220703</ele>
        <time>2022-09-13T10:56:05.000Z</time>
      </trkpt>
      <trkpt lat="49.39142" lon="5.82176">
        <ele>328.60000610352</ele>
        <time>2022-09-13T10:56:06.000Z</time>
      </trkpt>
      <trkpt lat="49.39139" lon="5.82174">
        <ele>328.79998779297</ele>
        <time>2022-09-13T10:56:07.000Z</time>
      </trkpt>
      <trkpt lat="49.39136" lon="5.82175">
        <ele>329</ele>
        <time>2022-09-13T10:56:08.000Z</time>
      </trkpt>
      <trkpt lat="49.39134" lon="5.82175">
        <ele>329.39999389648</ele>
        <time>2022-09-13T10:56:09.000Z</time>
      </trkpt>
      <trkpt lat="49.39131" lon="5.82175">
        <ele>329.39999389648</ele>
        <time>2022-09-13T10:56:10.000Z</time>
      </trkpt>
      <trkpt lat="49.39129" lon="5.82176">
        <ele>329.60000610352</ele>
        <time>2022-09-13T10:56:11.000Z</time>
      </trkpt>
      <trkpt lat="49.39127" lon="5.82176">
        <ele>329.79998779297</ele>
        <time>2022-09-13T10:56:12.000Z</time>
      </trkpt>
      <trkpt lat="49.39124" lon="5.82177">
        <ele>330</ele>
        <time>2022-09-13T10:56:13.000Z</time>
      </trkpt>
      <trkpt lat="49.39122" lon="5.82178">
        <ele>330.20001220703</ele>
        <time>2022-09-13T10:56:14.000Z</time>
      </trkpt>
      <trkpt lat="49.39119" lon="5.82178">
        <ele>330.39999389648</ele>
        <time>2022-09-13T10:56:15.000Z</time>
      </trkpt>
      <trkpt lat="49.39116" lon="5.8218">
        <ele>330.60000610352</ele>
        <time>2022-09-13T10:56:16.000Z</time>
      </trkpt>
      <trkpt lat="49.39113" lon="5.82183">
        <ele>330.79998779297</ele>
        <time>2022-09-13T10:56:17.000Z</time>
      </trkpt>
      <trkpt lat="49.39111" lon="5.82185">
        <ele>331</ele>
        <time>2022-09-13T10:56:18.000Z</time>
      </trkpt>
      <trkpt lat="49.39108" lon="5.82187">
        <ele>331.20001220703</ele>
        <time>2022-09-13T10:56:19.000Z</time>
      </trkpt>
      <trkpt lat="49.39106" lon="5.8219">
        <ele>331.39999389648</ele>
        <time>2022-09-13T10:56:20.000Z</time>
      </trkpt>
      <trkpt lat="49.39104" lon="5.82192">
        <ele>331.60000610352</ele>
        <time>2022-09-13T10:56:21.000Z</time>
      </trkpt>
      <trkpt lat="49.39101" lon="5.82195">
        <ele>331.60000610352</ele>
        <time>2022-09-13T10:56:22.000Z</time>
      </trkpt>
      <trkpt lat="49.39098" lon="5.82197">
        <ele>331.79998779297</ele>
        <time>2022-09-13T10:56:23.000Z</time>
      </trkpt>
      <trkpt lat="49.39096" lon="5.82198">
        <ele>331.79998779297</ele>
        <time>2022-09-13T10:56:24.000Z</time>
      </trkpt>
      <trkpt lat="49.39095" lon="5.82199">
        <ele>331.79998779297</ele>
        <time>2022-09-13T10:56:25.000Z</time>
      </trkpt>
      <trkpt lat="49.39092" lon="5.82201">
        <ele>332</ele>
        <time>2022-09-13T10:56:26.000Z</time>
      </trkpt>
      <trkpt lat="49.39091" lon="5.82205">
        <ele>332</ele>
        <time>2022-09-13T10:56:27.000Z</time>
      </trkpt>
      <trkpt lat="49.39089" lon="5.82207">
        <ele>332.20001220703</ele>
        <time>2022-09-13T10:56:28.000Z</time>
      </trkpt>
      <trkpt lat="49.39087" lon="5.82211">
        <ele>332.39999389648</ele>
        <time>2022-09-13T10:56:29.000Z</time>
      </trkpt>
      <trkpt lat="49.39085" lon="5.82213">
        <ele>332.39999389648</ele>
        <time>2022-09-13T10:56:30.000Z</time>
      </trkpt>
      <trkpt lat="49.39082" lon="5.82216">
        <ele>332.39999389648</ele>
        <time>2022-09-13T10:56:31.000Z</time>
      </trkpt>
      <trkpt lat="49.3908" lon="5.8222">
        <ele>332.60000610352</ele>
        <time>2022-09-13T10:56:32.000Z</time>
      </trkpt>
      <trkpt lat="49.39079" lon="5.82224">
        <ele>332.60000610352</ele>
        <time>2022-09-13T10:56:33.000Z</time>
      </trkpt>
      <trkpt lat="49.39077" lon="5.82229">
        <ele>332.60000610352</ele>
        <time>2022-09-13T10:56:34.000Z</time>
      </trkpt>
      <trkpt lat="49.39075" lon="5.82232">
        <ele>332.60000610352</ele>
        <time>2022-09-13T10:56:35.000Z</time>
      </trkpt>
      <trkpt lat="49.39072" lon="5.82236">
        <ele>332.39999389648</ele>
        <time>2022-09-13T10:56:36.000Z</time>
      </trkpt>
      <trkpt lat="49.3907" lon="5.82239">
        <ele>332.60000610352</ele>
        <time>2022-09-13T10:56:37.000Z</time>
      </trkpt>
      <trkpt lat="49.39067" lon="5.8224">
        <ele>332.39999389648</ele>
        <time>2022-09-13T10:56:38.000Z</time>
      </trkpt>
      <trkpt lat="49.39065" lon="5.82244">
        <ele>332.39999389648</ele>
        <time>2022-09-13T10:56:39.000Z</time>
      </trkpt>
      <trkpt lat="49.39062" lon="5.82249">
        <ele>332.39999389648</ele>
        <time>2022-09-13T10:56:40.000Z</time>
      </trkpt>
      <trkpt lat="49.3906" lon="5.82252">
        <ele>332.39999389648</ele>
        <time>2022-09-13T10:56:41.000Z</time>
      </trkpt>
      <trkpt lat="49.39058" lon="5.82255">
        <ele>332.39999389648</ele>
        <time>2022-09-13T10:56:42.000Z</time>
      </trkpt>
      <trkpt lat="49.39056" lon="5.82257">
        <ele>332.39999389648</ele>
        <time>2022-09-13T10:56:43.000Z</time>
      </trkpt>
      <trkpt lat="49.39052" lon="5.82262">
        <ele>332.39999389648</ele>
        <time>2022-09-13T10:56:45.000Z</time>
      </trkpt>
      <trkpt lat="49.3905" lon="5.82265">
        <ele>332.39999389648</ele>
        <time>2022-09-13T10:56:46.000Z</time>
      </trkpt>
      <trkpt lat="49.39048" lon="5.82269">
        <ele>332.39999389648</ele>
        <time>2022-09-13T10:56:47.000Z</time>
      </trkpt>
      <trkpt lat="49.39046" lon="5.82271">
        <ele>332.20001220703</ele>
        <time>2022-09-13T10:56:48.000Z</time>
      </trkpt>
      <trkpt lat="49.39044" lon="5.82274">
        <ele>332.20001220703</ele>
        <time>2022-09-13T10:56:49.000Z</time>
      </trkpt>
      <trkpt lat="49.39041" lon="5.82274">
        <ele>332</ele>
        <time>2022-09-13T10:56:50.000Z</time>
      </trkpt>
      <trkpt lat="49.39039" lon="5.82277">
        <ele>332</ele>
        <time>2022-09-13T10:56:51.000Z</time>
      </trkpt>
      <trkpt lat="49.39027" lon="5.8229">
        <ele>331.60000610352</ele>
        <time>2022-09-13T10:56:56.000Z</time>
      </trkpt>
      <trkpt lat="49.39024" lon="5.82297">
        <ele>331.60000610352</ele>
        <time>2022-09-13T10:56:58.000Z</time>
      </trkpt>
      <trkpt lat="49.39024" lon="5.82301">
        <ele>331.60000610352</ele>
        <time>2022-09-13T10:56:59.000Z</time>
      </trkpt>
      <trkpt lat="49.39023" lon="5.82306">
        <ele>331.39999389648</ele>
        <time>2022-09-13T10:57:00.000Z</time>
      </trkpt>
      <trkpt lat="49.39024" lon="5.82309">
        <ele>331.39999389648</ele>
        <time>2022-09-13T10:57:01.000Z</time>
      </trkpt>
      <trkpt lat="49.39024" lon="5.82314">
        <ele>331.39999389648</ele>
        <time>2022-09-13T10:57:02.000Z</time>
      </trkpt>
      <trkpt lat="49.39019" lon="5.82333">
        <ele>330.79998779297</ele>
        <time>2022-09-13T10:57:05.000Z</time>
      </trkpt>
      <trkpt lat="49.39017" lon="5.8234">
        <ele>330.20001220703</ele>
        <time>2022-09-13T10:57:06.000Z</time>
      </trkpt>
      <trkpt lat="49.39004" lon="5.82387">
        <ele>329</ele>
        <time>2022-09-13T10:57:11.000Z</time>
      </trkpt>
      <trkpt lat="49.38995" lon="5.8242">
        <ele>327.79998779297</ele>
        <time>2022-09-13T10:57:14.000Z</time>
      </trkpt>
      <trkpt lat="49.38992" lon="5.82429">
        <ele>327.39999389648</ele>
        <time>2022-09-13T10:57:15.000Z</time>
      </trkpt>
      <trkpt lat="49.38988" lon="5.82448">
        <ele>326</ele>
        <time>2022-09-13T10:57:17.000Z</time>
      </trkpt>
      <trkpt lat="49.38981" lon="5.82464">
        <ele>325</ele>
        <time>2022-09-13T10:57:19.000Z</time>
      </trkpt>
      <trkpt lat="49.38977" lon="5.82469">
        <ele>324.60000610352</ele>
        <time>2022-09-13T10:57:20.000Z</time>
      </trkpt>
      <trkpt lat="49.38971" lon="5.82475">
        <ele>324.39999389648</ele>
        <time>2022-09-13T10:57:21.000Z</time>
      </trkpt>
      <trkpt lat="49.38967" lon="5.82478">
        <ele>323</ele>
        <time>2022-09-13T10:57:22.000Z</time>
      </trkpt>
      <trkpt lat="49.38963" lon="5.82481">
        <ele>322</ele>
        <time>2022-09-13T10:57:23.000Z</time>
      </trkpt>
      <trkpt lat="49.38962" lon="5.82486">
        <ele>320.20001220703</ele>
        <time>2022-09-13T10:57:24.000Z</time>
      </trkpt>
      <trkpt lat="49.38963" lon="5.82491">
        <ele>319.79998779297</ele>
        <time>2022-09-13T10:57:25.000Z</time>
      </trkpt>
      <trkpt lat="49.38965" lon="5.82496">
        <ele>319.20001220703</ele>
        <time>2022-09-13T10:57:26.000Z</time>
      </trkpt>
      <trkpt lat="49.38968" lon="5.825">
        <ele>318.60000610352</ele>
        <time>2022-09-13T10:57:27.000Z</time>
      </trkpt>
      <trkpt lat="49.38969" lon="5.82505">
        <ele>318.60000610352</ele>
        <time>2022-09-13T10:57:28.000Z</time>
      </trkpt>
      <trkpt lat="49.38969" lon="5.8251">
        <ele>318.39999389648</ele>
        <time>2022-09-13T10:57:29.000Z</time>
      </trkpt>
      <trkpt lat="49.38969" lon="5.82515">
        <ele>318</ele>
        <time>2022-09-13T10:57:30.000Z</time>
      </trkpt>
      <trkpt lat="49.38967" lon="5.82519">
        <ele>317.39999389648</ele>
        <time>2022-09-13T10:57:31.000Z</time>
      </trkpt>
      <trkpt lat="49.38967" lon="5.82524">
        <ele>317.39999389648</ele>
        <time>2022-09-13T10:57:32.000Z</time>
      </trkpt>
      <trkpt lat="49.38966" lon="5.82528">
        <ele>317</ele>
        <time>2022-09-13T10:57:33.000Z</time>
      </trkpt>
      <trkpt lat="49.38966" lon="5.82532">
        <ele>316.39999389648</ele>
        <time>2022-09-13T10:57:34.000Z</time>
      </trkpt>
      <trkpt lat="49.38966" lon="5.82534">
        <ele>316.20001220703</ele>
        <time>2022-09-13T10:57:35.000Z</time>
      </trkpt>
      <trkpt lat="49.38968" lon="5.82537">
        <ele>315.79998779297</ele>
        <time>2022-09-13T10:57:36.000Z</time>
      </trkpt>
      <trkpt lat="49.38969" lon="5.82541">
        <ele>315.60000610352</ele>
        <time>2022-09-13T10:57:37.000Z</time>
      </trkpt>
      <trkpt lat="49.3897" lon="5.82545">
        <ele>315.39999389648</ele>
        <time>2022-09-13T10:57:38.000Z</time>
      </trkpt>
      <trkpt lat="49.38971" lon="5.82556">
        <ele>315</ele>
        <time>2022-09-13T10:57:40.000Z</time>
      </trkpt>
      <trkpt lat="49.38972" lon="5.82565">
        <ele>314.79998779297</ele>
        <time>2022-09-13T10:57:42.000Z</time>
      </trkpt>
      <trkpt lat="49.38973" lon="5.82597">
        <ele>315</ele>
        <time>2022-09-13T10:57:48.000Z</time>
      </trkpt>
      <trkpt lat="49.38975" lon="5.82604">
        <ele>315.20001220703</ele>
        <time>2022-09-13T10:57:50.000Z</time>
      </trkpt>
      <trkpt lat="49.38976" lon="5.82609">
        <ele>315.20001220703</ele>
        <time>2022-09-13T10:57:51.000Z</time>
      </trkpt>
      <trkpt lat="49.38977" lon="5.82615">
        <ele>315.39999389648</ele>
        <time>2022-09-13T10:57:52.000Z</time>
      </trkpt>
      <trkpt lat="49.38979" lon="5.8262">
        <ele>315.60000610352</ele>
        <time>2022-09-13T10:57:53.000Z</time>
      </trkpt>
      <trkpt lat="49.3898" lon="5.82624">
        <ele>315.79998779297</ele>
        <time>2022-09-13T10:57:54.000Z</time>
      </trkpt>
      <trkpt lat="49.38981" lon="5.82628">
        <ele>316</ele>
        <time>2022-09-13T10:57:55.000Z</time>
      </trkpt>
      <trkpt lat="49.3898" lon="5.82634">
        <ele>316.39999389648</ele>
        <time>2022-09-13T10:57:56.000Z</time>
      </trkpt>
      <trkpt lat="49.38981" lon="5.82641">
        <ele>316.60000610352</ele>
        <time>2022-09-13T10:57:57.000Z</time>
      </trkpt>
      <trkpt lat="49.38982" lon="5.82644">
        <ele>316.79998779297</ele>
        <time>2022-09-13T10:57:58.000Z</time>
      </trkpt>
      <trkpt lat="49.38984" lon="5.82649">
        <ele>317</ele>
        <time>2022-09-13T10:57:59.000Z</time>
      </trkpt>
      <trkpt lat="49.38986" lon="5.82655">
        <ele>317</ele>
        <time>2022-09-13T10:58:00.000Z</time>
      </trkpt>
      <trkpt lat="49.38986" lon="5.8266">
        <ele>317.20001220703</ele>
        <time>2022-09-13T10:58:01.000Z</time>
      </trkpt>
      <trkpt lat="49.38986" lon="5.82664">
        <ele>317.20001220703</ele>
        <time>2022-09-13T10:58:02.000Z</time>
      </trkpt>
      <trkpt lat="49.38987" lon="5.82667">
        <ele>317.39999389648</ele>
        <time>2022-09-13T10:58:03.000Z</time>
      </trkpt>
      <trkpt lat="49.38987" lon="5.8267">
        <ele>317.39999389648</ele>
        <time>2022-09-13T10:58:04.000Z</time>
      </trkpt>
      <trkpt lat="49.38988" lon="5.82672">
        <ele>317.39999389648</ele>
        <time>2022-09-13T10:58:05.000Z</time>
      </trkpt>
      <trkpt lat="49.3899" lon="5.82675">
        <ele>317.60000610352</ele>
        <time>2022-09-13T10:58:06.000Z</time>
      </trkpt>
      <trkpt lat="49.38992" lon="5.82686">
        <ele>318</ele>
        <time>2022-09-13T10:58:10.000Z</time>
      </trkpt>
      <trkpt lat="49.38988" lon="5.82692">
        <ele>318</ele>
        <time>2022-09-13T10:58:11.000Z</time>
      </trkpt>
      <trkpt lat="49.38989" lon="5.82696">
        <ele>318</ele>
        <time>2022-09-13T10:58:12.000Z</time>
      </trkpt>
      <trkpt lat="49.38991" lon="5.82701">
        <ele>318.20001220703</ele>
        <time>2022-09-13T10:58:13.000Z</time>
      </trkpt>
      <trkpt lat="49.38993" lon="5.82706">
        <ele>318.20001220703</ele>
        <time>2022-09-13T10:58:14.000Z</time>
      </trkpt>
      <trkpt lat="49.38993" lon="5.8271">
        <ele>318.39999389648</ele>
        <time>2022-09-13T10:58:15.000Z</time>
      </trkpt>
      <trkpt lat="49.38995" lon="5.82714">
        <ele>318.39999389648</ele>
        <time>2022-09-13T10:58:16.000Z</time>
      </trkpt>
      <trkpt lat="49.38995" lon="5.82718">
        <ele>318.39999389648</ele>
        <time>2022-09-13T10:58:17.000Z</time>
      </trkpt>
      <trkpt lat="49.38996" lon="5.82722">
        <ele>318.39999389648</ele>
        <time>2022-09-13T10:58:18.000Z</time>
      </trkpt>
      <trkpt lat="49.38999" lon="5.82734">
        <ele>318.60000610352</ele>
        <time>2022-09-13T10:58:20.000Z</time>
      </trkpt>
      <trkpt lat="49.39002" lon="5.82745">
        <ele>318.79998779297</ele>
        <time>2022-09-13T10:58:23.000Z</time>
      </trkpt>
      <trkpt lat="49.39005" lon="5.82752">
        <ele>318.79998779297</ele>
        <time>2022-09-13T10:58:25.000Z</time>
      </trkpt>
      <trkpt lat="49.39015" lon="5.82774">
        <ele>318.79998779297</ele>
        <time>2022-09-13T10:58:28.000Z</time>
      </trkpt>
      <trkpt lat="49.39019" lon="5.82781">
        <ele>318.60000610352</ele>
        <time>2022-09-13T10:58:29.000Z</time>
      </trkpt>
      <trkpt lat="49.39022" lon="5.82791">
        <ele>318.39999389648</ele>
        <time>2022-09-13T10:58:31.000Z</time>
      </trkpt>
      <trkpt lat="49.39021" lon="5.82797">
        <ele>318.39999389648</ele>
        <time>2022-09-13T10:58:32.000Z</time>
      </trkpt>
      <trkpt lat="49.3902" lon="5.82802">
        <ele>318</ele>
        <time>2022-09-13T10:58:33.000Z</time>
      </trkpt>
      <trkpt lat="49.39019" lon="5.8281">
        <ele>318</ele>
        <time>2022-09-13T10:58:34.000Z</time>
      </trkpt>
      <trkpt lat="49.39019" lon="5.82817">
        <ele>317.79998779297</ele>
        <time>2022-09-13T10:58:35.000Z</time>
      </trkpt>
      <trkpt lat="49.3902" lon="5.82822">
        <ele>317.39999389648</ele>
        <time>2022-09-13T10:58:36.000Z</time>
      </trkpt>
      <trkpt lat="49.39019" lon="5.8283">
        <ele>317</ele>
        <time>2022-09-13T10:58:37.000Z</time>
      </trkpt>
      <trkpt lat="49.39019" lon="5.82835">
        <ele>316.39999389648</ele>
        <time>2022-09-13T10:58:38.000Z</time>
      </trkpt>
      <trkpt lat="49.39019" lon="5.82841">
        <ele>316.20001220703</ele>
        <time>2022-09-13T10:58:39.000Z</time>
      </trkpt>
      <trkpt lat="49.39019" lon="5.82847">
        <ele>315.60000610352</ele>
        <time>2022-09-13T10:58:40.000Z</time>
      </trkpt>
      <trkpt lat="49.39018" lon="5.82851">
        <ele>315.20001220703</ele>
        <time>2022-09-13T10:58:41.000Z</time>
      </trkpt>
      <trkpt lat="49.39017" lon="5.82855">
        <ele>314.39999389648</ele>
        <time>2022-09-13T10:58:42.000Z</time>
      </trkpt>
      <trkpt lat="49.39017" lon="5.82858">
        <ele>313.39999389648</ele>
        <time>2022-09-13T10:58:43.000Z</time>
      </trkpt>
      <trkpt lat="49.39016" lon="5.82858">
        <ele>312.79998779297</ele>
        <time>2022-09-13T10:58:44.000Z</time>
      </trkpt>
      <trkpt lat="49.39015" lon="5.82859">
        <ele>312</ele>
        <time>2022-09-13T10:58:45.000Z</time>
      </trkpt>
      <trkpt lat="49.39014" lon="5.8286">
        <ele>311.60000610352</ele>
        <time>2022-09-13T10:58:46.000Z</time>
      </trkpt>
      <trkpt lat="49.39013" lon="5.82862">
        <ele>311.20001220703</ele>
        <time>2022-09-13T10:58:47.000Z</time>
      </trkpt>
      <trkpt lat="49.39011" lon="5.82864">
        <ele>311.20001220703</ele>
        <time>2022-09-13T10:58:48.000Z</time>
      </trkpt>
      <trkpt lat="49.39003" lon="5.82872">
        <ele>311.20001220703</ele>
        <time>2022-09-13T10:58:52.000Z</time>
      </trkpt>
      <trkpt lat="49.38992" lon="5.82878">
        <ele>312.60000610352</ele>
        <time>2022-09-13T10:58:56.000Z</time>
      </trkpt>
      <trkpt lat="49.38991" lon="5.82878">
        <ele>312.79998779297</ele>
        <time>2022-09-13T10:58:57.000Z</time>
      </trkpt>
      <trkpt lat="49.38988" lon="5.82878">
        <ele>313.39999389648</ele>
        <time>2022-09-13T10:58:58.000Z</time>
      </trkpt>
      <trkpt lat="49.38986" lon="5.82877">
        <ele>314</ele>
        <time>2022-09-13T10:58:59.000Z</time>
      </trkpt>
      <trkpt lat="49.38982" lon="5.8288">
        <ele>314.79998779297</ele>
        <time>2022-09-13T10:59:01.000Z</time>
      </trkpt>
      <trkpt lat="49.3898" lon="5.82883">
        <ele>315.20001220703</ele>
        <time>2022-09-13T10:59:02.000Z</time>
      </trkpt>
      <trkpt lat="49.38979" lon="5.82885">
        <ele>315.79998779297</ele>
        <time>2022-09-13T10:59:03.000Z</time>
      </trkpt>
      <trkpt lat="49.38976" lon="5.82887">
        <ele>316</ele>
        <time>2022-09-13T10:59:04.000Z</time>
      </trkpt>
      <trkpt lat="49.38973" lon="5.82891">
        <ele>316.39999389648</ele>
        <time>2022-09-13T10:59:05.000Z</time>
      </trkpt>
      <trkpt lat="49.38971" lon="5.82894">
        <ele>316.60000610352</ele>
        <time>2022-09-13T10:59:06.000Z</time>
      </trkpt>
      <trkpt lat="49.3897" lon="5.82895">
        <ele>316.79998779297</ele>
        <time>2022-09-13T10:59:07.000Z</time>
      </trkpt>
      <trkpt lat="49.38968" lon="5.82896">
        <ele>316.79998779297</ele>
        <time>2022-09-13T10:59:08.000Z</time>
      </trkpt>
      <trkpt lat="49.38966" lon="5.82897">
        <ele>316.79998779297</ele>
        <time>2022-09-13T10:59:09.000Z</time>
      </trkpt>
      <trkpt lat="49.38965" lon="5.82898">
        <ele>317</ele>
        <time>2022-09-13T10:59:10.000Z</time>
      </trkpt>
      <trkpt lat="49.38963" lon="5.829">
        <ele>317</ele>
        <time>2022-09-13T10:59:11.000Z</time>
      </trkpt>
      <trkpt lat="49.38961" lon="5.82901">
        <ele>317</ele>
        <time>2022-09-13T10:59:12.000Z</time>
      </trkpt>
      <trkpt lat="49.3896" lon="5.82902">
        <ele>317</ele>
        <time>2022-09-13T10:59:13.000Z</time>
      </trkpt>
      <trkpt lat="49.38957" lon="5.82902">
        <ele>317</ele>
        <time>2022-09-13T10:59:14.000Z</time>
      </trkpt>
      <trkpt lat="49.38954" lon="5.82903">
        <ele>317</ele>
        <time>2022-09-13T10:59:15.000Z</time>
      </trkpt>
      <trkpt lat="49.38951" lon="5.82902">
        <ele>317</ele>
        <time>2022-09-13T10:59:16.000Z</time>
      </trkpt>
      <trkpt lat="49.38948" lon="5.82901">
        <ele>316.79998779297</ele>
        <time>2022-09-13T10:59:17.000Z</time>
      </trkpt>
      <trkpt lat="49.38944" lon="5.82901">
        <ele>316.60000610352</ele>
        <time>2022-09-13T10:59:18.000Z</time>
      </trkpt>
      <trkpt lat="49.38939" lon="5.829">
        <ele>316.60000610352</ele>
        <time>2022-09-13T10:59:19.000Z</time>
      </trkpt>
      <trkpt lat="49.38934" lon="5.829">
        <ele>316.39999389648</ele>
        <time>2022-09-13T10:59:20.000Z</time>
      </trkpt>
      <trkpt lat="49.38929" lon="5.82903">
        <ele>316</ele>
        <time>2022-09-13T10:59:21.000Z</time>
      </trkpt>
      <trkpt lat="49.38922" lon="5.82908">
        <ele>315.79998779297</ele>
        <time>2022-09-13T10:59:22.000Z</time>
      </trkpt>
      <trkpt lat="49.38916" lon="5.8291">
        <ele>315.60000610352</ele>
        <time>2022-09-13T10:59:23.000Z</time>
      </trkpt>
      <trkpt lat="49.38912" lon="5.82911">
        <ele>315.20001220703</ele>
        <time>2022-09-13T10:59:24.000Z</time>
      </trkpt>
      <trkpt lat="49.3891" lon="5.82912">
        <ele>315.20001220703</ele>
        <time>2022-09-13T10:59:25.000Z</time>
      </trkpt>
      <trkpt lat="49.38908" lon="5.82913">
        <ele>315.20001220703</ele>
        <time>2022-09-13T10:59:26.000Z</time>
      </trkpt>
      <trkpt lat="49.38906" lon="5.82913">
        <ele>315.20001220703</ele>
        <time>2022-09-13T10:59:27.000Z</time>
      </trkpt>
      <trkpt lat="49.38904" lon="5.82912">
        <ele>315.20001220703</ele>
        <time>2022-09-13T10:59:28.000Z</time>
      </trkpt>
      <trkpt lat="49.38902" lon="5.82914">
        <ele>315.20001220703</ele>
        <time>2022-09-13T10:59:29.000Z</time>
      </trkpt>
      <trkpt lat="49.389" lon="5.82915">
        <ele>315.60000610352</ele>
        <time>2022-09-13T10:59:30.000Z</time>
      </trkpt>
      <trkpt lat="49.38897" lon="5.82915">
        <ele>316.39999389648</ele>
        <time>2022-09-13T10:59:31.000Z</time>
      </trkpt>
      <trkpt lat="49.38892" lon="5.82916">
        <ele>317.79998779297</ele>
        <time>2022-09-13T10:59:33.000Z</time>
      </trkpt>
      <trkpt lat="49.38884" lon="5.82916">
        <ele>319</ele>
        <time>2022-09-13T10:59:36.000Z</time>
      </trkpt>
      <trkpt lat="49.38879" lon="5.82918">
        <ele>320.20001220703</ele>
        <time>2022-09-13T10:59:38.000Z</time>
      </trkpt>
      <trkpt lat="49.38875" lon="5.82919">
        <ele>320.60000610352</ele>
        <time>2022-09-13T10:59:39.000Z</time>
      </trkpt>
      <trkpt lat="49.38873" lon="5.82921">
        <ele>321</ele>
        <time>2022-09-13T10:59:40.000Z</time>
      </trkpt>
      <trkpt lat="49.38869" lon="5.82922">
        <ele>321.20001220703</ele>
        <time>2022-09-13T10:59:41.000Z</time>
      </trkpt>
      <trkpt lat="49.38867" lon="5.82923">
        <ele>322</ele>
        <time>2022-09-13T10:59:42.000Z</time>
      </trkpt>
      <trkpt lat="49.38865" lon="5.82925">
        <ele>322.39999389648</ele>
        <time>2022-09-13T10:59:43.000Z</time>
      </trkpt>
      <trkpt lat="49.38863" lon="5.82928">
        <ele>323.20001220703</ele>
        <time>2022-09-13T10:59:44.000Z</time>
      </trkpt>
      <trkpt lat="49.3886" lon="5.82929">
        <ele>323.79998779297</ele>
        <time>2022-09-13T10:59:45.000Z</time>
      </trkpt>
      <trkpt lat="49.38858" lon="5.82929">
        <ele>324</ele>
        <time>2022-09-13T10:59:46.000Z</time>
      </trkpt>
      <trkpt lat="49.38855" lon="5.82929">
        <ele>324.60000610352</ele>
        <time>2022-09-13T10:59:47.000Z</time>
      </trkpt>
      <trkpt lat="49.38852" lon="5.82929">
        <ele>325</ele>
        <time>2022-09-13T10:59:48.000Z</time>
      </trkpt>
      <trkpt lat="49.38849" lon="5.8293">
        <ele>325.39999389648</ele>
        <time>2022-09-13T10:59:49.000Z</time>
      </trkpt>
      <trkpt lat="49.38847" lon="5.82932">
        <ele>325.60000610352</ele>
        <time>2022-09-13T10:59:50.000Z</time>
      </trkpt>
      <trkpt lat="49.38845" lon="5.82933">
        <ele>326</ele>
        <time>2022-09-13T10:59:51.000Z</time>
      </trkpt>
      <trkpt lat="49.38844" lon="5.82933">
        <ele>326.20001220703</ele>
        <time>2022-09-13T10:59:52.000Z</time>
      </trkpt>
      <trkpt lat="49.38841" lon="5.82931">
        <ele>326.60000610352</ele>
        <time>2022-09-13T10:59:53.000Z</time>
      </trkpt>
      <trkpt lat="49.38839" lon="5.82931">
        <ele>326.79998779297</ele>
        <time>2022-09-13T10:59:54.000Z</time>
      </trkpt>
      <trkpt lat="49.38837" lon="5.82932">
        <ele>327</ele>
        <time>2022-09-13T10:59:55.000Z</time>
      </trkpt>
      <trkpt lat="49.38835" lon="5.82932">
        <ele>327.20001220703</ele>
        <time>2022-09-13T10:59:56.000Z</time>
      </trkpt>
      <trkpt lat="49.38831" lon="5.82932">
        <ele>327.39999389648</ele>
        <time>2022-09-13T10:59:57.000Z</time>
      </trkpt>
      <trkpt lat="49.38828" lon="5.82934">
        <ele>327.79998779297</ele>
        <time>2022-09-13T10:59:58.000Z</time>
      </trkpt>
      <trkpt lat="49.38826" lon="5.82936">
        <ele>328</ele>
        <time>2022-09-13T10:59:59.000Z</time>
      </trkpt>
      <trkpt lat="49.38824" lon="5.82936">
        <ele>328.20001220703</ele>
        <time>2022-09-13T11:00:00.000Z</time>
      </trkpt>
      <trkpt lat="49.38822" lon="5.82939">
        <ele>328.39999389648</ele>
        <time>2022-09-13T11:00:01.000Z</time>
      </trkpt>
      <trkpt lat="49.38819" lon="5.82939">
        <ele>328.60000610352</ele>
        <time>2022-09-13T11:00:02.000Z</time>
      </trkpt>
      <trkpt lat="49.38817" lon="5.82939">
        <ele>329</ele>
        <time>2022-09-13T11:00:03.000Z</time>
      </trkpt>
      <trkpt lat="49.38815" lon="5.82942">
        <ele>329.20001220703</ele>
        <time>2022-09-13T11:00:04.000Z</time>
      </trkpt>
      <trkpt lat="49.38812" lon="5.82944">
        <ele>329.60000610352</ele>
        <time>2022-09-13T11:00:05.000Z</time>
      </trkpt>
      <trkpt lat="49.38808" lon="5.82945">
        <ele>329.60000610352</ele>
        <time>2022-09-13T11:00:06.000Z</time>
      </trkpt>
      <trkpt lat="49.38805" lon="5.82946">
        <ele>329.79998779297</ele>
        <time>2022-09-13T11:00:07.000Z</time>
      </trkpt>
      <trkpt lat="49.38802" lon="5.82948">
        <ele>330</ele>
        <time>2022-09-13T11:00:08.000Z</time>
      </trkpt>
      <trkpt lat="49.388" lon="5.82948">
        <ele>330</ele>
        <time>2022-09-13T11:00:09.000Z</time>
      </trkpt>
      <trkpt lat="49.38799" lon="5.82949">
        <ele>330.20001220703</ele>
        <time>2022-09-13T11:00:10.000Z</time>
      </trkpt>
      <trkpt lat="49.38797" lon="5.82949">
        <ele>330.20001220703</ele>
        <time>2022-09-13T11:00:11.000Z</time>
      </trkpt>
      <trkpt lat="49.38793" lon="5.8295">
        <ele>330.39999389648</ele>
        <time>2022-09-13T11:00:12.000Z</time>
      </trkpt>
      <trkpt lat="49.38789" lon="5.82949">
        <ele>330.39999389648</ele>
        <time>2022-09-13T11:00:13.000Z</time>
      </trkpt>
      <trkpt lat="49.38786" lon="5.8295">
        <ele>330.39999389648</ele>
        <time>2022-09-13T11:00:14.000Z</time>
      </trkpt>
      <trkpt lat="49.38784" lon="5.8295">
        <ele>330.60000610352</ele>
        <time>2022-09-13T11:00:15.000Z</time>
      </trkpt>
      <trkpt lat="49.38781" lon="5.8295">
        <ele>330.60000610352</ele>
        <time>2022-09-13T11:00:16.000Z</time>
      </trkpt>
      <trkpt lat="49.3878" lon="5.82952">
        <ele>330.79998779297</ele>
        <time>2022-09-13T11:00:17.000Z</time>
      </trkpt>
      <trkpt lat="49.38777" lon="5.82953">
        <ele>330.79998779297</ele>
        <time>2022-09-13T11:00:18.000Z</time>
      </trkpt>
      <trkpt lat="49.38773" lon="5.82953">
        <ele>330.79998779297</ele>
        <time>2022-09-13T11:00:19.000Z</time>
      </trkpt>
      <trkpt lat="49.3877" lon="5.82953">
        <ele>330.79998779297</ele>
        <time>2022-09-13T11:00:20.000Z</time>
      </trkpt>
      <trkpt lat="49.38767" lon="5.82953">
        <ele>330.79998779297</ele>
        <time>2022-09-13T11:00:21.000Z</time>
      </trkpt>
      <trkpt lat="49.38764" lon="5.82953">
        <ele>331</ele>
        <time>2022-09-13T11:00:22.000Z</time>
      </trkpt>
      <trkpt lat="49.38761" lon="5.82953">
        <ele>331.20001220703</ele>
        <time>2022-09-13T11:00:23.000Z</time>
      </trkpt>
      <trkpt lat="49.38757" lon="5.82951">
        <ele>331.20001220703</ele>
        <time>2022-09-13T11:00:24.000Z</time>
      </trkpt>
      <trkpt lat="49.38754" lon="5.8295">
        <ele>331.39999389648</ele>
        <time>2022-09-13T11:00:25.000Z</time>
      </trkpt>
      <trkpt lat="49.38752" lon="5.82948">
        <ele>331.60000610352</ele>
        <time>2022-09-13T11:00:26.000Z</time>
      </trkpt>
      <trkpt lat="49.3875" lon="5.82946">
        <ele>331.60000610352</ele>
        <time>2022-09-13T11:00:27.000Z</time>
      </trkpt>
      <trkpt lat="49.38747" lon="5.82944">
        <ele>331.60000610352</ele>
        <time>2022-09-13T11:00:28.000Z</time>
      </trkpt>
      <trkpt lat="49.38745" lon="5.82943">
        <ele>331.60000610352</ele>
        <time>2022-09-13T11:00:29.000Z</time>
      </trkpt>
      <trkpt lat="49.3874" lon="5.82939">
        <ele>331.79998779297</ele>
        <time>2022-09-13T11:00:30.000Z</time>
      </trkpt>
      <trkpt lat="49.38737" lon="5.82937">
        <ele>331.79998779297</ele>
        <time>2022-09-13T11:00:31.000Z</time>
      </trkpt>
      <trkpt lat="49.38734" lon="5.82934">
        <ele>331.79998779297</ele>
        <time>2022-09-13T11:00:32.000Z</time>
      </trkpt>
      <trkpt lat="49.38732" lon="5.82933">
        <ele>331.79998779297</ele>
        <time>2022-09-13T11:00:33.000Z</time>
      </trkpt>
      <trkpt lat="49.3873" lon="5.82932">
        <ele>332</ele>
        <time>2022-09-13T11:00:34.000Z</time>
      </trkpt>
      <trkpt lat="49.38728" lon="5.82933">
        <ele>332.20001220703</ele>
        <time>2022-09-13T11:00:35.000Z</time>
      </trkpt>
      <trkpt lat="49.38725" lon="5.82933">
        <ele>332.39999389648</ele>
        <time>2022-09-13T11:00:36.000Z</time>
      </trkpt>
      <trkpt lat="49.38723" lon="5.82932">
        <ele>332.60000610352</ele>
        <time>2022-09-13T11:00:37.000Z</time>
      </trkpt>
      <trkpt lat="49.38722" lon="5.82933">
        <ele>332.60000610352</ele>
        <time>2022-09-13T11:00:38.000Z</time>
      </trkpt>
      <trkpt lat="49.38719" lon="5.82934">
        <ele>332.79998779297</ele>
        <time>2022-09-13T11:00:39.000Z</time>
      </trkpt>
      <trkpt lat="49.38716" lon="5.82934">
        <ele>332.79998779297</ele>
        <time>2022-09-13T11:00:40.000Z</time>
      </trkpt>
      <trkpt lat="49.38712" lon="5.82935">
        <ele>333</ele>
        <time>2022-09-13T11:00:41.000Z</time>
      </trkpt>
      <trkpt lat="49.38708" lon="5.82935">
        <ele>333</ele>
        <time>2022-09-13T11:00:42.000Z</time>
      </trkpt>
      <trkpt lat="49.38706" lon="5.82935">
        <ele>333.20001220703</ele>
        <time>2022-09-13T11:00:43.000Z</time>
      </trkpt>
      <trkpt lat="49.38703" lon="5.82936">
        <ele>333.20001220703</ele>
        <time>2022-09-13T11:00:44.000Z</time>
      </trkpt>
      <trkpt lat="49.387" lon="5.82937">
        <ele>333.39999389648</ele>
        <time>2022-09-13T11:00:45.000Z</time>
      </trkpt>
      <trkpt lat="49.38699" lon="5.8294">
        <ele>333.39999389648</ele>
        <time>2022-09-13T11:00:46.000Z</time>
      </trkpt>
      <trkpt lat="49.38699" lon="5.82942">
        <ele>333.60000610352</ele>
        <time>2022-09-13T11:00:47.000Z</time>
      </trkpt>
      <trkpt lat="49.38697" lon="5.82944">
        <ele>333.60000610352</ele>
        <time>2022-09-13T11:00:48.000Z</time>
      </trkpt>
      <trkpt lat="49.38696" lon="5.82946">
        <ele>333.79998779297</ele>
        <time>2022-09-13T11:00:49.000Z</time>
      </trkpt>
      <trkpt lat="49.38696" lon="5.82949">
        <ele>333.79998779297</ele>
        <time>2022-09-13T11:00:50.000Z</time>
      </trkpt>
      <trkpt lat="49.38696" lon="5.82952">
        <ele>333.79998779297</ele>
        <time>2022-09-13T11:00:51.000Z</time>
      </trkpt>
      <trkpt lat="49.38696" lon="5.82955">
        <ele>333.79998779297</ele>
        <time>2022-09-13T11:00:52.000Z</time>
      </trkpt>
      <trkpt lat="49.38697" lon="5.82959">
        <ele>333.79998779297</ele>
        <time>2022-09-13T11:00:53.000Z</time>
      </trkpt>
      <trkpt lat="49.38698" lon="5.82963">
        <ele>333.79998779297</ele>
        <time>2022-09-13T11:00:54.000Z</time>
      </trkpt>
      <trkpt lat="49.387" lon="5.82977">
        <ele>334</ele>
        <time>2022-09-13T11:00:57.000Z</time>
      </trkpt>
      <trkpt lat="49.387" lon="5.82981">
        <ele>334</ele>
        <time>2022-09-13T11:00:58.000Z</time>
      </trkpt>
      <trkpt lat="49.38696" lon="5.83009">
        <ele>333.60000610352</ele>
        <time>2022-09-13T11:01:04.000Z</time>
      </trkpt>
      <trkpt lat="49.38681" lon="5.83045">
        <ele>333.39999389648</ele>
        <time>2022-09-13T11:01:13.000Z</time>
      </trkpt>
      <trkpt lat="49.38661" lon="5.83092">
        <ele>333.39999389648</ele>
        <time>2022-09-13T11:01:23.000Z</time>
      </trkpt>
      <trkpt lat="49.3865" lon="5.83118">
        <ele>332.60000610352</ele>
        <time>2022-09-13T11:01:29.000Z</time>
      </trkpt>
      <trkpt lat="49.38649" lon="5.83123">
        <ele>332.79998779297</ele>
        <time>2022-09-13T11:01:30.000Z</time>
      </trkpt>
      <trkpt lat="49.38647" lon="5.83127">
        <ele>332.79998779297</ele>
        <time>2022-09-13T11:01:31.000Z</time>
      </trkpt>
      <trkpt lat="49.38638" lon="5.83144">
        <ele>328.7</ele>
        <time>2022-09-13T11:01:32.000Z</time>
      </trkpt>
      <trkpt lat="49.38657" lon="5.83286">
        <ele>308</ele>
      </trkpt>
      <trkpt lat="49.38674" lon="5.83362">
        <ele>299.2</ele>
      </trkpt>
      <trkpt lat="49.38691" lon="5.83524">
        <ele>296</ele>
      </trkpt>
      <trkpt lat="49.38702" lon="5.8355">
        <ele>294.9</ele>
      </trkpt>
      <trkpt lat="49.38714" lon="5.83512">
        <ele>292.7</ele>
      </trkpt>
      <trkpt lat="49.38701" lon="5.83548">
        <ele>294.9</ele>
      </trkpt>
      <trkpt lat="49.38693" lon="5.83527">
        <ele>296.1</ele>
      </trkpt>
    </trkseg>
  </trk>
</gpx>